[[{"header":{"parameterUnit":"m.s-1","parameterCategory":1,"la1":31.0,"la2":29.5877,"lo1":-88.7671,"lo2":-86.6584,"dy":0.0162,"dx":0.0185,"nx":115,"ny":88,"refTime":"2023-06-27T06:00:00:Z","depth":0,"parameterNumber":2,"parameterNumberName":"U-component_of_WINDS"},"data":[0.0,0.0,0.0,0.0,0.0,0.0,0.0,0.0,0.0,0.0,0.0,0.0,0.0,0.0,0.0,0.0,0.0,0.0,0.0,0.0,0.0,0.0,0.0,0.0,0.0,0.0,0.0,0.0,0.0,0.0,0.0,0.0,0.0,0.0,0.0,0.0,0.0,0.0,0.0,0.0,0.0,0.0,0.0,0.0,0.0,0.0,0.0,0.0,0.0,0.0,0.0,0.0,0.0,0.0,0.0,0.0,0.0,0.0,0.0,0.0,0.0,0.0,0.0,0.0,0.0,0.0,0.0,0.0,0.0,0.0,0.0,0.0,0.0,0.0,0.0,0.0,0.0,0.0,0.0,0.0,0.0,0.0,0.0,0.0,0.0,0.0,0.0,0.0,0.0,0.0,0.0,0.0,0.0,0.0,0.0,0.0,0.0,0.0,0.0,0.0,0.0,0.0,0.0,0.0,0.0,0.0,0.0,0.0,0.0,0.0,0.0,0.0,0.0,0.0,0.0,0.0,0.0,0.0,0.0,0.0,0.0,0.0,0.0,0.0,0.0,0.0,0.0,0.0,0.0,0.0,0.0,0.0,0.0,0.0,0.0,0.0,0.0,0.0,0.0,0.0,0.0,0.0,0.0,0.0,0.0,0.0,0.0,0.0,0.0,0.0,0.0,0.0,0.0,0.0,0.0,0.0,0.0,0.0,0.0,0.0,0.0,0.0,0.0,0.0,0.0,0.0,0.0,0.0,0.0,0.0,0.0,0.0,0.0,0.0,0.0,0.0,0.0,0.0,0.0,0.0,0.0,0.0,0.0,0.0,0.0,0.0,0.0,0.0,0.0,0.0,0.0,0.0,0.0,0.0,0.0,0.0,0.0,0.0,0.0,0.0,0.0,0.0,0.0,0.0,0.0,0.0,0.0,0.0,0.0,0.0,0.0,0.0,0.0,0.0,0.0,0.0,0.0,0.0,0.0,0.0,0.0,0.0,0.0,0.0,0.0,0.0,0.0,0.0,0.0,0.0,0.0,0.0,0.0,0.0,0.0,0.0,0.0,0.0,0.0,0.0,0.0,0.0,0.0,0.0,0.0,0.0,0.0,0.0,0.0,0.0,0.0,0.0,0.0,0.0,0.0,0.0,0.0,0.0,0.0,0.0,0.0,0.0,0.0,0.0,0.0,0.0,0.0,0.0,0.0,0.0,0.0,0.0,0.0,0.0,0.0,0.0,0.0,0.0,0.0,0.0,0.0,0.0,0.0,0.0,0.0,0.0,0.0,0.0,0.0,0.0,0.0,0.0,0.0,0.0,0.0,0.0,0.0,0.0,0.0,0.0,0.0,0.0,0.0,0.0,0.0,0.0,0.0,0.0,0.0,0.0,0.0,0.0,0.0,0.0,0.0,0.0,0.0,0.0,0.0,0.0,0.0,0.0,0.0,0.0,0.0,0.0,0.0,0.0,0.0,0.0,0.0,0.0,0.0,0.0,0.0,0.0,0.0,0.0,0.0,0.0,0.0,0.0,0.0,0.0,0.0,0.0,0.0,0.0,0.0,0.0,0.0,0.0,0.0,0.0,0.0,0.0,0.0,0.0,0.0,0.0,0.0,0.0,0.0,0.0,0.0,0.0,0.0,0.0,0.0,0.0,0.0,0.0,0.0,0.0,0.0,0.0,0.0,0.0,0.0,0.0,0.0,0.0,0.0,0.0,0.0,0.0,0.0,0.0,0.0,0.0,0.0,0.0,0.0,0.0,0.0,0.0,0.0,0.0,0.0,0.0,0.0,0.0,0.0,0.0,0.0,0.0,0.0,0.0,0.0,0.0,0.0,0.0,0.0,0.0,0.0,0.0,0.0,0.0,0.0,0.0,0.0,0.0,0.0,0.0,0.0,0.0,0.0,0.0,0.0,0.0,0.0,0.0,0.0,0.0,0.0,0.0,0.0,0.0,0.0,0.0,0.0,0.0,0.0,0.0,0.0,0.0,0.0,0.0,0.0,0.0,0.0,0.0,0.0,0.0,0.0,0.0,0.0,0.0,0.0,0.0,0.0,0.0,0.0,0.0,0.0,0.0,0.0,0.0,0.0,0.0,0.0,0.0,0.0,0.0,0.0,0.0,0.0,0.0,0.0,0.0,0.0,0.0,0.0,0.0,0.0,0.0,0.0,0.0,0.0,0.0,0.0,0.0,0.0,0.0,0.0,0.0,0.0,0.0,0.0,0.0,0.0,0.0,0.0,0.0,0.0,0.0,0.0,0.0,0.0,0.0,0.0,0.0,0.0,0.0,0.0,0.0,0.0,0.0,0.0,0.0,0.0,0.0,0.0,0.0,0.0,0.0,0.0,0.0,0.0,0.0,0.0,0.0,0.0,0.0,0.0,0.0,0.0,0.0,0.0,0.0,0.0,0.0,0.0,0.0,0.0,0.0,0.0,0.0,0.0,0.0,0.0,0.0,0.0,0.0,0.0,0.0,0.0,0.0,0.0,0.0,0.0,0.0,0.0,0.0,0.0,0.0,0.0,0.0,0.0,0.0,0.0,0.0,0.0,0.0,0.0,0.0,0.0,0.0,0.0,0.0,0.0,0.0,0.0,0.0,0.0,0.0,0.0,0.0,0.0,0.0,0.0,0.0,0.0,0.0,0.0,0.0,0.0,0.0,0.0,0.0,0.0,0.0,0.0,0.0,0.0,0.0,0.0,0.0,0.0,0.0,0.0,0.0,0.0,0.0,0.0,0.0,0.0,0.0,0.0,0.0,0.0,0.0,0.0,0.0,0.0,0.0,0.0,0.0,0.0,0.0,0.0,0.0,0.0,0.0,0.0,0.0,0.0,0.0,0.0,0.0,0.0,0.0,0.0,0.0,0.0,0.0,0.0,0.0,0.0,0.0,0.0,0.0,0.0,0.0,0.0,0.0,0.0,0.0,0.0,0.0,0.0,0.0,0.0,0.0,0.0,0.0,0.0,0.0,0.0,0.0,0.0,0.0,0.0,0.0,0.0,0.0,0.0,0.0,0.0,0.0,0.0,0.0,0.0,0.0,0.0,0.0,0.0,0.0,0.0,0.0,0.0,0.0,0.0,0.0,0.0,0.0,0.0,0.0,0.0,0.0,0.0,0.0,0.0,0.0,0.0,0.0,0.0,0.0,0.0,0.0,0.0,0.0,0.0,0.0,0.0,0.0,0.0,0.0,0.0,0.0,0.0,0.0,0.0,0.0,0.0,0.0,0.0,0.0,0.0,0.0,0.0,0.0,0.0,0.0,0.0,0.0,0.0,0.0,0.0,0.0,0.0,0.0,0.0,0.0,0.0,0.0,0.0,0.0,0.0,0.0,0.0,0.0,0.0,0.0,0.0,0.0,0.0,0.0,0.0,0.0,0.0,0.0,0.0,0.0,0.0,0.0,0.0,0.0,0.0,0.0,0.0,0.0,0.0,0.0,0.0,0.0,0.0,0.0,0.0,0.0,0.0,0.0,0.0,0.0,0.0,0.0,0.0,0.0,0.0,0.0,0.0,0.0,0.0,0.0,0.0,0.0,0.0,0.0,0.0,0.0,0.0,0.0,0.0,0.0,0.0,0.0,0.0,0.0,0.0,0.0,0.0,0.0,0.0,0.0,0.0,0.0,0.0,0.0,0.0,0.0,0.0,0.0,0.0,0.0,0.0,0.0,0.0,0.0,0.0,0.0,0.0,0.0,0.0,0.0,0.0,0.0,0.0,0.0,0.0,0.0,0.0,0.0,0.0,0.0,0.0,0.0,0.0,0.0,0.0,0.0,0.0,0.0,0.0,0.0,0.0,0.0,0.0,0.0,0.0,0.0,0.0,0.0,0.0,0.0,0.0,0.0,0.0,0.0,0.0,0.0,0.0,0.0,0.0,0.0,0.0,0.0,0.0,0.0,0.0,0.0,0.0,0.0,0.0,0.0,0.0,0.0,0.0,0.0,0.0,0.0,0.0,0.0,0.0,0.0,0.0,0.0,0.0,0.0,0.0,0.0,0.0,0.0,0.0,0.0,0.0,0.0,0.0,0.0,0.0,0.0,0.0,0.0,0.0,0.0,0.0,0.0,0.0,0.0,0.0,0.0,0.0,0.0,0.0,0.0,0.0,0.0,0.0,0.0,0.0,0.0,0.0,0.0,0.0,0.0,0.0,0.0,0.0,0.0,0.0,0.0,0.0,0.0,0.0,0.0,0.0,0.0,0.0,0.0,0.0,0.0,0.0,0.0,0.0,0.0,0.0,0.0,0.0,0.0,0.0,0.0,0.0,0.0,0.0,0.0,0.0,0.0,-0.382,0.0,0.0,0.0,0.0,0.0,0.0,0.0,0.0,0.0,0.0,0.0,0.0,0.0,0.0,0.0,0.0,0.0,0.0,0.0,0.0,0.0,0.0,0.0,0.0,0.0,0.0,0.0,0.0,0.0,0.0,0.0,0.0,0.0,0.0,0.0,0.0,0.0,0.0,0.0,0.0,0.0,0.0,0.0,0.0,0.0,0.0,0.0,0.0,0.0,0.0,0.0,0.0,0.0,0.0,0.0,0.0,0.0,0.0,0.0,0.0,0.0,0.0,0.0,0.0,0.0,0.0,0.0,0.0,0.0,0.0,0.0,0.0,0.0,0.0,0.0,0.0,0.0,0.0,0.0,0.0,0.0,0.0,0.0,0.0,0.0,0.0,0.0,0.0,0.0,0.0,0.0,0.0,0.0,0.0,0.0,0.0,0.0,0.0,0.0,0.0,0.0,0.0,0.0,0.0,0.0,0.0,0.0,0.0,0.0,0.0,-0.3662,-0.3481,-0.422,-0.4781,-0.5117,0.0,0.0,0.0,0.0,0.0,0.0,0.0,0.0,0.0,0.0,0.0,0.0,0.0,0.0,0.0,0.0,0.0,0.0,0.0,0.0,0.0,0.0,0.0,0.0,0.0,0.0,0.0,0.0,0.0,0.0,0.0,0.0,0.0,0.0,0.0,0.0,0.0,0.0,0.0,0.0,0.0,0.0,0.0,0.0,0.0,0.0,0.0,0.0,0.0,0.0,0.0,0.0,0.0,0.0,0.0,0.0,0.0,0.0,0.0,0.0,0.0,0.0,0.0,0.0,0.0,0.0,0.0,0.0,0.0,0.0,0.0,0.0,0.0,0.0,0.0,0.0,0.0,0.0,0.0,0.0,0.0,0.0,0.0,0.0,0.0,0.0,0.0,0.0,0.0,0.0,0.0,0.0,0.0,0.0,0.0,0.0,0.0,0.0,0.0,0.0,0.0,0.0,0.0,0.0,0.0,0.0,0.0,0.0,0.0,0.0,0.0,0.0,-0.4594,-0.5319,-0.6419,0.0,0.0,0.0,0.0,0.0,0.0,0.0,0.0,0.0,0.0,0.0,0.0,0.0,0.0,0.0,0.0,0.0,0.0,0.0,0.0,0.0,0.0,0.0,0.0,0.0,0.0,0.0,0.0,0.0,0.0,0.0,0.0,0.0,0.0,0.0,0.0,0.0,0.0,0.0,0.0,0.0,0.0,0.0,0.0,0.0,0.0,0.0,0.0,0.0,0.0,0.0,0.0,0.0,0.0,0.0,0.0,0.0,0.0,0.0,0.0,0.0,0.0,0.0,0.0,0.0,0.0,0.0,0.0,0.0,0.0,0.0,0.0,0.0,0.0,0.0,0.0,0.0,0.0,0.0,0.0,0.0,0.0,0.0,0.0,0.0,0.0,0.0,0.0,0.0,0.0,0.0,0.0,0.0,0.0,0.0,0.0,0.0,0.0,0.0,0.0,0.0,0.0,0.0,0.0,0.0,0.0,0.0,0.0,0.0,0.0,-0.3618,-0.4449,-0.5192,0.0,-0.6171,0.0,0.0,0.0,0.0,0.0,0.0,0.0,0.0,0.0,0.0,0.0,0.0,0.0,0.0,0.0,0.0,0.0,0.0,0.0,0.0,0.0,0.0,0.0,0.0,0.0,0.0,0.0,0.0,0.0,0.0,0.0,0.0,0.0,0.0,0.0,0.0,0.0,0.0,0.0,0.0,0.0,0.0,0.0,0.0,0.0,0.0,0.0,0.0,0.0,0.0,0.0,0.0,0.0,0.0,0.0,0.0,0.0,0.0,0.0,0.0,0.0,0.0,0.0,0.0,0.0,0.0,0.0,0.0,0.0,0.0,0.0,0.0,0.0,0.0,0.0,0.0,0.0,0.0,0.0,0.0,0.0,0.0,0.0,0.0,0.0,0.0,0.0,0.0,0.0,0.0,0.0,0.0,0.0,0.0,0.0,0.0,0.0,0.0,0.0,0.0,0.0,0.0,0.0,0.0,0.0,0.0,0.0,0.0,0.0,0.0,-0.3196,-0.3878,-0.6108,-0.68,0.0,0.0,0.0,0.0,0.0,0.0,0.0,0.0,0.0,0.0,0.0,0.0,0.0,0.0,0.0,0.0,0.0,0.0,0.0,0.0,0.0,0.0,0.0,0.0,0.0,0.0,0.0,0.0,0.0,0.0,0.0,0.0,0.0,0.0,0.0,0.0,0.0,0.0,0.0,0.0,0.0,0.0,0.0,0.0,0.0,0.0,0.0,0.0,0.0,0.0,0.0,0.0,0.0,0.0,0.0,0.0,0.0,0.0,0.0,0.0,0.0,0.0,0.0,0.0,0.0,0.0,0.0,0.0,0.0,0.0,0.0,0.0,0.0,0.0,0.0,0.0,0.0,0.0,0.0,0.0,0.0,0.0,0.0,0.0,0.0,0.0,0.0,0.0,0.0,0.0,0.0,0.0,0.0,0.0,0.0,0.0,0.0,0.0,0.0,0.0,0.0,0.0,0.0,0.0,0.0,0.0,0.0,0.0,0.0,0.0,-0.2046,-0.28,-0.3793,-0.6008,-0.6734,-0.5655,0.0,0.0,0.0,0.0,0.0,0.0,0.0,0.0,0.0,0.0,0.0,0.0,0.0,0.0,0.0,0.0,0.0,0.0,0.0,0.0,0.0,0.0,0.0,0.0,0.0,0.0,0.0,0.0,0.0,0.0,0.0,0.0,0.0,0.0,0.0,0.0,0.0,0.0,0.0,0.0,0.0,0.0,0.0,0.0,0.0,0.0,0.0,0.0,0.0,0.0,0.0,0.0,0.0,0.0,0.0,0.0,0.0,0.0,0.0,0.0,0.0,0.0,0.0,0.0,0.0,0.0,0.0,0.0,0.0,0.0,0.0,0.0,0.0,0.0,0.0,0.0,0.0,0.0,0.0,0.0,0.0,0.0,0.0,0.0,0.0,0.0,0.0,0.0,0.0,0.0,0.0,0.0,0.0,0.0,0.0,0.0,0.0,0.0,0.0,0.0,0.0,0.0,0.0,0.0,0.0,0.0,0.0,0.0,-0.0823,-0.1411,-0.2586,-0.4225,-0.438,-0.4961,0.0,0.0,0.0,0.0,0.0,0.0,0.0,0.0,0.0,0.0,0.0,0.0,0.0,0.0,0.0,0.0,0.0,0.0,0.0,0.0,0.0,0.0,0.0,0.0,0.0,0.0,0.0,0.0,0.0,0.0,0.0,0.0,0.0,0.0,0.0,0.0,0.0,0.0,0.0,0.0,0.0,0.0,0.0,0.0,0.0,0.0,0.0,0.0,0.0,0.0,0.0,0.0,0.0,0.0,0.0,0.0,0.0,0.0,0.0,0.0,0.0,0.0,0.0,0.0,0.0,0.0,0.0,0.0,0.0,0.0,0.0,0.0,0.0,0.0,0.0,0.0,0.0,0.0,0.0,0.0,0.0,0.0,0.0,0.0,0.0,0.0,0.0,0.0,0.0,0.0,0.0,0.0,0.0,0.0,0.0,0.0,0.0,0.0,0.0,0.0,0.0,0.0,0.0,0.0,0.0,0.0,0.0,0.0,0.0,-0.0399,-0.1204,-0.2057,-0.2953,-0.378,-0.4398,0.0,0.0,0.0,0.0,0.0,0.0,0.0,0.0,0.0,0.0,0.0,0.0,0.0,0.0,0.0,0.0,0.0,0.0,0.0,0.0,0.0,0.0,0.0,0.0,0.0,0.0,0.0,0.0,0.0,0.0,0.0,0.0,0.0,0.0,0.0,0.0,0.0,0.0,0.0,0.0,0.0,0.0,0.0,0.0,0.0,0.0,0.0,0.0,0.0,0.0,0.0,0.0,0.0,0.0,0.0,0.0,0.0,0.0,0.0,0.0,0.0,0.0,0.0,0.0,0.0,0.0,0.0,0.0,0.0,0.0,0.0,0.0,0.0,0.0,0.0,0.0,0.0,0.0,0.0,0.0,0.0,0.0,0.0,0.0,0.0,0.0,0.0,0.0,0.0,0.0,0.0,0.0,0.0,0.0,0.0,0.0,0.0,0.0,0.0,0.0,0.0,0.0,0.0,0.0,0.0,0.0,0.0,0.0,0.0,-0.0025,0.0,-0.1091,-0.2096,-0.3318,-0.3988,0.0,0.0,0.0,0.0,0.0,0.0,0.0,0.0,0.0,0.0,0.0,0.0,0.0,0.0,0.0,0.0,0.0,0.0,0.0,0.0,0.0,0.0,0.0,0.0,0.0,0.0,0.0,0.0,0.0,0.0,0.0,0.0,0.0,0.0,0.0,0.0,0.0,0.0,0.0,0.0,0.0,0.0,0.0,0.0,0.0,0.0,0.0,0.0,0.0,0.0,0.0,0.0,0.0,0.0,0.0,0.0,0.0,0.0,0.0,0.0,0.0,0.0,0.0,0.0,0.0,0.0,0.0,0.0,0.0,0.0,0.0,0.0,0.0,0.0,0.0,0.0,0.0,0.0,0.0,0.0,0.0,0.0,0.0,0.0,0.0,0.0,0.0,0.0,0.0,0.0,0.0,0.0,0.0,0.0,0.0,0.0,0.0,0.0,0.0,0.0,0.0,0.0,0.0,0.0,0.0,0.0,0.0,0.0,0.118,0.0375,0.0958,0.0278,-0.1787,-0.2918,-0.3656,0.0,0.0,0.0,0.0,0.0,0.0,0.0,0.0,0.0,0.0,0.0,0.0,0.0,0.0,0.0,0.0,0.0,0.0,0.0,0.0,0.0,0.0,0.0,0.0,0.0,0.0,0.0,0.0,0.0,0.0,0.0,0.0,0.0,0.0,0.0,0.0,0.0,0.0,0.0,0.0,0.0,0.0,0.0,0.0,0.0,0.0,0.0,0.0,0.0,0.0,0.0,0.0,0.0,0.0,0.0,0.0,0.0,0.0,0.0,0.0,0.0,0.0,0.0,0.0,0.0,0.0,0.0,0.0,0.0,0.0,0.0,0.0,0.0,0.0,0.0,0.0,0.0,0.0,0.0,0.0,0.0,0.0,0.0,0.0,0.0,0.0,0.0,0.0,0.0,0.0,0.0,0.0,0.0,0.0,0.0,0.0,0.0,0.0,0.0,0.0,0.0,0.0,0.0,0.0,0.0,0.0,0.0,0.0,0.0,0.0878,0.0979,0.0485,-0.072,-0.217,-0.3172,0.0,0.0,0.0,0.0,0.0,0.0,0.0,0.0,0.0,0.0,0.0,0.0,0.0,0.0,0.0,0.0,0.0,0.0,0.0,0.0,0.0,0.0,0.0,0.0,0.0,0.0,0.0,0.0,0.0,0.0,0.0,0.0,0.0,0.0,0.0,0.0,0.0,0.0,0.0,0.0,0.0,0.0,0.0,0.0,0.0,0.0,0.0,0.0,0.0,0.0,0.0,0.0,0.0,0.0,0.0,0.0,0.0,0.0,0.0,0.0,0.0,0.0,0.0,0.0,0.0,0.0,0.0,0.0,0.0,0.0,0.0,0.0,0.0,0.0,0.0,0.0,0.0,0.0,0.0,0.0,0.0,0.0,0.0,0.0,0.0,0.0,0.0,0.0,0.0,0.0,0.0,0.0,0.0,0.0,0.0,0.0,0.0,0.0,0.0,0.0,0.0,0.0,0.0,0.0,0.0,0.0,0.0,0.0,0.0,0.1513,0.1242,0.0728,0.0024,-0.1117,-0.2157,-0.3129,0.0,0.0,0.0,0.0,0.0,0.0,0.0,0.0,0.0,0.0,0.0,0.0,0.0,0.0,0.0,0.0,0.0,0.0,0.0,0.0,0.0,0.0,0.0,0.0,0.0,0.0,0.0,0.0,0.0,0.0,0.0,0.0,0.0,0.0,0.0,0.0,0.0,0.0,0.0,0.0,0.0,0.0,0.0,0.0,0.0,0.0,0.0,0.0,0.0,0.0,0.0,0.0,0.0,0.0,0.0,0.0,0.0,0.0,0.0,0.0,0.0,0.0,0.0,0.0,0.0,0.0,0.0,0.0,0.0,0.0,0.0,0.0,0.0,0.0,0.0,0.0,0.0,0.0,0.0,0.0,0.0,0.0,0.0,0.0,0.0,0.0,0.0,0.0,0.0,0.0,0.0,0.0,0.0,0.0,0.0,0.0,0.0,0.0,0.0,0.0,0.0,0.0,0.0,0.0,0.0,0.0,0.0,0.0,0.2109,0.1724,0.1183,0.0457,0.0169,-0.0773,0.0,0.0,0.0,0.0,0.0,0.0,0.0,0.0,0.0,0.0,0.0,0.0,0.0,0.0,0.0,0.0,0.0,0.0,0.0,0.0,0.0,0.0,0.0,0.0,0.0,0.0,0.0,0.0,0.0,0.0,0.0,0.0,0.0,0.0,0.0,0.0,0.0,0.0,0.0,0.0,0.0,0.0,0.0,0.0,0.0,0.0,0.0,0.0,0.0,0.0,0.0,0.0,0.0,0.0,0.0,0.0,0.0,0.0,0.0,0.0,0.0,0.0,0.0,0.0,0.0,0.0,0.0,0.0,0.0,0.0,0.0,0.0,0.0,0.0,0.0,0.0,0.0,0.0,0.0,0.0,0.0,0.0,0.0,0.0,0.0,0.0,0.0,0.0,0.0,0.0,0.0,0.0,0.0,0.0,0.0,0.0,0.0,0.0,0.0,0.0,0.0,0.0,0.0,0.0,0.0,0.0,0.0,0.0,0.0,0.1146,0.2353,0.257,0.1648,0.101,0.0211,0.0,0.0,0.0,0.0,0.0,0.0,0.0,0.0,0.0,0.0,0.0,0.0,0.0,0.0,0.0,0.0,0.0,0.0,0.0,0.0,0.0,0.0,0.0,0.0,0.0,0.0,0.0,0.0,0.0,0.0,0.0,0.0,0.0,0.0,0.0,0.0,0.0,0.0,0.0,0.0,0.0,0.0,0.0,0.0,0.0,0.0,0.0,0.0,0.0,0.0,0.0,0.0,0.0,0.0,0.0,0.0,0.0,0.0,0.0,0.0,0.0,0.0,0.0,0.0,0.0,0.0,0.0,0.0,0.0,0.0,0.0,0.0,0.0,0.0,0.0,0.0,0.0,0.0,0.0,0.0,0.0,0.0,0.0,0.0,0.0,0.0,0.0,0.0,0.0,0.0,0.0,0.0,0.0,0.0,0.0,0.0,0.0,0.0,0.0,0.0,0.0,0.0,0.0,0.0,0.0,0.0,0.0,0.0,0.0768,0.0702,0.2616,0.331,0.2746,0.19,0.1185,0.0,0.0,0.0,0.0,0.0,0.0,0.0,0.0,0.0,0.0,0.0,0.0,0.0,0.0,0.0,0.0,0.0,0.0,0.0,0.0,0.0,0.0,0.0,0.0,0.0,0.0,0.0,0.0,0.0,0.0,0.0,0.0,0.0,0.0,0.0,0.0,0.0,0.0,0.0,0.0,0.0,0.0,0.0,0.0,0.0,0.0,0.0,0.0,0.0,0.0,0.0,0.0,0.0,0.0,0.0,0.0,0.0,0.0,0.0,0.0,0.0,0.0,0.0,0.0,0.0,0.0,0.0,0.0,0.0,0.0,0.0,0.0,0.0,0.0,0.0,0.0,0.0,0.0,0.0,0.0,0.0,0.0,0.0,0.0,0.0,0.0,0.0,0.0,0.0,0.0,0.0,0.0,0.0,0.0,0.0,0.0,0.0,0.0,0.0,0.0,0.0,0.0,0.0,0.0,0.0,0.0,0.0,0.0,0.0222,0.0632,0.2326,0.3358,0.3554,0.2728,0.208,0.0,0.0,0.0,0.0,0.0,0.0,0.0,0.0,0.0,0.0,0.0,0.0,0.0,0.0,0.0,0.0,0.0,0.0,0.0,0.0,0.0,0.0,0.0,0.0,0.0,0.0,0.0,0.0,0.0,0.0,0.0,0.0,0.0,0.0,0.0,0.0,0.0,0.0,0.0,0.0,0.0,0.0,0.0,0.0,0.0,0.0,0.0,0.0,0.0,0.0,0.0,0.0,0.0,0.0,0.0,0.0,0.0,0.0,0.0,0.0,0.0,0.0,0.0,0.0,0.0,0.0,0.0,0.0,0.0,0.0,0.0,0.0,0.0,0.0,0.0,0.0,0.0,0.0,0.0,0.0,0.0,0.0,0.0,0.0,0.0,0.0,0.0,0.0,0.0,0.0,0.0,0.0,0.0,0.0,0.0,0.0,0.0,0.0,0.0,0.0,0.0,0.0,0.0,0.0,0.0,0.0,0.0,0.0,0.0063,0.013,0.0541,0.1673,0.3547,0.2944,0.2437,0.0,0.0,0.0,0.0,0.0,0.0,0.0,0.0,0.0,0.0,0.0,0.0,0.0,0.0,0.0,0.0,0.0,0.0,0.0,0.0,0.0,0.0,0.0,0.0,0.0,0.0,0.0,0.0,0.0,0.0,0.0,0.0,0.0,0.0,0.0,0.0,0.0,0.0,0.0,0.0,0.0,0.0,0.0,0.0,0.0,0.0,0.0,0.0,-0.0289,0.0,0.0,0.0,0.0,0.0,0.0,0.0,0.0,0.0,0.0,0.0,0.0,0.0,0.0,0.0,0.0,0.0,0.0,0.0,0.0,0.0,0.0,0.0,0.0,0.0,0.0,0.0,0.0,0.0,0.0,0.0,0.0,0.0,0.0,0.0,0.0,0.0,0.0,0.0,0.0,0.0,0.0,0.0,0.0,0.0,0.0,0.0,0.0,0.0,0.0,0.0,0.0,0.0,0.0,0.0,0.0,0.0,0.0,0.0,-0.0,-0.0,-0.0,0.0604,0.181,0.1601,0.1746,0.0,0.0,0.0,0.0,0.0,0.0,0.0,0.0,0.0,0.0,0.0,0.0,0.0,0.0,0.0,0.0,0.0,0.0,0.0,0.0,0.0,0.0,0.0,0.0,0.0,0.0,0.0,0.0,0.0,0.0,0.0,0.0,0.0,0.0,0.0,0.0,0.0,0.0,0.0,0.0,0.0,0.0,0.0,0.0,0.0,0.0,0.0,0.0,0.0,0.0,0.0,0.0,0.0,0.0,0.0,0.0,0.0,0.0,0.0,0.0,0.0,0.0,0.0,0.0,0.0,0.0,0.0,0.0,0.0,0.0,0.0,0.0,0.0,0.0,0.0,0.0,0.0,0.0,0.0,0.0,0.0,0.0,0.0,0.0,0.0,0.0,0.0,0.0,0.0,0.0,0.0,0.0,0.0,0.0,0.0,0.0,0.0,0.0,0.0,0.0,0.0,0.0,0.0,0.0,0.0,0.0,0.0,-0.0,-0.0,-0.0,-0.0,-0.0,-0.0,-0.0,0.072,0.2211,0.0,0.0,0.0,0.0,0.0,0.0,0.0,0.0,0.0,0.0,0.0,0.0,0.0,0.0,0.0,0.0,0.0,0.0,0.0,0.0,0.0,0.0,0.0,0.0,0.0,0.0,0.0,0.0,0.0,0.0,0.0,0.0,0.0,0.0,0.0,0.0,0.0,0.0,0.2408,0.2747,0.0,0.0,0.0,0.0,0.0,0.0,0.0,0.0,-0.0462,0.0,0.0,0.0,0.0,0.0,0.0,0.0,0.0,0.0,0.0,0.0,0.0,0.0,0.0,0.0,0.0,0.0,0.0,0.0,0.0,0.0,0.0,0.0,0.0,0.0,0.0,0.0,0.0,0.0,0.0,0.0,0.0,0.0,0.0,0.0,0.0,0.0,0.0,0.0,0.0,0.0,0.0,0.0,0.0,0.0,0.0,0.0,0.0,0.0,0.0,0.0,0.0,0.0,0.0,0.0,0.0,-0.0,-0.0,-0.0,-0.0,-0.0,-0.0,-0.0,-0.0,0.0137,0.0413,0.0,0.0,0.0,0.0,0.0,0.0,0.0,0.0,0.0,0.0,0.0,0.0,0.0,0.0,0.0,0.0,0.0,0.0,0.0,0.0,0.0,0.0,0.0,0.0,0.0,0.0,0.0,0.0,0.0,0.0,0.0,0.0,0.0,0.0,0.0,0.0,0.0,0.0,0.0,0.2859,0.291,0.0,0.0,0.0,0.0,0.0,0.0,0.0,0.0,0.0738,0.0,0.0,0.0,0.0,0.0,0.0,0.0,0.0,0.0,0.0,0.0,0.0,0.0,0.0,0.0,0.0,0.0,0.0,0.0,0.0,0.0,0.0,0.0,0.0,0.0,0.0,0.0,0.0,0.0,0.0,0.0,0.0,0.0,0.0,0.0,0.0,0.0,0.0,0.0,0.0,0.0,0.0,0.0,0.0,0.0,0.0,0.0,0.0,0.0,0.0,0.0,0.0,0.0,0.0,0.0,-0.0,-0.0,-0.0,-0.0,-0.0,-0.0,-0.0,-0.0,-0.0,0.0,0.0,0.0,0.0,0.0,0.0,0.0,0.0,0.0,0.0,0.0,0.0,0.0,0.0,0.0,0.0,0.0,0.0,0.0,0.0,0.0,0.0,0.0,0.0,0.0,0.0,0.0,0.0,0.0,0.0,0.0,0.0,0.0,0.0,0.0,0.0,0.0,0.0,0.0,0.0,0.2469,0.2815,0.2808,0.0,0.0,0.0,0.0,0.0,0.0,0.2057,0.2303,0.0,0.0,0.0,0.0,0.0,0.0,0.0,0.0,0.0,0.0,0.0,0.0,0.0,0.0,0.0,0.0,0.0,0.0,0.0,0.0,0.0,0.0,0.0,0.0,0.0,0.0,0.0,0.0,0.0,0.0,0.0,0.0,0.0,0.0,0.0,0.0,0.0,0.0,0.0,0.0,0.0,0.0,0.0,0.0,0.0,0.0,0.0,0.0,0.0,0.0,0.0,0.0,0.0,0.0,0.0,-0.0,-0.0,-0.0,-0.0,-0.0,-0.0,-0.0,-0.0,-0.0,0.0,0.0,0.0,0.0,0.0,0.0,0.0,0.0,0.0,0.0,0.0,0.0,0.0,0.0,0.0,0.0,0.0,0.0,0.0,0.0,0.0,0.0,0.0,0.0,0.0,0.0,0.0,0.0,0.0,0.0,0.0,0.0,0.0,0.0,0.0,0.0,0.0,0.0,0.0,0.0,0.0,0.2828,0.2974,0.299,0.0,0.0,0.0,0.0,0.2831,0.3202,0.0,0.0,0.0,0.0,0.0,0.0,0.0,0.0,0.0,0.0,0.0,0.0,0.0,0.0,0.0,0.0,0.0,0.0,0.0,0.0,0.0,0.0,0.0,0.0,0.0,0.0,0.0,0.0,0.0,0.0,0.0,0.0,0.0,0.0,0.0,0.0,0.0,0.0,0.0,0.0,0.0,0.0,0.0,0.0,0.0,0.0,0.0,0.0,0.0,0.0,0.0,0.0,0.0,0.0,0.0,0.0,-0.0,-0.0,-0.0,-0.0,-0.0,-0.0,-0.0,-0.0,-0.0,0.0,0.0,0.0,0.0,0.0,0.0,0.0,0.0,0.0,0.0,0.0,0.0,0.0,0.0,0.0,0.0,0.0,0.0,0.0,0.0,0.0,0.0,0.0,0.0,0.0,0.0,0.0,0.0,0.0,0.0,0.0,0.0,0.0,0.0,0.0,0.0,0.0,0.0,0.0,0.0,0.0,0.3057,0.3283,0.3198,0.3011,0.0,0.0,0.3233,0.3064,0.3128,0.0,0.0,0.0,0.0,0.0,0.0,0.0,0.0,0.0,0.0,0.0,0.0,0.0,0.0,0.0,0.0,0.0,0.0,0.0,0.0,0.0,0.0,0.0,0.0,0.0,0.0,0.0,0.0,0.0,0.0,0.0,0.0,0.0,0.0,0.0,0.0,0.0,0.0,0.0,0.0,0.0,0.0,0.0,0.0,0.0,0.0,0.0,0.0,0.0,0.0,0.0,0.0,0.0,0.0,0.0,0.027,-0.0,-0.0,-0.0,-0.0,-0.0,-0.0,-0.0,-0.0,-0.0,0.0,0.0,0.0,0.0,0.0,0.0,0.0,0.0,0.0,0.0,0.0,0.0,0.0,0.0,0.0,0.0,0.0,0.0,0.0,0.0,0.0,0.0,0.0,0.0,0.0,0.0,0.0,0.0,0.0,0.0,0.0,0.0,0.0,0.0,0.0,0.0,0.0,0.0,0.0,0.0,0.0,0.0,0.3172,0.3096,0.0,0.0,0.0,0.3246,0.3092,0.0,0.0,0.0,0.0,0.0,0.0,0.0,0.0,0.0,0.0,0.0,0.0,0.0,0.0,0.0,0.0,0.0,0.0,0.0,0.0,0.0,0.0,0.0,0.0,0.0,0.0,0.0,0.0,0.0,0.0,0.0,0.0,0.0,0.0,0.0,0.0,0.0,0.0,0.0,0.0,0.0,0.0,0.0,0.0,0.0,0.0,0.0,0.0,0.0,0.0,0.0,0.0,0.0,0.0,0.0,0.0,0.0,0.0378,0.0116,-0.0,-0.0,-0.0,-0.0,-0.0,-0.0,0.0,0.0,0.0,0.0,0.0,0.0,0.0,0.0,0.0,0.0,0.0,0.0,0.0,0.0,0.0,0.0,0.0,0.0,0.0,0.0,0.0,0.0,0.0,0.0,0.0,0.0,0.0,0.1255,0.0,0.0,0.0,0.0,0.0,0.0,0.0,0.0,0.0,0.0,0.0,0.0,0.0,0.0,0.3344,0.3245,0.3137,0.3082,0.0,0.0,0.3334,0.3193,0.3599,0.3894,0.0,0.0,0.0,0.0,0.0,0.0,0.0,0.0,0.0,0.0,0.0,0.0,0.0,0.0,0.0,0.0,0.0,0.0,0.0,0.0,0.0,0.0,0.0,0.0,0.0,0.0,0.0,0.0,0.0,0.0,0.0,0.0,0.0,0.0,0.0,0.0,0.0,0.0,0.0,0.0,0.0,0.0,0.0,0.0,0.0,0.0,0.0,0.0,0.0,0.0,0.0,0.0,0.0,0.0,0.0,0.1262,0.0441,-0.0,-0.0,-0.0,-0.0,-0.0,-0.0,0.0189,0.0,0.0,0.0,0.0,0.0,0.0,0.0,0.0,0.0,0.0,0.0,0.0,0.0,0.0,0.0,0.0,0.0,0.0,0.0,0.0,0.0,0.0,0.0,0.0,0.0,0.0,0.0,0.0,0.0,0.0,0.0,0.0,0.0,0.0,0.0,0.0,0.0,0.0,0.0,0.0,0.0,0.2926,0.3731,0.3531,0.3367,0.0,0.0,0.3567,0.3658,0.4083,0.4428,0.4255,0.0,0.0,0.0,0.0,0.0,0.0,0.0,0.0,0.0,0.0,0.0,0.0,0.0,0.0,0.0,0.0,0.0,0.0,0.0,0.0,0.0,0.0,0.0,0.0,0.0,0.0,0.0,0.0,0.0,0.0,0.0,0.0,0.0,0.0,0.0,0.0,0.0,0.0,0.0,0.0,0.0,0.0,0.0,0.0,0.0,0.0,0.0,0.0,0.0,0.0,0.0,0.0,0.0,0.1112,0.0547,0.018,-0.0,-0.0,-0.0,-0.0,-0.0,-0.0,0.0195,0.0,0.0,0.0,0.0,0.0,0.0,0.0,0.0,0.0,0.0,0.0,0.0,0.0,0.0,0.0,0.0,0.0,0.0,0.0,0.0,0.0,0.0,0.0,0.0,0.0,0.0,0.0,0.0,0.1058,0.1443,0.2165,0.0,0.0,0.0,0.0,0.0,0.0,0.0,0.0,0.0,0.0,0.1907,0.2147,0.3064,0.0,0.0,0.3598,0.3751,0.3667,0.402,0.424,0.3912,0.3707,0.0,0.0,0.0,0.0,0.0,0.0,0.0,0.0,0.0,0.0,0.0,0.0,0.0,0.0,0.0,0.0,0.0,0.0,0.0,0.0,0.0,0.0,0.0,0.0,0.0,0.0,0.0,0.0,0.0,0.0,0.0,0.0,0.0,0.0,0.0,0.0,0.0,0.0,0.0,0.0,0.0,0.0,0.0,0.0,0.0,0.0,0.0,0.0,0.0,0.0,0.0,0.0,0.0516,-0.0,-0.0,-0.0,-0.0,-0.0,-0.0,-0.0,-0.0885,-0.1178,0.0,0.0,0.0,0.0,0.0,0.0,0.0,0.0,0.0,0.0,0.0,0.0,0.0,0.0,0.0,0.0,0.0,0.0,0.0,0.0,0.0,0.0,0.0,0.0,0.0,0.0,0.0,0.0,0.1337,0.2089,0.3254,0.0,0.0,0.0,0.0,0.0,0.0,0.0,0.0,0.0,0.0,0.1198,0.0849,0.1951,0.2775,0.2754,0.3104,0.3399,0.3534,0.391,0.4069,0.3947,0.0,0.0,0.0,0.0,0.0,0.0,0.0,0.0,0.0,0.0,0.0,0.0,0.0,0.0,0.0,0.0,0.0,0.0,0.0,0.0,0.0,0.0,0.0,0.0,0.0,0.0,0.0,0.0,0.0,0.0,0.0537,0.0,0.0,0.0,0.0,0.0,0.0,0.0,0.0,0.0,0.0,0.0,0.0,0.0,0.0,0.0,0.0,0.0,0.0,0.0,0.0,0.0,0.0,-0.0396,-0.0,-0.0,-0.0,-0.0,-0.0,-0.0,-0.0,-0.2807,-0.4333,-0.4181,0.0,0.0,0.0,0.0,0.0,0.0,0.0,0.0,0.0,0.0,0.0,0.0,0.0,0.0,0.0,0.0,0.0,0.0,0.0,0.0,0.0,0.0,0.0,0.0,0.0,0.0,0.117,0.1706,0.225,0.0,0.0,0.0,0.0,0.0,0.0,0.0,0.0,0.0,0.0,0.0832,0.1047,0.0152,0.0049,0.0675,0.1843,0.2069,0.2484,0.3378,0.377,0.4136,0.0,0.0,0.0,0.0,0.0,0.0,0.0,0.0,0.0,0.0,0.0,0.0,0.0,0.0,0.0,0.0,0.0,0.0,0.0,0.0,0.0,0.0,0.0,0.0,0.0,0.0,0.0,0.1733,0.1633,0.0,0.0,0.0,0.0,0.0,0.0,0.0,0.0,0.0,0.0,0.0,0.2232,0.1536,0.0,0.0,0.0,0.0,0.0,0.0,0.0,0.0,0.0,0.0,0.0,0.0,-0.0156,-0.0,-0.0,-0.0,-0.0,-0.0,-0.0,-0.0,-0.0952,-0.1488,-0.1489,0.0,0.0,0.0,0.0,0.0,0.0,0.0,0.0,0.0,0.0,0.0,0.0,0.0,0.0,0.0,0.0,0.0,0.0,0.0,0.0,0.0,0.0,0.0,0.0,0.0,0.1045,0.0,0.0,0.0,0.0,0.0,0.0,0.0,0.0,0.0,0.0,0.0,0.2342,0.0257,0.0253,0.0349,0.005,0.0548,0.0902,0.0,0.0,0.0,0.0,0.0,0.0,0.0,0.0,0.0,0.0,0.0,0.0,0.0,0.0,0.361,0.3922,0.3948,0.3532,0.2353,0.0,0.0,0.0,0.0,0.0,0.0,0.0,0.0,0.0,0.0,0.0,0.0,0.0,0.0,0.149,0.0,0.1748,0.0,0.0,0.0,0.0,0.0,0.0,0.0,0.0,0.1436,0.151,0.2113,0.1235,0.0734,0.0,0.0999,0.1396,0.0,0.0,0.0,0.0,0.0,0.0,0.0,0.0,0.0428,-0.0,-0.0,-0.0,-0.0,-0.0,-0.0,-0.0,-0.0,-0.0,-0.0,-0.0,0.0151,0.0,0.0,0.0,0.0,0.0,0.0,0.0,0.0,0.0,0.0,0.0,0.0,0.0,0.0,0.0,0.0,0.0,0.0,0.0,0.0,0.0,0.0,0.0,0.1013,0.0,0.0,0.0,0.0,0.0,0.0,0.0,0.0,0.0,0.2802,0.2862,0.2135,0.026,-0.0,0.0099,0.0446,0.0,0.0,0.0,0.0,0.0,0.0,0.0,0.3248,0.3196,0.3332,0.3687,0.44,0.4216,0.3951,0.3733,0.0,0.0,0.4072,0.4036,0.3371,0.1544,0.1178,0.1333,0.1822,0.2093,0.2002,0.0,0.0,0.0,0.0,0.0,0.0,0.0,0.0,0.121,0.1017,0.0,0.1821,0.0,0.0,0.0,0.0,0.0,0.1471,0.0,0.0,0.0868,0.0276,0.0642,0.0214,0.0218,0.0674,0.0677,0.1034,0.1716,0.1767,0.0,0.0,0.0,0.0,0.0,0.0,0.1193,0.0153,-0.0,-0.0,-0.0,-0.0,-0.0,-0.0,-0.0,-0.0,-0.0,-0.0,-0.0161,-0.0167,-0.0419,0.0,0.0,0.0,0.0,0.0,0.0,0.0,0.0,0.0,0.0,0.0,0.0,0.0,0.0,0.0,0.0,0.0,0.0,0.0,0.0,0.1384,0.0,0.0,0.0,0.0,0.0,0.0,0.0,0.0,0.0,0.0,0.1566,0.1382,0.1017,0.0104,0.0,0.0,0.0,0.0,0.1424,0.1374,0.1804,0.2078,0.1994,0.1887,0.1961,0.2367,0.0,0.0,0.3961,0.4174,0.3648,0.2514,0.306,0.3801,0.4366,0.4258,0.3299,-0.0,-0.0,-0.0,0.0701,0.0844,0.0771,0.1558,0.0,0.0,0.0,0.0,0.1341,0.1184,0.1767,0.1615,0.1127,0.0415,0.1424,0.0,0.0,0.0,0.0,0.0,0.0,0.1056,0.1316,0.1265,0.0905,0.0229,0.0057,0.0058,0.024,0.0553,0.0624,0.0567,0.0973,0.1143,0.112,0.0,0.0,0.0,0.0,0.141,0.1254,0.0444,-0.0,-0.0,-0.0,-0.1064,-0.3147,-0.1118,-0.1004,-0.3132,-0.3214,-0.3212,-0.319,-0.2471,0.0,0.0,0.0,0.0,0.0,0.0,0.0,0.0,0.0,0.0,0.0,0.0,0.0,0.0,0.0,0.0,0.0,0.0,0.0,0.139,0.0813,0.0567,0.0,0.0,0.0,0.0,0.0,0.0,0.0,0.0,0.0,0.0716,0.041,0.0295,0.0,0.0,0.0096,0.0347,0.0982,0.1425,0.1418,0.1492,0.0,0.1571,0.1565,0.1341,0.0808,0.0514,0.0615,0.1216,0.2961,0.424,0.384,0.3722,0.3682,0.3727,0.2432,-0.0,-0.0,-0.0,-0.0,0.0233,0.0229,-0.0,0.1942,0.3093,0.2686,0.2413,0.2145,0.1061,0.0759,0.1107,0.1094,0.0699,0.0063,0.102,0.1115,0.0642,0.1176,0.0,0.0,0.0,0.093,0.0453,0.0867,0.0707,-0.0,-0.0,-0.0,-0.0,0.0255,0.0258,-0.0,0.0329,0.0775,0.1225,0.0,0.0,0.1547,0.1536,0.1478,0.1317,0.0464,-0.0,-0.0,-0.0,-0.1419,-0.4347,-0.2719,-0.262,-0.4405,-0.4515,-0.4513,-0.451,-0.4056,-0.3641,0.0,0.0,0.0,0.0,0.0,0.0,0.0,0.0,0.0,0.0,0.0,-0.2246,-0.19,0.0,0.0,0.0,0.0825,0.0516,0.0825,0.0315,0.0,0.0,0.0,0.0,0.0,0.0,0.0,0.0478,0.1448,0.1608,-0.0,-0.0,-0.0,-0.0,-0.0,-0.0,-0.0,0.0,0.0897,0.1084,0.1123,0.1115,0.1137,0.1256,0.1068,0.0159,-0.0,-0.0,-0.0,0.1586,0.2688,0.2684,0.2399,0.218,0.2168,0.0976,-0.0,-0.0,-0.0,-0.0,-0.0,-0.0,-0.0,0.3377,0.3435,0.3731,0.2891,0.1323,0.0954,0.0479,-0.0,-0.0,-0.0,-0.0,0.0602,0.0854,0.0808,0.0845,0.0,0.1673,0.1686,0.1024,-0.0,-0.0,-0.0,-0.0,-0.0,-0.0,-0.0,-0.0,-0.0,-0.0,-0.0,0.0647,0.1745,0.1295,0.1195,0.1541,0.1694,0.1392,0.0649,0.0242,-0.0,-0.0,-0.0,-0.1453,-0.4439,-0.4541,-0.4484,-0.4549,-0.4543,-0.4544,-0.4611,-0.5078,-0.5399,-0.531,0.0,0.0,0.0,0.0,0.0,0.0,0.0,0.0,0.0,0.0,0.0,0.0,0.0,0.0,0.0,0.0536,0.0,-0.0,-0.0,0.0,0.0,0.0,0.1396,0.1603,0.1757,0.1355,0.0285,0.0,0.0,-0.0,-0.0,-0.0,-0.0,-0.0,-0.0,-0.0,-0.0,0.0175,0.0568,0.0677,0.0677,0.0622,0.0969,0.0955,-0.0,-0.0,-0.0,-0.0,-0.0,-0.0,-0.0,-0.0,-0.0,-0.0,-0.0,-0.0,-0.0,-0.0,-0.0,-0.0,-0.0,-0.0,0.5851,0.5916,0.6028,0.5667,0.4719,0.1564,0.0142,-0.0,-0.0,-0.0,-0.0,0.014,0.0205,0.0198,0.0197,0.0324,0.0447,0.0444,0.0314,-0.0,-0.0,-0.0,-0.0,-0.0,-0.0,-0.0,-0.0,-0.0,-0.0,-0.0,0.0594,0.175,0.1848,0.1729,0.136,0.145,0.1043,0.0177,0.0059,-0.0,-0.0,-0.0,-0.1516,-0.473,-0.4623,-0.4569,-0.4807,-0.5026,-0.5174,-0.5191,-0.5297,-0.5424,-0.5401,-0.3645,0.0,0.0,0.0,0.0,0.0,0.0,0.0,0.0,0.0,-0.2359,-0.2837,0.0,-0.0909,0.0,0.0454,0.0407,-0.0,-0.0,0.0,0.0,0.0376,0.0377,0.0446,0.1229,0.168,0.1445,0.0574,-0.0,-0.0,-0.0,-0.0,-0.0,-0.0,-0.0,-0.0,-0.0,0.0059,-0.0,-0.0,0.0178,-0.0,0.0239,-0.0,-0.0,-0.0,-0.0,-0.0,-0.0,-0.0,-0.0,-0.0,-0.0,-0.0,-0.0,-0.0,-0.0,-0.2136,-0.3247,-0.0,-0.0,-0.0,0.6817,0.6814,0.6659,0.6495,0.6069,0.2784,0.0844,-0.0,-0.0,-0.0,-0.0,-0.0,-0.0,-0.0,-0.0,-0.0,-0.0,-0.0,-0.0,-0.0,-0.0,-0.0,-0.0,-0.0,-0.0,-0.0,-0.0,-0.0,-0.0,-0.0,0.0624,0.1778,0.1941,0.1901,0.1728,0.1613,0.1293,0.0814,0.025,-0.0753,-0.2269,-0.0816,-0.1494,-0.451,-0.4813,-0.4928,-0.4867,-0.4427,-0.4584,-0.5362,-0.4978,-0.4929,-0.536,-0.3967,-0.2677,0.0,0.0,0.0,0.0,0.0,0.0,0.0,0.0,0.0,0.0,0.0,-0.1517,-0.0119,0.0246,0.0314,-0.0,-0.0,-0.0,-0.0,-0.0,-0.0,-0.0,0.0622,0.0974,0.0969,0.0417,-0.0,-0.0,-0.0,-0.0,-0.0,-0.0,-0.0,-0.0,-0.0,-0.0,-0.0,-0.0,-0.0,-0.0,-0.0,-0.0,-0.0,-0.0,-0.0,-0.0,-0.0,-0.0,-0.0,-0.0,-0.0,-0.0,-0.0,-0.0,-0.0,-0.2217,-0.3498,-0.2698,-0.2374,-0.2378,0.6881,0.6857,0.624,0.618,0.6248,0.4413,0.2254,-0.0,-0.0,-0.0,-0.0,-0.0,-0.0,-0.0,-0.0,-0.0,-0.0,-0.0,-0.0,-0.0,-0.0,-0.0,-0.0,-0.0,-0.0,-0.0,-0.0,-0.0,-0.0,-0.0,0.0509,0.1523,0.1748,0.1871,0.2034,0.1924,0.1829,0.1817,0.0607,-0.1604,-0.4727,-0.2131,-0.1839,-0.4092,-0.4813,-0.5053,-0.4935,-0.3498,-0.3435,-0.4942,-0.4181,-0.4268,-0.5438,-0.4364,-0.2538,0.0,-0.0719,0.0,0.0,0.0,0.0,0.0,0.0,0.0,0.0,-0.2948,-0.2391,-0.0065,0.0067,-0.0,-0.0,-0.0,-0.0,-0.0,-0.0,-0.0,-0.0,-0.0,-0.0,-0.0,-0.0,-0.0,-0.0,-0.0,-0.0,-0.0,-0.0,-0.0,-0.0,-0.0,-0.0,-0.0,-0.0,-0.0,-0.0,-0.0,-0.0,-0.0,-0.0,-0.0,-0.0,-0.0,-0.0,-0.0,-0.0,-0.0,-0.0,-0.0,-0.0,-0.0,-0.1812,-0.3424,-0.4053,-0.4527,-0.5202,0.7323,0.7102,0.4959,0.5201,0.6944,0.6551,0.3909,-0.0,-0.0,-0.0,-0.0,-0.0,-0.0,-0.0,-0.0,-0.0,-0.0,-0.0,-0.0,-0.0,-0.0,-0.0,-0.0,-0.0,-0.0,-0.0,-0.0,-0.0,-0.0,-0.0,0.0144,0.0353,0.1298,0.1584,0.1194,0.0,0.0,0.0,0.0756,-0.0624,-0.193,-0.3574,-0.4062,-0.3448,-0.3549,0.0,-0.5186,-0.3623,-0.2879,-0.3193,-0.3351,0.0,0.0,0.0,0.0,0.0,0.0,0.0,0.0,0.0,0.0,0.0,-0.4766,-0.4781,-0.3282,-0.3332,-0.2347,0.0411,0.0276,-0.0,-0.0,-0.0,-0.0,-0.0,-0.0,-0.0,-0.0,-0.0,-0.0,-0.0,-0.0,-0.0,-0.0,-0.0,-0.0,-0.0,-0.0,-0.0,-0.0,-0.0,-0.0,-0.0,-0.0,-0.0,-0.0,-0.0,-0.0,-0.0,-0.0,-0.0,-0.337,-0.4185,-0.3703,-0.2549,-0.221,-0.2211,-0.2144,-0.1076,-0.0,-0.0,-0.2614,-0.4087,-0.1682,-0.2676,-0.4196,0.7724,0.0,0.3437,0.3885,0.0,0.7114,0.4375,-0.0,-0.0,-0.0,-0.0,-0.0,-0.0,-0.0,-0.0,-0.0,-0.0,-0.0,-0.0,-0.0,-0.0,-0.0,-0.0,-0.0,-0.0,-0.0,-0.0,-0.0,-0.0,-0.0,-0.0,-0.0,0.092,0.1446,0.1562,0.1957,0.1846,0.1121,0.0354,-0.0784,-0.2352,-0.2984,-0.3555,-0.4031,-0.3317,0.0,0.0,0.0,0.0,0.0,0.0,0.0,0.0,-0.4338,0.0,-0.1623,-0.0578,-0.0,-0.0,-0.1483,-0.3138,-0.486,-0.5787,-0.5702,-0.4263,-0.4649,-0.4307,-0.2804,-0.1109,-0.0,-0.0,-0.0,-0.0,-0.0,-0.0,-0.0,-0.0,-0.0,-0.0,-0.0,-0.0,-0.0,-0.0,-0.0,-0.0,-0.0,-0.0,-0.0,-0.0,-0.0,-0.0,-0.0,-0.0,-0.0,-0.0,-0.0,-0.0,-0.0,-0.0,-0.0,-0.2363,-0.4252,-0.5068,-0.4239,-0.403,-0.403,-0.3961,-0.3293,-0.269,-0.2757,-0.4092,-0.4891,-0.3015,-0.362,-0.4625,0.7955,0.7537,0.2261,0.2239,0.588,0.586,0.3597,-0.0,0.0,0.0,0.0,-0.0,-0.0,-0.0,-0.0,-0.0,-0.0,-0.0,-0.0,-0.0,-0.0,-0.0,-0.0,-0.0,-0.0,-0.0,-0.0,-0.0,-0.0,-0.0,-0.0,-0.0,0.0489,0.1127,0.1732,0.1808,0.0847,-0.0962,-0.0367,-0.139,-0.3958,-0.2745,-0.287,-0.4679,-0.3783,-0.3453,-0.3735,-0.3518,-0.4284,-0.614,-0.5033,-0.4549,-0.4929,-0.4618,-0.4179,-0.3681,-0.2057,-0.0,-0.1137,-0.3128,-0.4886,-0.6304,-0.6291,-0.5999,-0.543,-0.5934,-0.6318,-0.6332,-0.2914,-0.0,-0.0,-0.0,-0.0,-0.0,-0.0,-0.0,-0.0,-0.0,-0.0,-0.0,-0.0,-0.0,-0.0,-0.0,-0.0,-0.0,-0.0,-0.0,-0.0,-0.0,-0.0,-0.0,-0.0,-0.0,-0.0,-0.0,-0.0,-0.0,-0.0,-0.0,-0.0,-0.2732,-0.4857,-0.5271,-0.5379,-0.5356,-0.5396,-0.5183,-0.5393,-0.5389,-0.5376,-0.5428,-0.5428,-0.5369,-0.5372,0.7908,0.7572,0.2174,0.0392,0.0977,0.096,0.0571,-0.0,-0.0,-0.0,-0.0,-0.0,-0.0,-0.0,-0.0,-0.0,-0.0,-0.0,-0.0,-0.0,-0.0,-0.0,-0.0,-0.0,-0.0,-0.0,-0.0,-0.0,-0.0,-0.0,-0.0,-0.0,0.0082,-0.0,0.0315,0.0314,-0.1565,-0.5231,-0.1824,-0.1953,-0.5829,-0.5721,-0.4999,-0.3992,-0.5086,-0.5833,-0.5896,-0.5811,-0.5926,-0.6277,-0.6089,-0.6025,-0.6008,-0.4438,-0.4086,-0.5653,-0.5591,-0.5372,-0.5395,-0.6146,-0.6683,-0.6733,-0.649,-0.6335,-0.6427,-0.651,-0.6454,-0.6227,-0.4596,-0.2553,-0.0,-0.0,-0.0,-0.0,-0.0,-0.0,-0.0,-0.0,-0.0,-0.0,-0.0,-0.0,-0.0,-0.0,-0.0,-0.0,-0.0,-0.0,-0.0,-0.0,-0.0,-0.0,-0.0,-0.0,-0.0,-0.0,-0.0,-0.0,-0.0,-0.0,-0.0,-0.0,-0.3989,-0.5234,-0.552,-0.5515,-0.5416,-0.5432,-0.5435,-0.5435,-0.5432,-0.5428,-0.5428,-0.5432,-0.5432,0.3636,0.343,0.1,-0.0,-0.0,-0.0,-0.0,-0.0,-0.0,-0.0,-0.0,-0.0,-0.0,-0.0,-0.0,-0.0,-0.0,-0.0,-0.0,-0.0,-0.0,-0.0,-0.0,-0.0,-0.0,-0.0,-0.0,-0.0,-0.0,-0.0,-0.0,-0.0,-0.0,-0.0,-0.0,-0.0,-0.2038,-0.6149,-0.4424,-0.4397,-0.6193,-0.6279,-0.5892,-0.5129,-0.5895,-0.6313,-0.6306,-0.6306,-0.6306,-0.6306,-0.6302,-0.6296,-0.6286,-0.5351,-0.5334,-0.6187,-0.6267,-0.6317,-0.6489,-0.6894,-0.7012,-0.6798,-0.6802,-0.6725,-0.6736,-0.6819,-0.677,-0.6617,-0.5864,-0.5017,-0.3749,-0.2601,-0.1455,-0.008,-0.0,-0.0,-0.0,-0.0,-0.0,-0.0,-0.0,-0.0,-0.0,-0.0,-0.0,-0.0,-0.0,-0.0,-0.0,-0.0,-0.0,-0.0,-0.0,-0.0,-0.0,-0.0,-0.0,-0.0,-0.0,-0.0,-0.0,-0.1672,-0.3627,-0.5415,-0.5755,-0.561,-0.5576,-0.546,-0.5452,-0.5428,-0.5428,-0.5428,-0.5428,-0.5428,-0.5428,-0.0,-0.0,-0.0,-0.0,-0.0,-0.0,-0.0,-0.0,-0.0,-0.0,-0.0,-0.0,-0.0,-0.0,-0.0,-0.0,-0.0,-0.0,-0.0,-0.0,-0.0,-0.0,-0.0,-0.0,-0.0,-0.0,-0.0,-0.0,-0.0,-0.0,-0.0602,-0.0,-0.1597,-0.1076,-0.0,-0.0964,-0.3071,-0.6058,-0.6404,-0.64,-0.6278,-0.6268,-0.6257,-0.6261,-0.6257,-0.6261,-0.6261,-0.6261,-0.6261,-0.6261,-0.6261,-0.6261,-0.6261,-0.6261,-0.6352,-0.6312,-0.6327,-0.6428,-0.6685,-0.6978,-0.7059,-0.6898,-0.6986,-0.7038,-0.6949,-0.7045,-0.7049,-0.6857,-0.6679,-0.6589,-0.6306,-0.5282,-0.3577,-0.1801,-0.0497,-0.0,-0.0,-0.0,-0.0,-0.0,-0.0,-0.0,-0.0,-0.0,-0.0,-0.0,-0.0,-0.0,-0.0,-0.0,-0.0,-0.0,-0.0,-0.0,-0.0,-0.0,-0.0,-0.0,-0.0,-0.0,-0.0,-0.1408,-0.3409,-0.5353,-0.5978,-0.5769,-0.5806,-0.5674,-0.5518,-0.5477,-0.5569,-0.5644,-0.5663,-0.5463,-0.5452,-0.0,-0.0,-0.0,-0.0,-0.0,-0.0,-0.0,-0.0,-0.0,-0.0,-0.0,-0.0,-0.0,-0.0,-0.0,-0.0,-0.0,-0.0,-0.0,-0.0,-0.0,-0.0,-0.0,-0.0,-0.0,-0.0,-0.0,-0.0,-0.0,-0.0,-0.2211,-0.595,-0.6439,-0.4236,-0.0978,-0.3808,-0.586,-0.6288,-0.6579,-0.6583,-0.6285,-0.6268,-0.6261,-0.6261,-0.6261,-0.6261,-0.6268,-0.6261,-0.6261,-0.6261,-0.6268,-0.6264,-0.6264,-0.6264,-0.6397,-0.6444,-0.6388,-0.6505,-0.7027,-0.7083,-0.7056,-0.7085,-0.7088,-0.7092,-0.7112,-0.7102,-0.7041,-0.6943,-0.6909,-0.6861,-0.6826,-0.6479,-0.6235,-0.5722,-0.2519,-0.0,-0.0,-0.0,-0.0,-0.0,-0.0,-0.0,-0.0,-0.0,-0.0,-0.0,-0.0,-0.0,-0.0,-0.0,-0.0,-0.0,-0.0,-0.0,-0.0,-0.0,-0.0,-0.0,-0.0,-0.0,-0.0,-0.0,-0.1401,-0.4296,-0.5947,-0.5767,-0.5751,-0.5768,-0.5751,-0.5728,-0.5912,-0.614,-0.6106,-0.5812,-0.5552,-0.0,-0.0,-0.0,-0.0,-0.0,-0.0,-0.0,-0.0,-0.0,-0.0,-0.0,-0.0,-0.0,-0.0,-0.0,-0.0,-0.0,-0.0,-0.0,-0.0,-0.0,-0.0,-0.0,-0.0,-0.0,-0.0,-0.0,-0.1481,-0.3756,-0.4166,-0.4561,-0.5132,-0.6405,-0.6037,-0.4378,-0.5581,-0.6348,-0.6532,-0.6671,-0.6675,-0.6525,-0.6351,-0.6264,-0.6268,-0.6261,-0.6302,-0.6294,-0.6304,-0.6265,-0.6344,-0.6606,-0.669,-0.6519,-0.6354,-0.6371,-0.6593,-0.6609,-0.6746,-0.7041,-0.7142,-0.7082,-0.7139,-0.7139,-0.7139,-0.7139,-0.7139,-0.7112,-0.7068,-0.7051,-0.7024,-0.6973,-0.6966,-0.7035,-0.6731,-0.4495,-0.2164,-0.0,-0.0,-0.0,-0.3364,-0.1673,-0.1228,-0.3006,-0.1672,-0.0,-0.0,-0.0,-0.0,-0.0,-0.0,-0.0,-0.0,-0.0,-0.0,-0.0,-0.0,-0.0,-0.2515,-0.1571,-0.0,-0.0,-0.0,-0.0,-0.0,-0.3772,-0.4654,-0.4754,-0.5432,-0.5872,-0.5949,-0.6098,-0.6293,-0.6165,-0.6046,-0.5954,-0.0,-0.0,-0.0,-0.0,-0.0,-0.0,-0.0,-0.0,-0.0,-0.0,-0.0,-0.0,-0.0,-0.0,-0.0,-0.0,-0.0,-0.0,-0.0,-0.0,-0.0,-0.0,-0.0,-0.1621,-0.2193,-0.1907,-0.0,-0.2551,-0.6848,-0.7319,-0.6385,-0.5136,-0.6331,-0.7138,-0.7028,-0.6739,-0.6576,-0.6705,-0.6739,-0.6746,-0.6695,-0.6548,-0.6445,-0.6396,-0.6383,-0.6351,-0.628,-0.6367,-0.6498,-0.6523,-0.6871,-0.6957,-0.6781,-0.6593,-0.6518,-0.6669,-0.6816,-0.6944,-0.7132,-0.7139,-0.7139,-0.7139,-0.7139,-0.7139,-0.7139,-0.7139,-0.7139,-0.7136,-0.7139,-0.7136,-0.7139,-0.7139,-0.7102,-0.7027,-0.6034,-0.4343,-0.0,-0.1507,-0.2321,-0.5208,-0.3667,-0.2781,-0.5032,-0.3673,-0.0,-0.0,-0.0,-0.0,-0.0,-0.0,-0.0,-0.1868,-0.0,-0.0,-0.1772,-0.0,-0.3423,-0.3824,-0.2948,-0.2201,-0.1417,-0.0,-0.0,-0.0,-0.0,-0.3142,-0.402,-0.4814,-0.5989,-0.6196,-0.6321,-0.6263,-0.6152,-0.6211,-0.6249,-0.0,-0.0,-0.0,-0.0,-0.0,-0.0,-0.0,-0.0,-0.0,-0.0,-0.0,-0.0,-0.0,-0.0,-0.0,-0.0,-0.0,-0.0,-0.0,-0.0,-0.0,-0.0,-0.0,-0.5163,-0.7502,-0.6547,-0.2771,-0.314,-0.7743,-0.7921,-0.7743,-0.7211,-0.7272,-0.7317,-0.7163,-0.7022,-0.6936,-0.6846,-0.6946,-0.6943,-0.6749,-0.6929,-0.6915,-0.6615,-0.6671,-0.6585,-0.6347,-0.6605,-0.6871,-0.7047,-0.7065,-0.7058,-0.7051,-0.6874,-0.677,-0.6728,-0.6957,-0.7129,-0.7136,-0.7139,-0.7139,-0.7139,-0.7139,-0.7139,-0.7139,-0.7139,-0.7139,-0.7139,-0.7139,-0.7139,-0.7139,-0.7139,-0.7146,-0.7149,-0.7068,-0.6716,-0.6631,-0.4459,-0.357,-0.4291,-0.5377,-0.5557,-0.4291,-0.566,-0.418,-0.1579,-0.0,-0.0,-0.0,-0.3736,-0.5662,-0.5728,-0.4881,-0.4197,-0.6053,-0.5451,-0.4769,-0.4936,-0.5267,-0.5325,-0.447,-0.0,-0.0,-0.0,-0.0,-0.353,-0.3677,-0.4448,-0.5764,-0.6268,-0.6261,-0.627,-0.6211,-0.6283,-0.6234,-0.0,-0.0,-0.0,-0.0,-0.0,-0.0,-0.0,-0.0,-0.0,-0.2019,-0.4144,-0.1515,-0.0,-0.0,-0.0,-0.0,-0.0,-0.3474,-0.5152,-0.4952,-0.3355,-0.1674,-0.0689,-0.5436,-0.795,-0.7641,-0.6028,-0.5984,-0.7472,-0.797,-0.7833,-0.7411,-0.7383,-0.7275,-0.7102,-0.7152,-0.7037,-0.6997,-0.7044,-0.7037,-0.6983,-0.7037,-0.7037,-0.6976,-0.6968,-0.6746,-0.632,-0.6587,-0.6885,-0.7066,-0.7073,-0.7073,-0.707,-0.707,-0.6877,-0.6767,-0.697,-0.7139,-0.7139,-0.7139,-0.7139,-0.7139,-0.7139,-0.7139,-0.7139,-0.7139,-0.7139,-0.7139,-0.7139,-0.7139,-0.7139,-0.7139,-0.7146,-0.7149,-0.7153,-0.7074,-0.6992,-0.6361,-0.5819,-0.5997,-0.6723,-0.6634,-0.6183,-0.6557,-0.5997,-0.3629,-0.2667,-0.2314,-0.2482,-0.3982,-0.5582,-0.6662,-0.6449,-0.6141,-0.676,-0.6908,-0.6533,-0.6197,-0.6065,-0.5197,-0.4371,-0.2716,-0.0,-0.0,-0.0,-0.4152,-0.4288,-0.4935,-0.6119,-0.6268,-0.6261,-0.6261,-0.6257,-0.6261,-0.6261,-0.0,-0.0,-0.0,-0.0,-0.0,-0.0,-0.0,-0.0,-0.1817,-0.4651,-0.679,-0.4138,-0.1711,-0.0402,-0.0906,-0.1814,-0.2823,-0.6377,-0.8022,-0.7808,-0.6152,-0.4318,-0.3412,-0.6345,-0.7985,-0.7982,-0.7979,-0.7912,-0.7811,-0.7904,-0.7865,-0.7526,-0.7512,-0.7411,-0.7248,-0.7125,-0.7108,-0.7156,-0.7139,-0.7139,-0.7139,-0.7139,-0.7139,-0.7115,-0.7121,-0.6973,-0.6548,-0.673,-0.686,-0.7037,-0.7139,-0.7139,-0.7139,-0.7139,-0.7011,-0.6843,-0.6997,-0.7139,-0.7139,-0.7139,-0.7139,-0.7139,-0.7139,-0.7139,-0.7139,-0.7139,-0.7139,-0.7139,-0.7139,-0.7139,-0.7139,-0.7139,-0.7139,-0.7139,-0.7139,-0.7146,-0.7071,-0.7071,-0.7071,-0.6982,-0.6982,-0.7074,-0.7078,-0.7091,-0.6542,-0.563,-0.5006,-0.4739,-0.4739,-0.4825,-0.5097,-0.6729,-0.7074,-0.6871,-0.7122,-0.7066,-0.6987,-0.6724,-0.6508,-0.5479,-0.4559,-0.2782,-0.2506,-0.4659,-0.5345,-0.5015,-0.5132,-0.5686,-0.5964,-0.6268,-0.6261,-0.6261,-0.6261,-0.6261,-0.6261,-0.0,-0.0,-0.0,-0.0,-0.0,-0.0,-0.0,-0.0,-0.5361,-0.751,-0.7815,-0.7588,-0.4726,-0.1704,-0.3119,-0.5343,-0.7089,-0.7847,-0.8036,-0.7895,-0.7782,-0.7675,-0.7369,-0.7666,-0.7972,-0.7969,-0.7952,-0.8038,-0.8018,-0.7997,-0.7919,-0.7818,-0.7773,-0.7624,-0.7373,-0.7259,-0.7101,-0.7098,-0.7153,-0.7139,-0.7139,-0.7139,-0.7139,-0.7139,-0.7115,-0.7109,-0.7037,-0.7041,-0.7037,-0.7136,-0.7139,-0.7139,-0.7139,-0.7139,-0.7136,-0.7126,-0.7048,-0.7139,-0.7153,-0.716,-0.717,-0.7104,-0.7166,-0.7187,-0.7177,-0.7166,-0.716,-0.7143,-0.7139,-0.7139,-0.7139,-0.7139,-0.7139,-0.7139,-0.7139,-0.7143,-0.7146,-0.7146,-0.7146,-0.716,-0.717,-0.7146,-0.7153,-0.7098,-0.7025,-0.6847,-0.6754,-0.6668,-0.6573,-0.6554,-0.6903,-0.7081,-0.7074,-0.7153,-0.7146,-0.7132,-0.7126,-0.7007,-0.682,-0.6288,-0.5817,-0.4534,-0.4326,-0.5838,-0.5539,-0.5279,-0.5791,-0.6268,-0.6189,-0.6325,-0.6298,-0.6285,-0.6261,-0.6261,-0.6261,-0.0,-0.0,-0.0,-0.0,-0.0,-0.0,-0.0,-0.0,-0.5667,-0.7915,-0.8002,-0.7992,-0.7059,-0.6057,-0.6737,-0.7508,-0.8343,-0.8436,-0.8289,-0.8012,-0.7969,-0.7962,-0.7955,-0.7955,-0.7949,-0.7949,-0.8045,-0.8038,-0.8038,-0.8038,-0.796,-0.7838,-0.7818,-0.7712,-0.7533,-0.7237,-0.7151,-0.7295,-0.719,-0.7139,-0.7139,-0.7143,-0.7143,-0.7139,-0.7139,-0.7139,-0.7139,-0.7139,-0.7139,-0.7143,-0.7139,-0.7139,-0.7139,-0.7139,-0.7139,-0.7139,-0.7139,-0.7104,-0.7101,-0.7302,-0.7346,-0.7329,-0.7359,-0.74,-0.7316,-0.7295,-0.7248,-0.7166,-0.7139,-0.7139,-0.7139,-0.7139,-0.7149,-0.7143,-0.7139,-0.7143,-0.7163,-0.7234,-0.7292,-0.7299,-0.7299,-0.7312,-0.7329,-0.7333,-0.7326,-0.7353,-0.7336,-0.7316,-0.7302,-0.7234,-0.7068,-0.7149,-0.7139,-0.716,-0.7173,-0.7163,-0.7139,-0.7139,-0.693,-0.6816,-0.6506,-0.6347,-0.6291,-0.6153,-0.5846,-0.5883,-0.6397,-0.662,-0.6447,-0.6441,-0.6458,-0.6393,-0.6295,-0.6271,-0.6291,-0.0,-0.0,-0.0,-0.0,-0.0,-0.0,-0.0,-0.0,-0.4554,-0.7077,-0.7782,-0.7979,-0.7965,-0.8096,-0.8333,-0.8504,-0.8614,-0.8546,-0.8408,-0.8231,-0.8147,-0.8099,-0.8048,-0.8038,-0.8038,-0.8038,-0.8038,-0.8038,-0.8038,-0.8035,-0.7991,-0.7913,-0.7896,-0.7824,-0.7784,-0.7584,-0.7512,-0.7451,-0.7363,-0.7285,-0.7251,-0.7282,-0.7195,-0.7155,-0.7192,-0.7215,-0.7125,-0.7075,-0.7108,-0.7153,-0.7139,-0.7139,-0.7143,-0.719,-0.7224,-0.7238,-0.7192,-0.708,-0.7254,-0.7554,-0.7681,-0.7577,-0.755,-0.7478,-0.739,-0.7373,-0.7316,-0.7248,-0.7231,-0.7248,-0.7295,-0.7255,-0.7255,-0.7309,-0.7204,-0.7177,-0.7221,-0.7309,-0.7397,-0.7428,-0.7455,-0.7455,-0.7434,-0.7468,-0.7482,-0.7526,-0.7499,-0.7428,-0.7407,-0.7356,-0.7305,-0.7261,-0.7251,-0.7255,-0.7231,-0.7193,-0.7146,-0.7139,-0.7115,-0.7058,-0.6873,-0.689,-0.6773,-0.6734,-0.6595,-0.6427,-0.6878,-0.6651,-0.6522,-0.6566,-0.6647,-0.6563,-0.6485,-0.6376,-0.6356,-0.0,-0.0,-0.0,-0.0,-0.0,-0.0,-0.0,-0.0,-0.2946,-0.5648,-0.7575,-0.7959,-0.7955,-0.8092,-0.8241,-0.8532,-0.8759,-0.8696,-0.8533,-0.8459,-0.836,-0.8238,-0.7995,-0.8079,-0.8069,-0.8041,-0.7959,-0.7955,-0.8038,-0.8038,-0.8038,-0.8021,-0.8011,-0.797,-0.7942,-0.8011,-0.7822,-0.7719,-0.7587,-0.7595,-0.7397,-0.7506,-0.7519,-0.7207,-0.7403,-0.7463,-0.7246,-0.7139,-0.7101,-0.7074,-0.7139,-0.7149,-0.718,-0.7295,-0.7356,-0.738,-0.7233,-0.7282,-0.7409,-0.7705,-0.7921,-0.7753,-0.757,-0.7488,-0.753,-0.7451,-0.7526,-0.7485,-0.7478,-0.7434,-0.7512,-0.7461,-0.7448,-0.7526,-0.736,-0.7285,-0.7363,-0.7404,-0.7492,-0.7584,-0.7607,-0.759,-0.7529,-0.7587,-0.7648,-0.7712,-0.7675,-0.758,-0.7529,-0.7516,-0.7526,-0.7478,-0.74,-0.7387,-0.7377,-0.7353,-0.7312,-0.7312,-0.7278,-0.7221,-0.7143,-0.7136,-0.7136,-0.7105,-0.7102,-0.7115,-0.7058,-0.6834,-0.6783,-0.6895,-0.6885,-0.678,-0.6661,-0.6542,-0.6447,-0.0,-0.0,-0.0,-0.0,-0.0,-0.0,-0.0,-0.0,-0.2779,-0.5302,-0.7598,-0.7955,-0.8016,-0.8011,-0.8357,-0.8591,-0.881,-0.8841,-0.8747,-0.8659,-0.8618,-0.8334,-0.8146,-0.8208,-0.8254,-0.8082,-0.8046,-0.7948,-0.7945,-0.8041,-0.8038,-0.8038,-0.8038,-0.8024,-0.7974,-0.7973,-0.7901,-0.7842,-0.7844,-0.7788,-0.756,-0.758,-0.7677,-0.7747,-0.7587,-0.7607,-0.7684,-0.7359,-0.7111,-0.7068,-0.7139,-0.72,-0.7305,-0.7363,-0.7438,-0.7533,-0.7486,-0.7462,-0.7637,-0.7852,-0.8004,-0.7913,-0.7834,-0.7797,-0.7848,-0.777,-0.7736,-0.7768,-0.7729,-0.756,-0.759,-0.7573,-0.7577,-0.7483,-0.7433,-0.7492,-0.7539,-0.7634,-0.7716,-0.775,-0.7756,-0.778,-0.7818,-0.7801,-0.7811,-0.7889,-0.7841,-0.7746,-0.761,-0.7648,-0.7645,-0.76,-0.7546,-0.7539,-0.7533,-0.7512,-0.7499,-0.7509,-0.7468,-0.739,-0.7275,-0.7166,-0.7153,-0.7129,-0.717,-0.719,-0.7156,-0.7031,-0.7119,-0.7041,-0.7075,-0.6946,-0.6807,-0.6681,-0.6597,-0.0,-0.0,-0.0,-0.0,-0.0,-0.0,-0.0,-0.0,-0.1571,-0.4573,-0.7552,-0.8139,-0.8166,-0.815,-0.8445,-0.8673,-0.8821,-0.8804,-0.8821,-0.8811,-0.8733,-0.8464,-0.819,-0.8353,-0.8419,-0.8343,-0.8146,-0.8008,-0.8032,-0.7975,-0.8041,-0.8038,-0.8038,-0.8038,-0.8028,-0.7963,-0.8007,-0.7896,-0.7921,-0.7959,-0.7794,-0.7753,-0.7835,-0.7924,-0.774,-0.7763,-0.7787,-0.7604,-0.7468,-0.75,-0.7441,-0.7416,-0.7502,-0.755,-0.76,-0.7689,-0.7743,-0.7828,-0.7788,-0.7909,-0.7946,-0.8001,-0.7994,-0.7993,-0.7994,-0.7897,-0.7859,-0.79,-0.7787,-0.7723,-0.7773,-0.7784,-0.7687,-0.7697,-0.7684,-0.7756,-0.7699,-0.7753,-0.7834,-0.7882,-0.7913,-0.7933,-0.8035,-0.7953,-0.7963,-0.7997,-0.7963,-0.7919,-0.7794,-0.7818,-0.7767,-0.7746,-0.7706,-0.7689,-0.7658,-0.7631,-0.7607,-0.7624,-0.7699,-0.7614,-0.7461,-0.7218,-0.7295,-0.7299,-0.7282,-0.7148,-0.718,-0.7139,-0.7139,-0.7136,-0.7139,-0.7078,-0.6833,-0.6807,-0.6729,-0.0,-0.0,-0.0,-0.0878,-0.0,-0.0,-0.0,-0.0,-0.1496,-0.4128,-0.762,-0.8367,-0.8357,-0.8289,-0.853,-0.8704,-0.8855,-0.8777,-0.8835,-0.8855,-0.8808,-0.8565,-0.8246,-0.8516,-0.8696,-0.8755,-0.834,-0.808,-0.8011,-0.8006,-0.7965,-0.8069,-0.8062,-0.8058,-0.8072,-0.8048,-0.8035,-0.8021,-0.8001,-0.794,-0.7973,-0.7929,-0.7933,-0.7969,-0.7933,-0.7835,-0.7858,-0.789,-0.79,-0.7998,-0.7724,-0.7702,-0.7706,-0.7784,-0.7818,-0.7744,-0.7835,-0.8004,-0.8031,-0.8018,-0.8028,-0.8021,-0.7919,-0.7838,-0.7952,-0.7862,-0.7855,-0.8035,-0.7935,-0.7892,-0.7967,-0.8018,-0.8001,-0.7885,-0.8011,-0.7865,-0.7774,-0.7738,-0.7889,-0.8011,-0.8035,-0.8038,-0.8038,-0.8038,-0.8038,-0.8024,-0.8004,-0.7994,-0.7885,-0.7946,-0.7936,-0.7953,-0.7899,-0.7838,-0.7794,-0.7746,-0.7723,-0.7723,-0.7875,-0.7858,-0.761,-0.7493,-0.7546,-0.7519,-0.7472,-0.7336,-0.7163,-0.7139,-0.7139,-0.7139,-0.7139,-0.6987,-0.6897,-0.6823,-0.6831,-0.0,-0.0327,-0.4991,-0.694,-0.6599,-0.4564,-0.3396,-0.3318,-0.5614,-0.706,-0.8203,-0.8448,-0.8554,-0.8551,-0.8652,-0.8747,-0.8862,-0.8876,-0.8916,-0.892,-0.8913,-0.8876,-0.8692,-0.8831,-0.8821,-0.8846,-0.8786,-0.8491,-0.8064,-0.8066,-0.8109,-0.8201,-0.8133,-0.8102,-0.8191,-0.8106,-0.8038,-0.8038,-0.8038,-0.8024,-0.7994,-0.8007,-0.8021,-0.7984,-0.8018,-0.8021,-0.7977,-0.7976,-0.8042,-0.7935,-0.7903,-0.7844,-0.7777,-0.7717,-0.7771,-0.7858,-0.7905,-0.8038,-0.8038,-0.8038,-0.8038,-0.8031,-0.8004,-0.7991,-0.7991,-0.798,-0.7984,-0.7991,-0.7994,-0.7997,-0.8028,-0.8038,-0.8038,-0.8038,-0.8038,-0.8024,-0.7895,-0.7984,-0.7997,-0.8024,-0.8038,-0.8038,-0.8038,-0.8038,-0.8038,-0.8038,-0.8038,-0.8038,-0.8038,-0.8038,-0.8038,-0.8038,-0.8007,-0.7933,-0.7916,-0.7875,-0.7855,-0.7831,-0.7953,-0.8031,-0.7784,-0.7697,-0.7726,-0.7682,-0.7648,-0.7489,-0.7343,-0.7139,-0.7139,-0.7139,-0.7139,-0.7014,-0.6967,-0.6993,-0.6963,-0.0,-0.0,-0.6386,-0.8913,-0.8683,-0.7296,-0.6436,-0.6567,-0.7704,-0.8544,-0.8518,-0.8611,-0.8672,-0.8682,-0.8575,-0.8605,-0.8899,-0.8937,-0.8937,-0.8937,-0.8933,-0.8937,-0.893,-0.8869,-0.8879,-0.8911,-0.8948,-0.8543,-0.8131,-0.8117,-0.8299,-0.836,-0.8279,-0.8255,-0.8265,-0.8079,-0.8009,-0.7949,-0.8038,-0.8038,-0.8038,-0.8038,-0.8038,-0.8038,-0.8038,-0.8038,-0.8024,-0.797,-0.797,-0.7977,-0.7993,-0.7935,-0.7899,-0.7916,-0.7865,-0.7918,-0.8038,-0.8038,-0.8038,-0.8038,-0.8038,-0.8038,-0.8038,-0.8038,-0.8038,-0.8038,-0.8038,-0.8038,-0.8035,-0.8038,-0.8038,-0.8038,-0.8038,-0.8038,-0.8038,-0.8038,-0.8038,-0.8038,-0.8038,-0.8038,-0.8038,-0.8038,-0.8038,-0.8038,-0.8038,-0.8038,-0.8038,-0.8038,-0.8038,-0.8038,-0.8038,-0.8038,-0.8038,-0.8021,-0.8021,-0.8007,-0.7994,-0.7977,-0.7997,-0.8038,-0.7882,-0.7919,-0.7875,-0.7834,-0.7797,-0.7787,-0.7638,-0.7411,-0.7187,-0.7146,-0.7149,-0.7143,-0.7126,-0.7078,-0.7068,-0.0,-0.0,-0.5953,-0.845,-0.8907,-0.8778,-0.8742,-0.8716,-0.8628,-0.8686,-0.8793,-0.8659,-0.8662,-0.8739,-0.8545,-0.8588,-0.8872,-0.8937,-0.8937,-0.8937,-0.8937,-0.8937,-0.8933,-0.8923,-0.8913,-0.8923,-0.8879,-0.8578,-0.8424,-0.8348,-0.8567,-0.8499,-0.8476,-0.8404,-0.8319,-0.8057,-0.7975,-0.7959,-0.8038,-0.8038,-0.8038,-0.8038,-0.8038,-0.8038,-0.8038,-0.8038,-0.8038,-0.8024,-0.8035,-0.8038,-0.8038,-0.8038,-0.8038,-0.8038,-0.8038,-0.8038,-0.8038,-0.8038,-0.8038,-0.8038,-0.8038,-0.8038,-0.8038,-0.8038,-0.8038,-0.8038,-0.8038,-0.8038,-0.8038,-0.8038,-0.8038,-0.8038,-0.8038,-0.8038,-0.8038,-0.8038,-0.8038,-0.8038,-0.8038,-0.8038,-0.8038,-0.8038,-0.8038,-0.8038,-0.8038,-0.8038,-0.8038,-0.8038,-0.8038,-0.8038,-0.8038,-0.8038,-0.8038,-0.8038,-0.8038,-0.8038,-0.8038,-0.8038,-0.8038,-0.8038,-0.8038,-0.8001,-0.7957,-0.797,-0.7946,-0.7923,-0.7868,-0.7678,-0.7468,-0.7278,-0.7163,-0.717,-0.7163,-0.7156,-0.716,-0.0,-0.0336,-0.3804,-0.6616,-0.8775,-0.8967,-0.8886,-0.8794,-0.8789,-0.8759,-0.8771,-0.8618,-0.8682,-0.8739,-0.8652,-0.8669,-0.8903,-0.8937,-0.8937,-0.8937,-0.8937,-0.8937,-0.8937,-0.8937,-0.8937,-0.8899,-0.8913,-0.8845,-0.8693,-0.8786,-0.8701,-0.8625,-0.8564,-0.8482,-0.8428,-0.8123,-0.8008,-0.7985,-0.7949,-0.8038,-0.8038,-0.8038,-0.8038,-0.8038,-0.8038,-0.8038,-0.8038,-0.8038,-0.8038,-0.8038,-0.8038,-0.8038,-0.8038,-0.8038,-0.8038,-0.8038,-0.8038,-0.8038,-0.8038,-0.8038,-0.8038,-0.8038,-0.8038,-0.8038,-0.8038,-0.8038,-0.8038,-0.8038,-0.8038,-0.8038,-0.8038,-0.8038,-0.8038,-0.8038,-0.8038,-0.8038,-0.8038,-0.8038,-0.8038,-0.8038,-0.8038,-0.8038,-0.8038,-0.8038,-0.8038,-0.8038,-0.8038,-0.8038,-0.8038,-0.8038,-0.8038,-0.8038,-0.8038,-0.8038,-0.8038,-0.8038,-0.8038,-0.8038,-0.8038,-0.8038,-0.8038,-0.8038,-0.8031,-0.8018,-0.8018,-0.8001,-0.7933,-0.7858,-0.7756,-0.7664,-0.7488,-0.7221,-0.7204,-0.7207,-0.7207,-0.0,-0.0,-0.3243,-0.6161,-0.8654,-0.896,-0.8896,-0.8845,-0.8906,-0.8896,-0.8818,-0.8645,-0.8747,-0.8679,-0.8642,-0.8685,-0.8903,-0.8937,-0.8937,-0.8937,-0.8937,-0.8937,-0.8937,-0.8937,-0.8937,-0.892,-0.8866,-0.8934,-0.8934,-0.8882,-0.8862,-0.8791,-0.8743,-0.8682,-0.8584,-0.8351,-0.82,-0.8076,-0.7985,-0.8041,-0.8038,-0.8038,-0.8038,-0.8038,-0.8038,-0.8038,-0.8038,-0.8038,-0.8038,-0.8038,-0.8038,-0.8038,-0.8038,-0.8038,-0.8038,-0.8038,-0.8038,-0.8038,-0.8038,-0.8038,-0.8038,-0.8038,-0.8038,-0.8038,-0.8038,-0.8038,-0.8038,-0.8038,-0.8038,-0.8038,-0.8038,-0.8038,-0.8038,-0.8038,-0.8038,-0.8038,-0.8038,-0.8038,-0.8038,-0.8038,-0.8038,-0.8038,-0.8038,-0.8038,-0.8038,-0.8038,-0.8038,-0.8038,-0.8038,-0.8038,-0.8038,-0.8038,-0.8038,-0.8038,-0.8038,-0.8038,-0.8038,-0.8038,-0.8038,-0.8038,-0.8038,-0.8038,-0.8038,-0.8035,-0.8038,-0.8038,-0.8018,-0.795,-0.8,-0.7942,-0.7746,-0.7465,-0.7326,-0.7261,-0.7272,-0.1794,-0.2017,-0.4362,-0.6723,-0.8651,-0.8957,-0.8937,-0.8937,-0.8937,-0.8937,-0.8916,-0.8791,-0.873,-0.8754,-0.8665,-0.8719,-0.894,-0.896,-0.8977,-0.8947,-0.8981,-0.8981,-0.894,-0.8937,-0.8937,-0.8937,-0.8927,-0.8937,-0.892,-0.8906,-0.8927,-0.8916,-0.893,-0.8862,-0.8699,-0.8581,-0.834,-0.8097,-0.7958,-0.7982,-0.7945,-0.8038,-0.8038,-0.8038,-0.8038,-0.8038,-0.8038,-0.8038,-0.8038,-0.8038,-0.8038,-0.8038,-0.8038,-0.8038,-0.8038,-0.8038,-0.8038,-0.8038,-0.8038,-0.8038,-0.8038,-0.8038,-0.8038,-0.8038,-0.8038,-0.8038,-0.8038,-0.8038,-0.8038,-0.8038,-0.8038,-0.8038,-0.8038,-0.8038,-0.8038,-0.8038,-0.8038,-0.8038,-0.8038,-0.8038,-0.8038,-0.8038,-0.8038,-0.8038,-0.8038,-0.8038,-0.8038,-0.8038,-0.8038,-0.8038,-0.8038,-0.8038,-0.8038,-0.8038,-0.8038,-0.8038,-0.8038,-0.8038,-0.8038,-0.8038,-0.8038,-0.8038,-0.8038,-0.8038,-0.8038,-0.8038,-0.8038,-0.8038,-0.7987,-0.7916,-0.7824,-0.7736,-0.7631,-0.7465,-0.7383,-0.7882,-0.7879,-0.8193,-0.8634,-0.8863,-0.8947,-0.8937,-0.8937,-0.8937,-0.8937,-0.893,-0.8801,-0.8794,-0.8869,-0.8886,-0.8799,-0.8964,-0.9028,-0.9025,-0.896,-0.9028,-0.9022,-0.895,-0.8937,-0.8937,-0.8937,-0.8937,-0.8937,-0.8937,-0.8937,-0.8937,-0.8937,-0.8927,-0.8869,-0.875,-0.879,-0.8601,-0.8135,-0.7994,-0.7968,-0.7972,-0.7945,-0.8038,-0.8038,-0.8038,-0.8038,-0.8038,-0.8038,-0.8038,-0.8038,-0.8038,-0.8038,-0.8038,-0.8038,-0.8038,-0.8038,-0.8038,-0.8038,-0.8038,-0.8038,-0.8038,-0.8038,-0.8038,-0.8038,-0.8038,-0.8038,-0.8038,-0.8038,-0.8038,-0.8038,-0.8038,-0.8038,-0.8038,-0.8038,-0.8038,-0.8038,-0.8038,-0.8038,-0.8038,-0.8038,-0.8038,-0.8038,-0.8038,-0.8038,-0.8038,-0.8038,-0.8038,-0.8038,-0.8038,-0.8038,-0.8038,-0.8038,-0.8038,-0.8038,-0.8038,-0.8038,-0.8038,-0.8038,-0.8038,-0.8038,-0.8038,-0.8038,-0.8038,-0.8038,-0.8038,-0.8038,-0.8038,-0.8038,-0.8038,-0.7987,-0.7896,-0.7923,-0.7872,-0.7777,-0.7526,-0.889,-0.89,-0.8873,-0.8863,-0.886,-0.895,-0.8937,-0.8937,-0.8937,-0.8937,-0.893,-0.8876,-0.8879,-0.892,-0.8859,-0.8859,-0.8937,-0.9015,-0.9001,-0.8957,-0.9001,-0.9005,-0.8954,-0.8937,-0.8937,-0.8937,-0.8937,-0.8937,-0.8937,-0.8937,-0.8937,-0.8937,-0.8937,-0.8916,-0.8815,-0.8862,-0.8793,-0.8454,-0.8186,-0.8034,-0.7958,-0.7989,-0.8038,-0.8038,-0.8038,-0.8038,-0.8038,-0.8038,-0.8038,-0.8038,-0.8038,-0.8038,-0.8038,-0.8038,-0.8038,-0.8038,-0.8038,-0.8038,-0.8038,-0.8038,-0.8038,-0.8038,-0.8038,-0.8038,-0.8038,-0.8038,-0.8038,-0.8038,-0.8038,-0.8038,-0.8038,-0.8038,-0.8038,-0.8038,-0.8038,-0.8038,-0.8038,-0.8038,-0.8038,-0.8038,-0.8038,-0.8038,-0.8038,-0.8038,-0.8038,-0.8038,-0.8038,-0.8038,-0.8038,-0.8038,-0.8038,-0.8038,-0.8038,-0.8038,-0.8038,-0.8038,-0.8038,-0.8038,-0.8038,-0.8038,-0.8038,-0.8038,-0.8038,-0.8038,-0.8038,-0.8038,-0.8038,-0.8038,-0.8038,-0.8007,-0.7967,-0.8001,-0.8018,-0.7902,-0.7702,-0.887,-0.888,-0.886,-0.8964,-0.8964,-0.8947,-0.8937,-0.8937,-0.8937,-0.8937,-0.8937,-0.8933,-0.8933,-0.892,-0.8845,-0.8855,-0.894,-0.8974,-0.896,-0.8957,-0.8967,-0.8981,-0.895,-0.8937,-0.8937,-0.8937,-0.8937,-0.8937,-0.8937,-0.8937,-0.8937,-0.8937,-0.8937,-0.893,-0.8906,-0.8951,-0.8869,-0.8786,-0.8506,-0.826,-0.8153,-0.8052,-0.7989,-0.7955,-0.8038,-0.8038,-0.8038,-0.8038,-0.8038,-0.8038,-0.8038,-0.8038,-0.8038,-0.8038,-0.8038,-0.8038,-0.8038,-0.8038,-0.8038,-0.8038,-0.8038,-0.8038,-0.8038,-0.8038,-0.8038,-0.8038,-0.8038,-0.8038,-0.8038,-0.8038,-0.8038,-0.8038,-0.8038,-0.8038,-0.8038,-0.8038,-0.8041,-0.8052,-0.8048,-0.8038,-0.8038,-0.8038,-0.8038,-0.8038,-0.8038,-0.8038,-0.8038,-0.8038,-0.8038,-0.8038,-0.8038,-0.8038,-0.8038,-0.8038,-0.8038,-0.8038,-0.8038,-0.8038,-0.8038,-0.8038,-0.8038,-0.8038,-0.8038,-0.8038,-0.8038,-0.8038,-0.8038,-0.8038,-0.8038,-0.8018,-0.8004,-0.8021,-0.8004,-0.7913,-0.7868,-0.896,-0.8944,-0.894,-0.894,-0.894,-0.894,-0.8937,-0.8937,-0.8937,-0.893,-0.8916,-0.8937,-0.8937,-0.8923,-0.891,-0.891,-0.8944,-0.9079,-0.9032,-0.9011,-0.9052,-0.9025,-0.8974,-0.8937,-0.8937,-0.8937,-0.8937,-0.8937,-0.8937,-0.8937,-0.8937,-0.8937,-0.8937,-0.8937,-0.893,-0.8899,-0.8941,-0.8869,-0.8755,-0.8499,-0.825,-0.8133,-0.7965,-0.7962,-0.8038,-0.8038,-0.8038,-0.8038,-0.8038,-0.8038,-0.8038,-0.8038,-0.8038,-0.8038,-0.8038,-0.8038,-0.8038,-0.8038,-0.8038,-0.8038,-0.8038,-0.8038,-0.8038,-0.8038,-0.8038,-0.8038,-0.8038,-0.8038,-0.8038,-0.8038,-0.8038,-0.8038,-0.8038,-0.8052,-0.8065,-0.8099,-0.8099,-0.8085,-0.8075,-0.8048,-0.8038,-0.8038,-0.8038,-0.8038,-0.8038,-0.8038,-0.8038,-0.8038,-0.8038,-0.8038,-0.8038,-0.8038,-0.8038,-0.8038,-0.8038,-0.8038,-0.8038,-0.8038,-0.8038,-0.8038,-0.8038,-0.8038,-0.8038,-0.8038,-0.8038,-0.8038,-0.8038,-0.8038,-0.8038,-0.8038,-0.8038,-0.8038,-0.8038,-0.7987,-0.7977,-0.8947,-0.8937,-0.8937,-0.8937,-0.8937,-0.8937,-0.8937,-0.8937,-0.8937,-0.8879,-0.8811,-0.8889,-0.8886,-0.8958,-0.891,-0.8937,-0.8944,-0.8984,-0.8977,-0.8971,-0.8984,-0.8984,-0.894,-0.8937,-0.8937,-0.8937,-0.8937,-0.8937,-0.8937,-0.8937,-0.8937,-0.8937,-0.8937,-0.8937,-0.8937,-0.8937,-0.8896,-0.8955,-0.8862,-0.8707,-0.8442,-0.819,-0.7988,-0.7955,-0.8038,-0.8038,-0.8038,-0.8038,-0.8038,-0.8038,-0.8038,-0.8038,-0.8038,-0.8038,-0.8038,-0.8038,-0.8038,-0.8045,-0.8045,-0.8045,-0.8038,-0.8038,-0.8038,-0.8038,-0.8038,-0.8038,-0.8038,-0.8038,-0.8045,-0.8058,-0.8038,-0.8038,-0.8041,-0.8065,-0.8203,-0.8254,-0.8271,-0.8163,-0.8153,-0.8147,-0.8082,-0.8038,-0.8038,-0.8038,-0.8038,-0.8038,-0.8038,-0.8038,-0.8038,-0.8038,-0.8038,-0.8038,-0.8038,-0.8038,-0.8038,-0.8038,-0.8038,-0.8038,-0.8038,-0.8038,-0.8038,-0.8038,-0.8038,-0.8038,-0.8038,-0.8038,-0.8038,-0.8038,-0.8038,-0.8038,-0.8038,-0.8038,-0.8038,-0.8038,-0.8038,-0.8937,-0.8937,-0.8937,-0.8937,-0.8937,-0.8937,-0.8937,-0.8937,-0.8937,-0.8882,-0.8784,-0.8893,-0.8886,-0.8944,-0.8879,-0.8937,-0.8937,-0.8947,-0.8944,-0.8944,-0.8944,-0.8937,-0.8937,-0.8937,-0.8937,-0.8937,-0.8937,-0.8937,-0.8937,-0.8937,-0.8937,-0.8937,-0.8937,-0.8937,-0.8937,-0.8937,-0.8937,-0.8906,-0.8838,-0.8773,-0.8499,-0.8176,-0.8011,-0.7982,-0.8038,-0.8038,-0.8038,-0.8038,-0.8038,-0.8038,-0.8038,-0.8038,-0.8038,-0.8038,-0.8038,-0.8038,-0.8045,-0.8055,-0.8089,-0.8058,-0.8045,-0.8038,-0.8038,-0.8038,-0.8041,-0.8041,-0.8038,-0.8048,-0.8072,-0.8092,-0.8075,-0.7979,-0.7972,-0.8092,-0.839,-0.8445,-0.8371,-0.8272,-0.8262,-0.8252,-0.818,-0.8009,-0.8048,-0.8048,-0.8058,-0.8052,-0.8038,-0.8038,-0.8038,-0.8038,-0.8038,-0.8038,-0.8038,-0.8038,-0.8038,-0.8038,-0.8038,-0.8038,-0.8038,-0.8038,-0.8038,-0.8038,-0.8038,-0.8038,-0.8038,-0.8038,-0.8038,-0.8038,-0.8038,-0.8038,-0.8038,-0.8038,-0.8038,-0.8038,-0.8038,-0.8937,-0.8937,-0.8937,-0.8937,-0.8937,-0.8937,-0.8937,-0.8937,-0.8937,-0.892,-0.8889,-0.8927,-0.8923,-0.8906,-0.8913,-0.8937,-0.8937,-0.8937,-0.8937,-0.8937,-0.8937,-0.8937,-0.8937,-0.8937,-0.8937,-0.8937,-0.8937,-0.8937,-0.8937,-0.8937,-0.8937,-0.8937,-0.8937,-0.8937,-0.8937,-0.8937,-0.8937,-0.8933,-0.892,-0.875,-0.8567,-0.8269,-0.8127,-0.8039,-0.7979,-0.7985,-0.8041,-0.8038,-0.8038,-0.8038,-0.8038,-0.8038,-0.8038,-0.8038,-0.8045,-0.8065,-0.7962,-0.8123,-0.8238,-0.8119,-0.8089,-0.8089,-0.8109,-0.8123,-0.8079,-0.8069,-0.8079,-0.8119,-0.8184,-0.8177,-0.8062,-0.8059,-0.8052,-0.8167,-0.8466,-0.855,-0.8477,-0.8425,-0.8425,-0.8404,-0.8206,-0.8014,-0.8019,-0.8062,-0.7975,-0.7972,-0.8048,-0.7952,-0.7985,-0.8123,-0.8153,-0.8113,-0.8113,-0.8038,-0.8038,-0.8038,-0.8038,-0.8038,-0.8038,-0.8038,-0.8038,-0.8038,-0.8038,-0.8038,-0.8038,-0.8038,-0.8038,-0.8038,-0.8038,-0.8038,-0.8038,-0.8038,-0.8038,-0.8038,-0.8038,-0.8937,-0.8937,-0.8937,-0.8937,-0.8937,-0.8937,-0.8937,-0.8937,-0.893,-0.8886,-0.8828,-0.8886,-0.8759,-0.8729,-0.8779,-0.893,-0.8937,-0.8937,-0.8937,-0.8937,-0.8937,-0.8937,-0.8937,-0.8937,-0.8937,-0.8937,-0.8937,-0.8937,-0.8937,-0.8937,-0.8937,-0.8937,-0.8937,-0.8937,-0.8937,-0.8937,-0.8937,-0.8937,-0.892,-0.8838,-0.8655,-0.8391,-0.8272,-0.8001,-0.7985,-0.7948,-0.7975,-0.7979,-0.7979,-0.8072,-0.8072,-0.8058,-0.8055,-0.8055,-0.8096,-0.8157,-0.8093,-0.8258,-0.847,-0.8453,-0.8183,-0.8156,-0.8153,-0.8193,-0.8326,-0.8333,-0.8292,-0.8245,-0.8326,-0.8309,-0.8255,-0.823,-0.824,-0.8303,-0.847,-0.8563,-0.8625,-0.8697,-0.8725,-0.868,-0.8503,-0.832,-0.823,-0.8221,-0.8201,-0.816,-0.8269,-0.8064,-0.809,-0.8233,-0.8367,-0.8279,-0.8221,-0.8102,-0.8041,-0.8082,-0.8062,-0.8038,-0.8038,-0.8038,-0.8038,-0.8038,-0.8038,-0.8038,-0.8038,-0.8038,-0.8038,-0.8038,-0.8038,-0.8038,-0.8038,-0.8038,-0.8038,-0.8038,-0.8038,-0.8937,-0.8937,-0.8937,-0.8937,-0.8937,-0.8937,-0.8937,-0.8937,-0.8937,-0.8879,-0.8832,-0.8899,-0.8783,-0.8722,-0.8722,-0.8913,-0.8923,-0.8876,-0.892,-0.8923,-0.8937,-0.8937,-0.8937,-0.8937,-0.8937,-0.8937,-0.8937,-0.8937,-0.8937,-0.8937,-0.8937,-0.8937,-0.8937,-0.8937,-0.8937,-0.8937,-0.8937,-0.8937,-0.8923,-0.8859,-0.8743,-0.8562,-0.8478,-0.82,-0.812,-0.7984,-0.8014,-0.7981,-0.8083,-0.8073,-0.8046,-0.8022,-0.8119,-0.824,-0.8278,-0.8248,-0.8284,-0.8425,-0.8682,-0.8735,-0.8557,-0.8455,-0.8377,-0.8371,-0.8482,-0.8452,-0.8477,-0.8357,-0.8465,-0.8411,-0.835,-0.834,-0.8506,-0.857,-0.8601,-0.8697,-0.8735,-0.8804,-0.8848,-0.8703,-0.8645,-0.8478,-0.8325,-0.8334,-0.835,-0.8431,-0.8506,-0.8289,-0.8171,-0.8401,-0.8526,-0.8455,-0.8381,-0.8289,-0.8208,-0.817,-0.8133,-0.8052,-0.8038,-0.8038,-0.8038,-0.8038,-0.8038,-0.8038,-0.8038,-0.8038,-0.8038,-0.8038,-0.8038,-0.8038,-0.8038,-0.8038,-0.8038,-0.8038,-0.8038,-0.8937,-0.8937,-0.8937,-0.8937,-0.8937,-0.8923,-0.8923,-0.8933,-0.8927,-0.892,-0.8933,-0.8916,-0.8903,-0.8896,-0.8798,-0.8821,-0.8793,-0.8808,-0.8852,-0.8906,-0.8937,-0.8937,-0.8937,-0.8937,-0.8937,-0.8937,-0.8937,-0.8937,-0.8937,-0.8937,-0.8937,-0.8937,-0.8937,-0.8937,-0.8937,-0.8937,-0.8937,-0.8937,-0.893,-0.8869,-0.8788,-0.8855,-0.8659,-0.854,-0.8269,-0.8246,-0.8206,-0.8196,-0.8317,-0.8294,-0.8237,-0.8193,-0.8381,-0.8695,-0.8593,-0.8474,-0.8567,-0.8707,-0.8828,-0.8791,-0.8804,-0.8679,-0.8594,-0.8533,-0.8526,-0.8554,-0.8479,-0.8486,-0.8564,-0.8469,-0.8408,-0.8537,-0.8766,-0.8755,-0.8759,-0.88,-0.8716,-0.876,-0.8808,-0.8784,-0.872,-0.8568,-0.8454,-0.8381,-0.852,-0.8645,-0.8699,-0.8652,-0.8528,-0.8501,-0.8621,-0.8611,-0.8543,-0.8492,-0.8408,-0.8289,-0.816,-0.8065,-0.8041,-0.8038,-0.8038,-0.8038,-0.8038,-0.8038,-0.8038,-0.8038,-0.8038,-0.8038,-0.8038,-0.8038,-0.8038,-0.8038,-0.8038,-0.8038,-0.8038,-0.8937,-0.8937,-0.8937,-0.8937,-0.8923,-0.8821,-0.8832,-0.8916,-0.8944,-0.8937,-0.893,-0.8934,-0.8934,-0.8927,-0.8893,-0.8783,-0.8676,-0.8789,-0.8793,-0.8927,-0.8937,-0.8937,-0.8937,-0.8937,-0.8937,-0.8937,-0.8937,-0.8937,-0.8937,-0.8937,-0.8937,-0.8937,-0.8937,-0.8937,-0.8947,-0.894,-0.894,-0.8947,-0.895,-0.8903,-0.8872,-0.8855,-0.8872,-0.8686,-0.8645,-0.8608,-0.8543,-0.852,-0.873,-0.8699,-0.8668,-0.8636,-0.8421,-0.8532,-0.8553,-0.881,-0.8754,-0.8852,-0.8944,-0.8889,-0.891,-0.8869,-0.8798,-0.8818,-0.8781,-0.8699,-0.8615,-0.8628,-0.8693,-0.8648,-0.8604,-0.8682,-0.8747,-0.8747,-0.8869,-0.8791,-0.8808,-0.8825,-0.8869,-0.8859,-0.8685,-0.8669,-0.856,-0.8622,-0.8689,-0.8835,-0.8886,-0.8818,-0.8774,-0.8743,-0.873,-0.8723,-0.8679,-0.8621,-0.8479,-0.835,-0.8204,-0.8085,-0.8058,-0.8038,-0.8038,-0.8038,-0.8038,-0.8038,-0.8038,-0.8038,-0.8038,-0.8038,-0.8038,-0.8038,-0.8038,-0.8038,-0.8038,-0.8038,-0.8038,-0.8757,-0.8767,-0.8825,-0.8882,-0.8896,-0.871,-0.8706,-0.8804,-0.8797,-0.871,-0.8821,-0.8797,-0.8779,-0.8845,-0.874,-0.8662,-0.8722,-0.8716,-0.8855,-0.893,-0.8937,-0.8937,-0.8937,-0.8937,-0.8937,-0.8937,-0.8937,-0.8937,-0.8937,-0.8937,-0.8937,-0.8937,-0.8937,-0.8863,-0.8883,-0.8873,-0.8866,-0.8873,-0.887,-0.8947,-0.8937,-0.8937,-0.8872,-0.8934,-0.8907,-0.8949,-0.889,-0.8873,-0.8876,-0.8862,-0.8959,-0.8793,-0.8574,-0.8577,-0.8642,-0.8882,-0.8859,-0.8916,-0.891,-0.8916,-0.8937,-0.8923,-0.8896,-0.8876,-0.8886,-0.8835,-0.8757,-0.8726,-0.8825,-0.8886,-0.8849,-0.8821,-0.8818,-0.8815,-0.8849,-0.8886,-0.8893,-0.8899,-0.891,-0.8916,-0.8896,-0.8876,-0.8852,-0.8815,-0.8811,-0.8889,-0.893,-0.8906,-0.8876,-0.8866,-0.8859,-0.8855,-0.8801,-0.8737,-0.8574,-0.8411,-0.8292,-0.8157,-0.8055,-0.8038,-0.8041,-0.8045,-0.8052,-0.8045,-0.8038,-0.8038,-0.8038,-0.8038,-0.8038,-0.8052,-0.8069,-0.8065,-0.8058,-0.8038,-0.8038,-0.8489,-0.8503,-0.8632,-0.8767,-0.8849,-0.8587,-0.855,-0.8662,-0.8509,-0.854,-0.8638,-0.8533,-0.8604,-0.8701,-0.8714,-0.8679,-0.8764,-0.8808,-0.8859,-0.8937,-0.8937,-0.8937,-0.8937,-0.8937,-0.8937,-0.8937,-0.8937,-0.8937,-0.8937,-0.8937,-0.8937,-0.894,-0.8971,-0.891,-0.8861,-0.9032,-0.9032,-0.896,-0.8893,-0.8937,-0.8937,-0.8937,-0.8937,-0.893,-0.8923,-0.8913,-0.8916,-0.8923,-0.8937,-0.8886,-0.8941,-0.8845,-0.873,-0.8733,-0.8818,-0.8866,-0.8923,-0.893,-0.8937,-0.8937,-0.8937,-0.8896,-0.8821,-0.8855,-0.8893,-0.8862,-0.8774,-0.8801,-0.8886,-0.8899,-0.8866,-0.8876,-0.8882,-0.8879,-0.8899,-0.8916,-0.892,-0.893,-0.895,-0.8954,-0.8944,-0.8937,-0.8988,-0.8954,-0.8866,-0.8923,-0.8937,-0.8937,-0.8937,-0.8937,-0.8937,-0.8937,-0.8889,-0.8794,-0.8604,-0.8462,-0.8384,-0.8262,-0.813,-0.8126,-0.8191,-0.8143,-0.8065,-0.8079,-0.8092,-0.8052,-0.8038,-0.8038,-0.8069,-0.8133,-0.814,-0.8113,-0.8089,-0.8072,-0.8055,-0.8482,-0.8486,-0.852,-0.856,-0.8567,-0.8397,-0.8401,-0.8506,-0.8255,-0.8299,-0.8476,-0.83,-0.8327,-0.8564,-0.8604,-0.8696,-0.8811,-0.8842,-0.8899,-0.8927,-0.8937,-0.8937,-0.8937,-0.8937,-0.8937,-0.8937,-0.8937,-0.8937,-0.8937,-0.8937,-0.8944,-0.896,-0.9018,-0.9,-0.8934,-0.91,-0.911,-0.8937,-0.8907,-0.8954,-0.896,-0.8944,-0.8937,-0.8937,-0.8937,-0.8937,-0.8937,-0.8937,-0.8937,-0.892,-0.891,-0.8886,-0.8882,-0.8879,-0.8896,-0.8927,-0.8937,-0.8937,-0.8937,-0.8937,-0.8937,-0.8937,-0.8899,-0.891,-0.8893,-0.8815,-0.8804,-0.8862,-0.8893,-0.8889,-0.8893,-0.892,-0.8937,-0.8937,-0.895,-0.895,-0.895,-0.8981,-0.9005,-0.8984,-0.8974,-0.9018,-0.9076,-0.9045,-0.8967,-0.8937,-0.8937,-0.8937,-0.8937,-0.8937,-0.8937,-0.8937,-0.8937,-0.8832,-0.8642,-0.8537,-0.8472,-0.8374,-0.8248,-0.8275,-0.8457,-0.8245,-0.816,-0.8157,-0.8153,-0.8099,-0.8058,-0.8041,-0.8085,-0.8197,-0.8306,-0.8319,-0.8201,-0.815,-0.8113,-0.8286,-0.8286,-0.8286,-0.8364,-0.8431,-0.8258,-0.8252,-0.8326,-0.814,-0.813,-0.8262,-0.8113,-0.8057,-0.8351,-0.8537,-0.8866,-0.8998,-0.8893,-0.8916,-0.8933,-0.9047,-0.8937,-0.8937,-0.8937,-0.8937,-0.8937,-0.8937,-0.8937,-0.8947,-0.8944,-0.8954,-0.9032,-0.913,-0.9074,-0.9104,-0.9208,-0.9198,-0.9124,-0.8943,-0.8991,-0.9001,-0.8981,-0.8944,-0.8937,-0.8937,-0.8937,-0.8937,-0.8937,-0.8937,-0.8937,-0.893,-0.893,-0.8923,-0.8923,-0.893,-0.8937,-0.8937,-0.8937,-0.8937,-0.8937,-0.8937,-0.8937,-0.8937,-0.893,-0.893,-0.8869,-0.8866,-0.8916,-0.892,-0.8916,-0.8916,-0.8933,-0.8937,-0.8937,-0.9011,-0.9059,-0.91,-0.9147,-0.9079,-0.8967,-0.8984,-0.9035,-0.9059,-0.9001,-0.894,-0.894,-0.894,-0.8954,-0.895,-0.8957,-0.8954,-0.8937,-0.8937,-0.8845,-0.8655,-0.8594,-0.8584,-0.8476,-0.8381,-0.853,-0.8625,-0.8397,-0.8258,-0.8255,-0.8218,-0.813,-0.8092,-0.8102,-0.8197,-0.8326,-0.8455,-0.8564,-0.8404,-0.8231,-0.817,-0.8048,-0.8038,-0.8045,-0.8187,-0.8367,-0.8157,-0.8116,-0.8204,-0.8096,-0.8038,-0.8065,-0.8058,-0.8041,-0.8153,-0.8642,-0.9068,-0.9553,-1.0241,-0.9896,-0.9372,-0.9375,-0.9154,-0.9047,-0.8937,-0.8937,-0.8863,-0.8897,-0.8886,-0.8883,-0.9032,-0.9106,-0.9171,-0.9101,-0.9148,-0.9208,-0.9188,-0.9158,-0.9313,-0.9225,-0.91,-0.9059,-0.9018,-0.896,-0.8937,-0.8937,-0.8937,-0.8937,-0.8937,-0.8937,-0.8937,-0.8937,-0.8937,-0.8937,-0.8937,-0.8937,-0.8937,-0.8937,-0.8937,-0.8937,-0.8937,-0.8937,-0.8937,-0.894,-0.8947,-0.895,-0.8967,-0.8964,-0.8967,-0.8971,-0.895,-0.895,-0.895,-0.895,-0.9005,-0.91,-0.9181,-0.9242,-0.9296,-0.9174,-0.9032,-0.9069,-0.9123,-0.9072,-0.9011,-0.9001,-0.8991,-0.8984,-0.8977,-0.8984,-0.9001,-0.9005,-0.8967,-0.8937,-0.8815,-0.8669,-0.8686,-0.8703,-0.8665,-0.8618,-0.8804,-0.8866,-0.8598,-0.8414,-0.8357,-0.8303,-0.8214,-0.8197,-0.8211,-0.8326,-0.8459,-0.8611,-0.8703,-0.8509,-0.8347,-0.8231,-0.8038,-0.8038,-0.8038,-0.8079,-0.8116,-0.8062,-0.8055,-0.8075,-0.8058,-0.8038,-0.8137,-0.8045,-0.7969,-0.8143,-0.9693,-1.0919,-1.2288,-1.221,-1.1407,-1.0891,-1.046,-0.9809,-0.9182,-0.9011,-0.8954,-0.8907,-0.9017,-0.8964,-0.9349,-0.9432,-0.9408,-0.9439,-0.9391,-0.9449,-0.9513,-0.9476,-0.9549,-0.9449,-0.9497,-0.9485,-0.913,-0.9062,-0.896,-0.8937,-0.8937,-0.8937,-0.8937,-0.8937,-0.8937,-0.8937,-0.8937,-0.8937,-0.8937,-0.894,-0.8947,-0.8974,-0.8971,-0.8988,-0.8994,-0.8893,-0.8907,-0.9008,-0.9011,-0.9001,-0.9028,-0.9089,-0.9089,-0.9093,-0.9076,-0.9008,-0.8994,-0.8994,-0.8893,-0.9144,-0.9256,-0.931,-0.9364,-0.9401,-0.9371,-0.9323,-0.933,-0.9323,-0.9276,-0.9252,-0.9266,-0.9256,-0.9242,-0.9222,-0.9123,-0.9096,-0.9076,-0.9018,-0.8967,-0.8845,-0.873,-0.8815,-0.8838,-0.8815,-0.8808,-0.8889,-0.8879,-0.8743,-0.8601,-0.8516,-0.8414,-0.8323,-0.8319,-0.8347,-0.8459,-0.8601,-0.8774,-0.8825,-0.8628,-0.8476,-0.8374]},{"header":{"parameterUnit":"m.s-1","parameterCategory":1,"la1":31.0,"la2":29.5877,"lo1":-88.7671,"lo2":-86.6584,"dy":0.0162,"dx":0.0185,"nx":115,"ny":88,"refTime":"2023-06-27T06:00:00:Z","depth":0,"parameterNumber":3,"parameterNumberName":"V-component_of_WINDS"},"data":[0.0,0.0,0.0,0.0,0.0,0.0,0.0,0.0,0.0,0.0,0.0,0.0,0.0,0.0,0.0,0.0,0.0,0.0,0.0,0.0,0.0,0.0,0.0,0.0,0.0,0.0,0.0,0.0,0.0,0.0,0.0,0.0,0.0,0.0,0.0,0.0,0.0,0.0,0.0,0.0,0.0,0.0,0.0,0.0,0.0,0.0,0.0,0.0,0.0,0.0,0.0,0.0,0.0,0.0,0.0,0.0,0.0,0.0,0.0,0.0,0.0,0.0,0.0,0.0,0.0,0.0,0.0,0.0,0.0,0.0,0.0,0.0,0.0,0.0,0.0,0.0,0.0,0.0,0.0,0.0,0.0,0.0,0.0,0.0,0.0,0.0,0.0,0.0,0.0,0.0,0.0,0.0,0.0,0.0,0.0,0.0,0.0,0.0,0.0,0.0,0.0,0.0,0.0,0.0,0.0,0.0,0.0,0.0,0.0,0.0,0.0,0.0,0.0,0.0,0.0,0.0,0.0,0.0,0.0,0.0,0.0,0.0,0.0,0.0,0.0,0.0,0.0,0.0,0.0,0.0,0.0,0.0,0.0,0.0,0.0,0.0,0.0,0.0,0.0,0.0,0.0,0.0,0.0,0.0,0.0,0.0,0.0,0.0,0.0,0.0,0.0,0.0,0.0,0.0,0.0,0.0,0.0,0.0,0.0,0.0,0.0,0.0,0.0,0.0,0.0,0.0,0.0,0.0,0.0,0.0,0.0,0.0,0.0,0.0,0.0,0.0,0.0,0.0,0.0,0.0,0.0,0.0,0.0,0.0,0.0,0.0,0.0,0.0,0.0,0.0,0.0,0.0,0.0,0.0,0.0,0.0,0.0,0.0,0.0,0.0,0.0,0.0,0.0,0.0,0.0,0.0,0.0,0.0,0.0,0.0,0.0,0.0,0.0,0.0,0.0,0.0,0.0,0.0,0.0,0.0,0.0,0.0,0.0,0.0,0.0,0.0,0.0,0.0,0.0,0.0,0.0,0.0,0.0,0.0,0.0,0.0,0.0,0.0,0.0,0.0,0.0,0.0,0.0,0.0,0.0,0.0,0.0,0.0,0.0,0.0,0.0,0.0,0.0,0.0,0.0,0.0,0.0,0.0,0.0,0.0,0.0,0.0,0.0,0.0,0.0,0.0,0.0,0.0,0.0,0.0,0.0,0.0,0.0,0.0,0.0,0.0,0.0,0.0,0.0,0.0,0.0,0.0,0.0,0.0,0.0,0.0,0.0,0.0,0.0,0.0,0.0,0.0,0.0,0.0,0.0,0.0,0.0,0.0,0.0,0.0,0.0,0.0,0.0,0.0,0.0,0.0,0.0,0.0,0.0,0.0,0.0,0.0,0.0,0.0,0.0,0.0,0.0,0.0,0.0,0.0,0.0,0.0,0.0,0.0,0.0,0.0,0.0,0.0,0.0,0.0,0.0,0.0,0.0,0.0,0.0,0.0,0.0,0.0,0.0,0.0,0.0,0.0,0.0,0.0,0.0,0.0,0.0,0.0,0.0,0.0,0.0,0.0,0.0,0.0,0.0,0.0,0.0,0.0,0.0,0.0,0.0,0.0,0.0,0.0,0.0,0.0,0.0,0.0,0.0,0.0,0.0,0.0,0.0,0.0,0.0,0.0,0.0,0.0,0.0,0.0,0.0,0.0,0.0,0.0,0.0,0.0,0.0,0.0,0.0,0.0,0.0,0.0,0.0,0.0,0.0,0.0,0.0,0.0,0.0,0.0,0.0,0.0,0.0,0.0,0.0,0.0,0.0,0.0,0.0,0.0,0.0,0.0,0.0,0.0,0.0,0.0,0.0,0.0,0.0,0.0,0.0,0.0,0.0,0.0,0.0,0.0,0.0,0.0,0.0,0.0,0.0,0.0,0.0,0.0,0.0,0.0,0.0,0.0,0.0,0.0,0.0,0.0,0.0,0.0,0.0,0.0,0.0,0.0,0.0,0.0,0.0,0.0,0.0,0.0,0.0,0.0,0.0,0.0,0.0,0.0,0.0,0.0,0.0,0.0,0.0,0.0,0.0,0.0,0.0,0.0,0.0,0.0,0.0,0.0,0.0,0.0,0.0,0.0,0.0,0.0,0.0,0.0,0.0,0.0,0.0,0.0,0.0,0.0,0.0,0.0,0.0,0.0,0.0,0.0,0.0,0.0,0.0,0.0,0.0,0.0,0.0,0.0,0.0,0.0,0.0,0.0,0.0,0.0,0.0,0.0,0.0,0.0,0.0,0.0,0.0,0.0,0.0,0.0,0.0,0.0,0.0,0.0,0.0,0.0,0.0,0.0,0.0,0.0,0.0,0.0,0.0,0.0,0.0,0.0,0.0,0.0,0.0,0.0,0.0,0.0,0.0,0.0,0.0,0.0,0.0,0.0,0.0,0.0,0.0,0.0,0.0,0.0,0.0,0.0,0.0,0.0,0.0,0.0,0.0,0.0,0.0,0.0,0.0,0.0,0.0,0.0,0.0,0.0,0.0,0.0,0.0,0.0,0.0,0.0,0.0,0.0,0.0,0.0,0.0,0.0,0.0,0.0,0.0,0.0,0.0,0.0,0.0,0.0,0.0,0.0,0.0,0.0,0.0,0.0,0.0,0.0,0.0,0.0,0.0,0.0,0.0,0.0,0.0,0.0,0.0,0.0,0.0,0.0,0.0,0.0,0.0,0.0,0.0,0.0,0.0,0.0,0.0,0.0,0.0,0.0,0.0,0.0,0.0,0.0,0.0,0.0,0.0,0.0,0.0,0.0,0.0,0.0,0.0,0.0,0.0,0.0,0.0,0.0,0.0,0.0,0.0,0.0,0.0,0.0,0.0,0.0,0.0,0.0,0.0,0.0,0.0,0.0,0.0,0.0,0.0,0.0,0.0,0.0,0.0,0.0,0.0,0.0,0.0,0.0,0.0,0.0,0.0,0.0,0.0,0.0,0.0,0.0,0.0,0.0,0.0,0.0,0.0,0.0,0.0,0.0,0.0,0.0,0.0,0.0,0.0,0.0,0.0,0.0,0.0,0.0,0.0,0.0,0.0,0.0,0.0,0.0,0.0,0.0,0.0,0.0,0.0,0.0,0.0,0.0,0.0,0.0,0.0,0.0,0.0,0.0,0.0,0.0,0.0,0.0,0.0,0.0,0.0,0.0,0.0,0.0,0.0,0.0,0.0,0.0,0.0,0.0,0.0,0.0,0.0,0.0,0.0,0.0,0.0,0.0,0.0,0.0,0.0,0.0,0.0,0.0,0.0,0.0,0.0,0.0,0.0,0.0,0.0,0.0,0.0,0.0,0.0,0.0,0.0,0.0,0.0,0.0,0.0,0.0,0.0,0.0,0.0,0.0,0.0,0.0,0.0,0.0,0.0,0.0,0.0,0.0,0.0,0.0,0.0,0.0,0.0,0.0,0.0,0.0,0.0,0.0,0.0,0.0,0.0,0.0,0.0,0.0,0.0,0.0,0.0,0.0,0.0,0.0,0.0,0.0,0.0,0.0,0.0,0.0,0.0,0.0,0.0,0.0,0.0,0.0,0.0,0.0,0.0,0.0,0.0,0.0,0.0,0.0,0.0,0.0,0.0,0.0,0.0,0.0,0.0,0.0,0.0,0.0,0.0,0.0,0.0,0.0,0.0,0.0,0.0,0.0,0.0,0.0,0.0,0.0,0.0,0.0,0.0,0.0,0.0,0.0,0.0,0.0,0.0,0.0,0.0,0.0,0.0,0.0,0.0,0.0,0.0,0.0,0.0,0.0,0.0,0.0,0.0,0.0,0.0,0.0,0.0,0.0,0.0,0.0,0.0,0.0,0.0,0.0,0.0,0.0,0.0,0.0,0.0,0.0,0.0,0.0,0.0,0.0,0.0,0.0,0.0,0.0,0.0,0.0,0.0,0.0,0.0,0.0,0.0,0.0,0.0,0.0,0.0,0.0,0.0,0.0,0.0,0.0,0.0,0.0,0.0,0.0,0.0,0.0,0.0,0.0,0.0,0.0,0.0,0.0,0.0,0.0,0.0,0.0,0.0,0.0,0.0,0.0,0.0,0.0,0.0,0.0,0.0,0.0,0.0,0.0,0.0,0.0,0.0,0.0,0.0,0.0,0.0,0.0,0.0,0.0,0.0,0.0,0.0,0.0,0.0,0.0,0.0,0.0,0.0,0.0,0.0,0.0,0.0,0.0,0.0,0.0,0.0,0.0,0.0,0.0,0.0,0.0,0.0,0.0,0.0,0.0,0.0,0.0,0.0,0.0,-0.8239,0.0,0.0,0.0,0.0,0.0,0.0,0.0,0.0,0.0,0.0,0.0,0.0,0.0,0.0,0.0,0.0,0.0,0.0,0.0,0.0,0.0,0.0,0.0,0.0,0.0,0.0,0.0,0.0,0.0,0.0,0.0,0.0,0.0,0.0,0.0,0.0,0.0,0.0,0.0,0.0,0.0,0.0,0.0,0.0,0.0,0.0,0.0,0.0,0.0,0.0,0.0,0.0,0.0,0.0,0.0,0.0,0.0,0.0,0.0,0.0,0.0,0.0,0.0,0.0,0.0,0.0,0.0,0.0,0.0,0.0,0.0,0.0,0.0,0.0,0.0,0.0,0.0,0.0,0.0,0.0,0.0,0.0,0.0,0.0,0.0,0.0,0.0,0.0,0.0,0.0,0.0,0.0,0.0,0.0,0.0,0.0,0.0,0.0,0.0,0.0,0.0,0.0,0.0,0.0,0.0,0.0,0.0,0.0,0.0,0.0,-0.8524,-0.9187,-0.7732,-0.7398,-0.8432,0.0,0.0,0.0,0.0,0.0,0.0,0.0,0.0,0.0,0.0,0.0,0.0,0.0,0.0,0.0,0.0,0.0,0.0,0.0,0.0,0.0,0.0,0.0,0.0,0.0,0.0,0.0,0.0,0.0,0.0,0.0,0.0,0.0,0.0,0.0,0.0,0.0,0.0,0.0,0.0,0.0,0.0,0.0,0.0,0.0,0.0,0.0,0.0,0.0,0.0,0.0,0.0,0.0,0.0,0.0,0.0,0.0,0.0,0.0,0.0,0.0,0.0,0.0,0.0,0.0,0.0,0.0,0.0,0.0,0.0,0.0,0.0,0.0,0.0,0.0,0.0,0.0,0.0,0.0,0.0,0.0,0.0,0.0,0.0,0.0,0.0,0.0,0.0,0.0,0.0,0.0,0.0,0.0,0.0,0.0,0.0,0.0,0.0,0.0,0.0,0.0,0.0,0.0,0.0,0.0,0.0,0.0,0.0,0.0,0.0,0.0,0.0,-0.8373,-0.819,-0.9428,0.0,0.0,0.0,0.0,0.0,0.0,0.0,0.0,0.0,0.0,0.0,0.0,0.0,0.0,0.0,0.0,0.0,0.0,0.0,0.0,0.0,0.0,0.0,0.0,0.0,0.0,0.0,0.0,0.0,0.0,0.0,0.0,0.0,0.0,0.0,0.0,0.0,0.0,0.0,0.0,0.0,0.0,0.0,0.0,0.0,0.0,0.0,0.0,0.0,0.0,0.0,0.0,0.0,0.0,0.0,0.0,0.0,0.0,0.0,0.0,0.0,0.0,0.0,0.0,0.0,0.0,0.0,0.0,0.0,0.0,0.0,0.0,0.0,0.0,0.0,0.0,0.0,0.0,0.0,0.0,0.0,0.0,0.0,0.0,0.0,0.0,0.0,0.0,0.0,0.0,0.0,0.0,0.0,0.0,0.0,0.0,0.0,0.0,0.0,0.0,0.0,0.0,0.0,0.0,0.0,0.0,0.0,0.0,0.0,0.0,-1.0218,-1.1514,-1.1134,0.0,-1.1981,0.0,0.0,0.0,0.0,0.0,0.0,0.0,0.0,0.0,0.0,0.0,0.0,0.0,0.0,0.0,0.0,0.0,0.0,0.0,0.0,0.0,0.0,0.0,0.0,0.0,0.0,0.0,0.0,0.0,0.0,0.0,0.0,0.0,0.0,0.0,0.0,0.0,0.0,0.0,0.0,0.0,0.0,0.0,0.0,0.0,0.0,0.0,0.0,0.0,0.0,0.0,0.0,0.0,0.0,0.0,0.0,0.0,0.0,0.0,0.0,0.0,0.0,0.0,0.0,0.0,0.0,0.0,0.0,0.0,0.0,0.0,0.0,0.0,0.0,0.0,0.0,0.0,0.0,0.0,0.0,0.0,0.0,0.0,0.0,0.0,0.0,0.0,0.0,0.0,0.0,0.0,0.0,0.0,0.0,0.0,0.0,0.0,0.0,0.0,0.0,0.0,0.0,0.0,0.0,0.0,0.0,0.0,0.0,0.0,0.0,-1.0215,-1.1183,-1.0906,-1.0674,0.0,0.0,0.0,0.0,0.0,0.0,0.0,0.0,0.0,0.0,0.0,0.0,0.0,0.0,0.0,0.0,0.0,0.0,0.0,0.0,0.0,0.0,0.0,0.0,0.0,0.0,0.0,0.0,0.0,0.0,0.0,0.0,0.0,0.0,0.0,0.0,0.0,0.0,0.0,0.0,0.0,0.0,0.0,0.0,0.0,0.0,0.0,0.0,0.0,0.0,0.0,0.0,0.0,0.0,0.0,0.0,0.0,0.0,0.0,0.0,0.0,0.0,0.0,0.0,0.0,0.0,0.0,0.0,0.0,0.0,0.0,0.0,0.0,0.0,0.0,0.0,0.0,0.0,0.0,0.0,0.0,0.0,0.0,0.0,0.0,0.0,0.0,0.0,0.0,0.0,0.0,0.0,0.0,0.0,0.0,0.0,0.0,0.0,0.0,0.0,0.0,0.0,0.0,0.0,0.0,0.0,0.0,0.0,0.0,0.0,-1.0526,-1.0634,-1.1418,-1.0783,-1.0369,-1.0308,0.0,0.0,0.0,0.0,0.0,0.0,0.0,0.0,0.0,0.0,0.0,0.0,0.0,0.0,0.0,0.0,0.0,0.0,0.0,0.0,0.0,0.0,0.0,0.0,0.0,0.0,0.0,0.0,0.0,0.0,0.0,0.0,0.0,0.0,0.0,0.0,0.0,0.0,0.0,0.0,0.0,0.0,0.0,0.0,0.0,0.0,0.0,0.0,0.0,0.0,0.0,0.0,0.0,0.0,0.0,0.0,0.0,0.0,0.0,0.0,0.0,0.0,0.0,0.0,0.0,0.0,0.0,0.0,0.0,0.0,0.0,0.0,0.0,0.0,0.0,0.0,0.0,0.0,0.0,0.0,0.0,0.0,0.0,0.0,0.0,0.0,0.0,0.0,0.0,0.0,0.0,0.0,0.0,0.0,0.0,0.0,0.0,0.0,0.0,0.0,0.0,0.0,0.0,0.0,0.0,0.0,0.0,0.0,-1.3451,-1.2145,-1.191,-1.3003,-1.1561,-1.1409,0.0,0.0,0.0,0.0,0.0,0.0,0.0,0.0,0.0,0.0,0.0,0.0,0.0,0.0,0.0,0.0,0.0,0.0,0.0,0.0,0.0,0.0,0.0,0.0,0.0,0.0,0.0,0.0,0.0,0.0,0.0,0.0,0.0,0.0,0.0,0.0,0.0,0.0,0.0,0.0,0.0,0.0,0.0,0.0,0.0,0.0,0.0,0.0,0.0,0.0,0.0,0.0,0.0,0.0,0.0,0.0,0.0,0.0,0.0,0.0,0.0,0.0,0.0,0.0,0.0,0.0,0.0,0.0,0.0,0.0,0.0,0.0,0.0,0.0,0.0,0.0,0.0,0.0,0.0,0.0,0.0,0.0,0.0,0.0,0.0,0.0,0.0,0.0,0.0,0.0,0.0,0.0,0.0,0.0,0.0,0.0,0.0,0.0,0.0,0.0,0.0,0.0,0.0,0.0,0.0,0.0,0.0,0.0,0.0,-1.22,-1.2226,-1.1814,-1.1118,-1.1463,-1.1763,0.0,0.0,0.0,0.0,0.0,0.0,0.0,0.0,0.0,0.0,0.0,0.0,0.0,0.0,0.0,0.0,0.0,0.0,0.0,0.0,0.0,0.0,0.0,0.0,0.0,0.0,0.0,0.0,0.0,0.0,0.0,0.0,0.0,0.0,0.0,0.0,0.0,0.0,0.0,0.0,0.0,0.0,0.0,0.0,0.0,0.0,0.0,0.0,0.0,0.0,0.0,0.0,0.0,0.0,0.0,0.0,0.0,0.0,0.0,0.0,0.0,0.0,0.0,0.0,0.0,0.0,0.0,0.0,0.0,0.0,0.0,0.0,0.0,0.0,0.0,0.0,0.0,0.0,0.0,0.0,0.0,0.0,0.0,0.0,0.0,0.0,0.0,0.0,0.0,0.0,0.0,0.0,0.0,0.0,0.0,0.0,0.0,0.0,0.0,0.0,0.0,0.0,0.0,0.0,0.0,0.0,0.0,0.0,0.0,-1.1445,0.0,-1.1334,-1.0416,-1.1666,-1.2094,0.0,0.0,0.0,0.0,0.0,0.0,0.0,0.0,0.0,0.0,0.0,0.0,0.0,0.0,0.0,0.0,0.0,0.0,0.0,0.0,0.0,0.0,0.0,0.0,0.0,0.0,0.0,0.0,0.0,0.0,0.0,0.0,0.0,0.0,0.0,0.0,0.0,0.0,0.0,0.0,0.0,0.0,0.0,0.0,0.0,0.0,0.0,0.0,0.0,0.0,0.0,0.0,0.0,0.0,0.0,0.0,0.0,0.0,0.0,0.0,0.0,0.0,0.0,0.0,0.0,0.0,0.0,0.0,0.0,0.0,0.0,0.0,0.0,0.0,0.0,0.0,0.0,0.0,0.0,0.0,0.0,0.0,0.0,0.0,0.0,0.0,0.0,0.0,0.0,0.0,0.0,0.0,0.0,0.0,0.0,0.0,0.0,0.0,0.0,0.0,0.0,0.0,0.0,0.0,0.0,0.0,0.0,0.0,-1.1463,-1.1459,-1.068,-1.0602,-1.1285,-1.2155,-1.2544,0.0,0.0,0.0,0.0,0.0,0.0,0.0,0.0,0.0,0.0,0.0,0.0,0.0,0.0,0.0,0.0,0.0,0.0,0.0,0.0,0.0,0.0,0.0,0.0,0.0,0.0,0.0,0.0,0.0,0.0,0.0,0.0,0.0,0.0,0.0,0.0,0.0,0.0,0.0,0.0,0.0,0.0,0.0,0.0,0.0,0.0,0.0,0.0,0.0,0.0,0.0,0.0,0.0,0.0,0.0,0.0,0.0,0.0,0.0,0.0,0.0,0.0,0.0,0.0,0.0,0.0,0.0,0.0,0.0,0.0,0.0,0.0,0.0,0.0,0.0,0.0,0.0,0.0,0.0,0.0,0.0,0.0,0.0,0.0,0.0,0.0,0.0,0.0,0.0,0.0,0.0,0.0,0.0,0.0,0.0,0.0,0.0,0.0,0.0,0.0,0.0,0.0,0.0,0.0,0.0,0.0,0.0,0.0,0.0,-1.147,-1.0658,-1.0575,-1.1364,-1.2627,-1.3339,0.0,0.0,0.0,0.0,0.0,0.0,0.0,0.0,0.0,0.0,0.0,0.0,0.0,0.0,0.0,0.0,0.0,0.0,0.0,0.0,0.0,0.0,0.0,0.0,0.0,0.0,0.0,0.0,0.0,0.0,0.0,0.0,0.0,0.0,0.0,0.0,0.0,0.0,0.0,0.0,0.0,0.0,0.0,0.0,0.0,0.0,0.0,0.0,0.0,0.0,0.0,0.0,0.0,0.0,0.0,0.0,0.0,0.0,0.0,0.0,0.0,0.0,0.0,0.0,0.0,0.0,0.0,0.0,0.0,0.0,0.0,0.0,0.0,0.0,0.0,0.0,0.0,0.0,0.0,0.0,0.0,0.0,0.0,0.0,0.0,0.0,0.0,0.0,0.0,0.0,0.0,0.0,0.0,0.0,0.0,0.0,0.0,0.0,0.0,0.0,0.0,0.0,0.0,0.0,0.0,0.0,0.0,0.0,0.0,-1.1896,-1.0493,-1.0091,-1.0879,-1.2764,-1.3817,-1.397,0.0,0.0,0.0,0.0,0.0,0.0,0.0,0.0,0.0,0.0,0.0,0.0,0.0,0.0,0.0,0.0,0.0,0.0,0.0,0.0,0.0,0.0,0.0,0.0,0.0,0.0,0.0,0.0,0.0,0.0,0.0,0.0,0.0,0.0,0.0,0.0,0.0,0.0,0.0,0.0,0.0,0.0,0.0,0.0,0.0,0.0,0.0,0.0,0.0,0.0,0.0,0.0,0.0,0.0,0.0,0.0,0.0,0.0,0.0,0.0,0.0,0.0,0.0,0.0,0.0,0.0,0.0,0.0,0.0,0.0,0.0,0.0,0.0,0.0,0.0,0.0,0.0,0.0,0.0,0.0,0.0,0.0,0.0,0.0,0.0,0.0,0.0,0.0,0.0,0.0,0.0,0.0,0.0,0.0,0.0,0.0,0.0,0.0,0.0,0.0,0.0,0.0,0.0,0.0,0.0,0.0,0.0,0.0,-1.2776,-1.0445,-0.9635,-1.0478,-1.2889,-1.4159,0.0,0.0,0.0,0.0,0.0,0.0,0.0,0.0,0.0,0.0,0.0,0.0,0.0,0.0,0.0,0.0,0.0,0.0,0.0,0.0,0.0,0.0,0.0,0.0,0.0,0.0,0.0,0.0,0.0,0.0,0.0,0.0,0.0,0.0,0.0,0.0,0.0,0.0,0.0,0.0,0.0,0.0,0.0,0.0,0.0,0.0,0.0,0.0,0.0,0.0,0.0,0.0,0.0,0.0,0.0,0.0,0.0,0.0,0.0,0.0,0.0,0.0,0.0,0.0,0.0,0.0,0.0,0.0,0.0,0.0,0.0,0.0,0.0,0.0,0.0,0.0,0.0,0.0,0.0,0.0,0.0,0.0,0.0,0.0,0.0,0.0,0.0,0.0,0.0,0.0,0.0,0.0,0.0,0.0,0.0,0.0,0.0,0.0,0.0,0.0,0.0,0.0,0.0,0.0,0.0,0.0,0.0,0.0,0.0,-1.2781,-1.2694,-1.307,-1.3926,-1.5416,-1.6131,0.0,0.0,0.0,0.0,0.0,0.0,0.0,0.0,0.0,0.0,0.0,0.0,0.0,0.0,0.0,0.0,0.0,0.0,0.0,0.0,0.0,0.0,0.0,0.0,0.0,0.0,0.0,0.0,0.0,0.0,0.0,0.0,0.0,0.0,0.0,0.0,0.0,0.0,0.0,0.0,0.0,0.0,0.0,0.0,0.0,0.0,0.0,0.0,0.0,0.0,0.0,0.0,0.0,0.0,0.0,0.0,0.0,0.0,0.0,0.0,0.0,0.0,0.0,0.0,0.0,0.0,0.0,0.0,0.0,0.0,0.0,0.0,0.0,0.0,0.0,0.0,0.0,0.0,0.0,0.0,0.0,0.0,0.0,0.0,0.0,0.0,0.0,0.0,0.0,0.0,0.0,0.0,0.0,0.0,0.0,0.0,0.0,0.0,0.0,0.0,0.0,0.0,0.0,0.0,0.0,0.0,0.0,0.0,-1.3533,-1.2852,-1.5028,-1.6268,-1.6412,-1.7004,-1.6951,0.0,0.0,0.0,0.0,0.0,0.0,0.0,0.0,0.0,0.0,0.0,0.0,0.0,0.0,0.0,0.0,0.0,0.0,0.0,0.0,0.0,0.0,0.0,0.0,0.0,0.0,0.0,0.0,0.0,0.0,0.0,0.0,0.0,0.0,0.0,0.0,0.0,0.0,0.0,0.0,0.0,0.0,0.0,0.0,0.0,0.0,0.0,0.0,0.0,0.0,0.0,0.0,0.0,0.0,0.0,0.0,0.0,0.0,0.0,0.0,0.0,0.0,0.0,0.0,0.0,0.0,0.0,0.0,0.0,0.0,0.0,0.0,0.0,0.0,0.0,0.0,0.0,0.0,0.0,0.0,0.0,0.0,0.0,0.0,0.0,0.0,0.0,0.0,0.0,0.0,0.0,0.0,0.0,0.0,0.0,0.0,0.0,0.0,0.0,0.0,0.0,0.0,0.0,0.0,0.0,0.0,0.0,0.0,-1.4549,-1.3149,-1.7089,-1.8804,-1.8072,-1.7721,-1.6943,0.0,0.0,0.0,0.0,0.0,0.0,0.0,0.0,0.0,0.0,0.0,0.0,0.0,0.0,0.0,0.0,0.0,0.0,0.0,0.0,0.0,0.0,0.0,0.0,0.0,0.0,0.0,0.0,0.0,0.0,0.0,0.0,0.0,0.0,0.0,0.0,0.0,0.0,0.0,0.0,0.0,0.0,0.0,0.0,0.0,0.0,0.0,0.0,0.0,0.0,0.0,0.0,0.0,0.0,0.0,0.0,0.0,0.0,0.0,0.0,0.0,0.0,0.0,0.0,0.0,0.0,0.0,0.0,0.0,0.0,0.0,0.0,0.0,0.0,0.0,0.0,0.0,0.0,0.0,0.0,0.0,0.0,0.0,0.0,0.0,0.0,0.0,0.0,0.0,0.0,0.0,0.0,0.0,0.0,0.0,0.0,0.0,0.0,0.0,0.0,0.0,0.0,0.0,0.0,0.0,0.0,0.0,0.0,-1.4551,-1.4902,-1.7707,-1.9126,-1.8908,-1.6914,-1.6303,0.0,0.0,0.0,0.0,0.0,0.0,0.0,0.0,0.0,0.0,0.0,0.0,0.0,0.0,0.0,0.0,0.0,0.0,0.0,0.0,0.0,0.0,0.0,0.0,0.0,0.0,0.0,0.0,0.0,0.0,0.0,0.0,0.0,0.0,0.0,0.0,0.0,0.0,0.0,0.0,0.0,0.0,0.0,0.0,0.0,0.0,0.0,0.0,-1.6579,0.0,0.0,0.0,0.0,0.0,0.0,0.0,0.0,0.0,0.0,0.0,0.0,0.0,0.0,0.0,0.0,0.0,0.0,0.0,0.0,0.0,0.0,0.0,0.0,0.0,0.0,0.0,0.0,0.0,0.0,0.0,0.0,0.0,0.0,0.0,0.0,0.0,0.0,0.0,0.0,0.0,0.0,0.0,0.0,0.0,0.0,0.0,0.0,0.0,0.0,0.0,0.0,0.0,0.0,0.0,0.0,0.0,0.0,0.0,-1.4336,-1.4844,-1.7305,-1.8447,-1.7975,-1.5896,-1.594,0.0,0.0,0.0,0.0,0.0,0.0,0.0,0.0,0.0,0.0,0.0,0.0,0.0,0.0,0.0,0.0,0.0,0.0,0.0,0.0,0.0,0.0,0.0,0.0,0.0,0.0,0.0,0.0,0.0,0.0,0.0,0.0,0.0,0.0,0.0,0.0,0.0,0.0,0.0,0.0,0.0,0.0,0.0,0.0,0.0,0.0,0.0,0.0,0.0,0.0,0.0,0.0,0.0,0.0,0.0,0.0,0.0,0.0,0.0,0.0,0.0,0.0,0.0,0.0,0.0,0.0,0.0,0.0,0.0,0.0,0.0,0.0,0.0,0.0,0.0,0.0,0.0,0.0,0.0,0.0,0.0,0.0,0.0,0.0,0.0,0.0,0.0,0.0,0.0,0.0,0.0,0.0,0.0,0.0,0.0,0.0,0.0,0.0,0.0,0.0,0.0,0.0,0.0,0.0,0.0,0.0,0.0,-1.3711,-1.4238,-1.457,-1.6777,-1.7656,-1.6894,-1.5078,-1.5706,-1.9032,0.0,0.0,0.0,0.0,0.0,0.0,0.0,0.0,0.0,0.0,0.0,0.0,0.0,0.0,0.0,0.0,0.0,0.0,0.0,0.0,0.0,0.0,0.0,0.0,0.0,0.0,0.0,0.0,0.0,0.0,0.0,0.0,0.0,0.0,0.0,0.0,0.0,0.0,-1.3835,-1.5382,0.0,0.0,0.0,0.0,0.0,0.0,0.0,0.0,-1.6302,0.0,0.0,0.0,0.0,0.0,0.0,0.0,0.0,0.0,0.0,0.0,0.0,0.0,0.0,0.0,0.0,0.0,0.0,0.0,0.0,0.0,0.0,0.0,0.0,0.0,0.0,0.0,0.0,0.0,0.0,0.0,0.0,0.0,0.0,0.0,0.0,0.0,0.0,0.0,0.0,0.0,0.0,0.0,0.0,0.0,0.0,0.0,0.0,0.0,0.0,0.0,0.0,0.0,0.0,0.0,0.0,-1.3867,-1.4023,-1.4805,-1.625,-1.7402,-1.7949,-1.7734,-1.5391,-1.5722,-1.8941,0.0,0.0,0.0,0.0,0.0,0.0,0.0,0.0,0.0,0.0,0.0,0.0,0.0,0.0,0.0,0.0,0.0,0.0,0.0,0.0,0.0,0.0,0.0,0.0,0.0,0.0,0.0,0.0,0.0,0.0,0.0,0.0,0.0,0.0,0.0,0.0,0.0,0.0,0.0,-1.5242,-1.5511,0.0,0.0,0.0,0.0,0.0,0.0,0.0,0.0,-1.8794,0.0,0.0,0.0,0.0,0.0,0.0,0.0,0.0,0.0,0.0,0.0,0.0,0.0,0.0,0.0,0.0,0.0,0.0,0.0,0.0,0.0,0.0,0.0,0.0,0.0,0.0,0.0,0.0,0.0,0.0,0.0,0.0,0.0,0.0,0.0,0.0,0.0,0.0,0.0,0.0,0.0,0.0,0.0,0.0,0.0,0.0,0.0,0.0,0.0,0.0,0.0,0.0,0.0,0.0,0.0,-1.5312,-1.4141,-1.4316,-1.5957,-1.6445,-1.6855,-1.7285,-1.5664,-1.6191,0.0,0.0,0.0,0.0,0.0,0.0,0.0,0.0,0.0,0.0,0.0,0.0,0.0,0.0,0.0,0.0,0.0,0.0,0.0,0.0,0.0,0.0,0.0,0.0,0.0,0.0,0.0,0.0,0.0,0.0,0.0,0.0,0.0,0.0,0.0,0.0,0.0,0.0,0.0,0.0,-1.6279,-1.6381,-1.5926,0.0,0.0,0.0,0.0,0.0,0.0,-1.7379,-1.91,0.0,0.0,0.0,0.0,0.0,0.0,0.0,0.0,0.0,0.0,0.0,0.0,0.0,0.0,0.0,0.0,0.0,0.0,0.0,0.0,0.0,0.0,0.0,0.0,0.0,0.0,0.0,0.0,0.0,0.0,0.0,0.0,0.0,0.0,0.0,0.0,0.0,0.0,0.0,0.0,0.0,0.0,0.0,0.0,0.0,0.0,0.0,0.0,0.0,0.0,0.0,0.0,0.0,0.0,0.0,-1.6562,-1.4531,-1.4043,-1.5332,-1.5566,-1.5996,-1.666,-1.5859,-1.6641,0.0,0.0,0.0,0.0,0.0,0.0,0.0,0.0,0.0,0.0,0.0,0.0,0.0,0.0,0.0,0.0,0.0,0.0,0.0,0.0,0.0,0.0,0.0,0.0,0.0,0.0,0.0,0.0,0.0,0.0,0.0,0.0,0.0,0.0,0.0,0.0,0.0,0.0,0.0,0.0,0.0,-1.7606,-1.7087,-1.7401,0.0,0.0,0.0,0.0,-1.6477,-1.8157,0.0,0.0,0.0,0.0,0.0,0.0,0.0,0.0,0.0,0.0,0.0,0.0,0.0,0.0,0.0,0.0,0.0,0.0,0.0,0.0,0.0,0.0,0.0,0.0,0.0,0.0,0.0,0.0,0.0,0.0,0.0,0.0,0.0,0.0,0.0,0.0,0.0,0.0,0.0,0.0,0.0,0.0,0.0,0.0,0.0,0.0,0.0,0.0,0.0,0.0,0.0,0.0,0.0,0.0,0.0,0.0,-1.666,-1.5644,-1.5215,-1.541,-1.6172,-1.6602,-1.668,-1.5859,-1.6621,0.0,0.0,0.0,0.0,0.0,0.0,0.0,0.0,0.0,0.0,0.0,0.0,0.0,0.0,0.0,0.0,0.0,0.0,0.0,0.0,0.0,0.0,0.0,0.0,0.0,0.0,0.0,0.0,0.0,0.0,0.0,0.0,0.0,0.0,0.0,0.0,0.0,0.0,0.0,0.0,0.0,-1.8024,-1.8619,-1.8138,-1.7992,0.0,0.0,-1.9064,-1.9625,-2.0623,0.0,0.0,0.0,0.0,0.0,0.0,0.0,0.0,0.0,0.0,0.0,0.0,0.0,0.0,0.0,0.0,0.0,0.0,0.0,0.0,0.0,0.0,0.0,0.0,0.0,0.0,0.0,0.0,0.0,0.0,0.0,0.0,0.0,0.0,0.0,0.0,0.0,0.0,0.0,0.0,0.0,0.0,0.0,0.0,0.0,0.0,0.0,0.0,0.0,0.0,0.0,0.0,0.0,0.0,0.0,-1.7674,-1.8086,-1.6816,-1.6387,-1.6855,-1.7246,-1.7676,-1.8164,-1.7324,-1.7871,0.0,0.0,0.0,0.0,0.0,0.0,0.0,0.0,0.0,0.0,0.0,0.0,0.0,0.0,0.0,0.0,0.0,0.0,0.0,0.0,0.0,0.0,0.0,0.0,0.0,0.0,0.0,0.0,0.0,0.0,0.0,0.0,0.0,0.0,0.0,0.0,0.0,0.0,0.0,0.0,0.0,0.0,-1.8955,-1.8255,0.0,0.0,0.0,-1.9141,-1.9522,0.0,0.0,0.0,0.0,0.0,0.0,0.0,0.0,0.0,0.0,0.0,0.0,0.0,0.0,0.0,0.0,0.0,0.0,0.0,0.0,0.0,0.0,0.0,0.0,0.0,0.0,0.0,0.0,0.0,0.0,0.0,0.0,0.0,0.0,0.0,0.0,0.0,0.0,0.0,0.0,0.0,0.0,0.0,0.0,0.0,0.0,0.0,0.0,0.0,0.0,0.0,0.0,0.0,0.0,0.0,0.0,0.0,-1.9254,-1.7793,-1.7441,-1.8301,-1.8535,-1.9062,-1.9902,-1.9297,0.0,0.0,0.0,0.0,0.0,0.0,0.0,0.0,0.0,0.0,0.0,0.0,0.0,0.0,0.0,0.0,0.0,0.0,0.0,0.0,0.0,0.0,0.0,0.0,0.0,0.0,0.0,-1.9804,0.0,0.0,0.0,0.0,0.0,0.0,0.0,0.0,0.0,0.0,0.0,0.0,0.0,0.0,-1.9718,-1.9656,-1.8743,-1.8416,0.0,0.0,-1.9403,-1.9605,-2.122,-2.1803,0.0,0.0,0.0,0.0,0.0,0.0,0.0,0.0,0.0,0.0,0.0,0.0,0.0,0.0,0.0,0.0,0.0,0.0,0.0,0.0,0.0,0.0,0.0,0.0,0.0,0.0,0.0,0.0,0.0,0.0,0.0,0.0,0.0,0.0,0.0,0.0,0.0,0.0,0.0,0.0,0.0,0.0,0.0,0.0,0.0,0.0,0.0,0.0,0.0,0.0,0.0,0.0,0.0,0.0,0.0,-1.9256,-1.8393,-1.8359,-1.9199,-2.0019,-2.084,-2.168,-2.168,-2.1679,0.0,0.0,0.0,0.0,0.0,0.0,0.0,0.0,0.0,0.0,0.0,0.0,0.0,0.0,0.0,0.0,0.0,0.0,0.0,0.0,0.0,0.0,0.0,0.0,0.0,0.0,0.0,0.0,0.0,0.0,0.0,0.0,0.0,0.0,0.0,0.0,0.0,0.0,0.0,0.0,0.0,-2.1501,-2.1435,-2.0023,-1.9596,0.0,0.0,-2.0493,-2.129,-2.3456,-2.4188,-2.1636,0.0,0.0,0.0,0.0,0.0,0.0,0.0,0.0,0.0,0.0,0.0,0.0,0.0,0.0,0.0,0.0,0.0,0.0,0.0,0.0,0.0,0.0,0.0,0.0,0.0,0.0,0.0,0.0,0.0,0.0,0.0,0.0,0.0,0.0,0.0,0.0,0.0,0.0,0.0,0.0,0.0,0.0,0.0,0.0,0.0,0.0,0.0,0.0,0.0,0.0,0.0,0.0,0.0,-2.036,-2.0891,-2.0585,-2.0801,-2.1621,-2.1973,-2.2324,-2.2695,-2.2637,-2.2362,0.0,0.0,0.0,0.0,0.0,0.0,0.0,0.0,0.0,0.0,0.0,0.0,0.0,0.0,0.0,0.0,0.0,0.0,0.0,0.0,0.0,0.0,0.0,0.0,0.0,0.0,0.0,0.0,-2.1067,-2.1299,-2.1041,0.0,0.0,0.0,0.0,0.0,0.0,0.0,0.0,0.0,0.0,-2.1262,-2.2299,-2.1462,0.0,0.0,-2.1795,-2.1828,-2.1625,-2.309,-2.3448,-2.1105,-2.1023,0.0,0.0,0.0,0.0,0.0,0.0,0.0,0.0,0.0,0.0,0.0,0.0,0.0,0.0,0.0,0.0,0.0,0.0,0.0,0.0,0.0,0.0,0.0,0.0,0.0,0.0,0.0,0.0,0.0,0.0,0.0,0.0,0.0,0.0,0.0,0.0,0.0,0.0,0.0,0.0,0.0,0.0,0.0,0.0,0.0,0.0,0.0,0.0,0.0,0.0,0.0,0.0,-2.1517,-2.1914,-2.2148,-2.2656,-2.3477,-2.3496,-2.3633,-2.3926,-2.3851,-2.3447,0.0,0.0,0.0,0.0,0.0,0.0,0.0,0.0,0.0,0.0,0.0,0.0,0.0,0.0,0.0,0.0,0.0,0.0,0.0,0.0,0.0,0.0,0.0,0.0,0.0,0.0,0.0,0.0,-2.111,-2.1206,-2.0545,0.0,0.0,0.0,0.0,0.0,0.0,0.0,0.0,0.0,0.0,-2.194,-2.2875,-2.2298,-2.1816,-2.2035,-2.2088,-2.2084,-2.2003,-2.2752,-2.2784,-2.1039,0.0,0.0,0.0,0.0,0.0,0.0,0.0,0.0,0.0,0.0,0.0,0.0,0.0,0.0,0.0,0.0,0.0,0.0,0.0,0.0,0.0,0.0,0.0,0.0,0.0,0.0,0.0,0.0,0.0,0.0,-2.0501,0.0,0.0,0.0,0.0,0.0,0.0,0.0,0.0,0.0,0.0,0.0,0.0,0.0,0.0,0.0,0.0,0.0,0.0,0.0,0.0,0.0,0.0,-2.2672,-2.1953,-2.2715,-2.3516,-2.4355,-2.4375,-2.4766,-2.5566,-2.5628,-2.5216,-2.4331,0.0,0.0,0.0,0.0,0.0,0.0,0.0,0.0,0.0,0.0,0.0,0.0,0.0,0.0,0.0,0.0,0.0,0.0,0.0,0.0,0.0,0.0,0.0,0.0,0.0,0.0,-2.0611,-2.0535,-2.0541,0.0,0.0,0.0,0.0,0.0,0.0,0.0,0.0,0.0,0.0,-2.3833,-2.3981,-2.3203,-2.2363,-2.2079,-2.2777,-2.1483,-2.0986,-2.2601,-2.2835,-2.2593,0.0,0.0,0.0,0.0,0.0,0.0,0.0,0.0,0.0,0.0,0.0,0.0,0.0,0.0,0.0,0.0,0.0,0.0,0.0,0.0,0.0,0.0,0.0,0.0,0.0,0.0,0.0,-2.2649,-2.2636,0.0,0.0,0.0,0.0,0.0,0.0,0.0,0.0,0.0,0.0,0.0,-2.2664,-2.2682,0.0,0.0,0.0,0.0,0.0,0.0,0.0,0.0,0.0,0.0,0.0,0.0,-2.3828,-2.3613,-2.4394,-2.4961,-2.5254,-2.5273,-2.541,-2.5684,-2.5666,-2.523,-2.4349,0.0,0.0,0.0,0.0,0.0,0.0,0.0,0.0,0.0,0.0,0.0,0.0,0.0,0.0,0.0,0.0,0.0,0.0,0.0,0.0,0.0,0.0,0.0,0.0,0.0,-2.1752,0.0,0.0,0.0,0.0,0.0,0.0,0.0,0.0,0.0,0.0,0.0,-2.228,-2.3553,-2.3163,-2.2829,-2.3066,-2.2845,-2.2951,0.0,0.0,0.0,0.0,0.0,0.0,0.0,0.0,0.0,0.0,0.0,0.0,0.0,0.0,-2.4896,-2.3127,-2.2389,-2.2617,-2.4438,0.0,0.0,0.0,0.0,0.0,0.0,0.0,0.0,0.0,0.0,0.0,0.0,0.0,0.0,-2.3527,0.0,-2.3529,0.0,0.0,0.0,0.0,0.0,0.0,0.0,0.0,-2.3472,-2.3839,-2.3558,-2.3561,-2.4012,0.0,-2.543,-2.5567,0.0,0.0,0.0,0.0,0.0,0.0,0.0,0.0,-2.4547,-2.4023,-2.5098,-2.5703,-2.5703,-2.5703,-2.5703,-2.5703,-2.5644,-2.5332,-2.4766,-2.3945,-2.3105,0.0,0.0,0.0,0.0,0.0,0.0,0.0,0.0,0.0,0.0,0.0,0.0,0.0,0.0,0.0,0.0,0.0,0.0,0.0,0.0,0.0,0.0,0.0,-2.2106,0.0,0.0,0.0,0.0,0.0,0.0,0.0,0.0,0.0,-2.2817,-2.2494,-2.2693,-2.3846,-2.3281,-2.2754,-2.2691,0.0,0.0,0.0,0.0,0.0,0.0,0.0,-2.1731,-2.1068,-2.4481,-2.7094,-2.6651,-2.5533,-2.4943,-2.5746,0.0,0.0,-2.4013,-2.2889,-2.2898,-2.5246,-2.5696,-2.5434,-2.4522,-2.454,-2.4743,0.0,0.0,0.0,0.0,0.0,0.0,0.0,0.0,-2.5186,-2.451,0.0,-2.4503,0.0,0.0,0.0,0.0,0.0,-2.4057,0.0,0.0,-2.4868,-2.5272,-2.4523,-2.4511,-2.494,-2.5753,-2.585,-2.6308,-2.7094,-2.7893,0.0,0.0,0.0,0.0,0.0,0.0,-2.4835,-2.3359,-2.4883,-2.5703,-2.5703,-2.5703,-2.5703,-2.5703,-2.5644,-2.5586,-2.5566,-2.4707,-2.4648,-2.5507,-2.402,0.0,0.0,0.0,0.0,0.0,0.0,0.0,0.0,0.0,0.0,0.0,0.0,0.0,0.0,0.0,0.0,0.0,0.0,0.0,0.0,-2.1851,0.0,0.0,0.0,0.0,0.0,0.0,0.0,0.0,0.0,0.0,-2.3894,-2.3436,-2.3298,-2.3867,0.0,0.0,0.0,0.0,-2.2474,-2.0971,-2.0624,-2.0638,-2.0705,-2.0538,-2.0845,-2.2061,0.0,0.0,-2.9107,-2.7122,-2.5956,-2.6718,-2.6857,-2.6625,-2.5746,-2.5447,-2.549,-2.5801,-2.5898,-2.5508,-2.4697,-2.4165,-2.3542,-2.7436,0.0,0.0,0.0,0.0,-2.6705,-2.7123,-2.7893,-2.7394,-2.7164,-2.7184,-2.717,0.0,0.0,0.0,0.0,0.0,0.0,-2.5466,-2.4105,-2.5183,-2.5902,-2.6249,-2.625,-2.6719,-2.7557,-2.8178,-2.8606,-2.8881,-2.9711,-2.9079,-2.7008,0.0,0.0,0.0,0.0,-2.4823,-2.4968,-2.5445,-2.5703,-2.5703,-2.5703,-2.5661,-2.5628,-2.5601,-2.5566,-2.5511,-2.5265,-2.5246,-2.5524,-2.5662,0.0,0.0,0.0,0.0,0.0,0.0,0.0,0.0,0.0,0.0,0.0,0.0,0.0,0.0,0.0,0.0,0.0,0.0,0.0,-2.2731,-2.3287,-2.3606,0.0,0.0,0.0,0.0,0.0,0.0,0.0,0.0,0.0,-2.5224,-2.3473,-2.2518,0.0,0.0,-2.1992,-2.2712,-2.2498,-2.2494,-2.3179,-2.2764,0.0,-2.3189,-2.1701,-2.1168,-2.315,-2.6186,-2.8196,-2.7845,-2.7595,-2.7547,-2.7763,-2.7346,-2.7055,-2.7384,-2.647,-2.6172,-2.7187,-2.7559,-2.7324,-2.6698,-2.619,-2.5664,-3.0661,-3.0056,-2.8546,-2.8296,-2.8866,-2.8594,-2.8994,-2.9823,-2.9491,-2.9132,-2.8848,-2.9201,-2.8376,-2.6731,-2.6927,0.0,0.0,0.0,-2.6624,-2.5953,-2.649,-2.7002,-2.748,-2.7519,-2.7773,-2.832,-2.9198,-2.9608,-2.9609,-3.0135,-2.9599,-2.8059,0.0,0.0,-2.6224,-2.6048,-2.6032,-2.6217,-2.6558,-2.6738,-2.6719,-2.6367,-2.5996,-2.563,-2.5873,-2.6021,-2.5977,-2.6275,-2.6612,-2.6949,-2.714,-2.7199,0.0,0.0,0.0,0.0,0.0,0.0,0.0,0.0,0.0,0.0,0.0,-2.333,-2.287,0.0,0.0,0.0,-2.3618,-2.3627,-2.3618,-2.408,0.0,0.0,0.0,0.0,0.0,0.0,0.0,-2.4351,-2.5506,-2.6298,-2.5742,-2.4375,-2.3711,-2.4531,-2.3769,-2.3398,-2.4102,0.0,-2.4163,-2.482,-2.4486,-2.431,-2.4798,-2.3013,-2.224,-2.4335,-2.6133,-2.7715,-2.8633,-2.9058,-2.9252,-2.9213,-2.8865,-2.8491,-2.8335,-2.7952,-2.8027,-2.9082,-2.8965,-2.8398,-2.7578,-2.7187,-2.6875,-3.3541,-3.3378,-3.0948,-3.0724,-3.1906,-3.1216,-3.1383,-3.2129,-3.1406,-3.0644,-2.998,-3.0658,-3.0085,-2.8465,-2.7663,0.0,-2.8369,-2.7566,-2.7598,-2.8281,-2.8281,-2.834,-2.8398,-2.8398,-2.8437,-2.8516,-2.9316,-2.9707,-2.9707,-2.9707,-2.9661,-2.9597,-2.9659,-2.8803,-2.7144,-2.7702,-2.7719,-2.7023,-2.7772,-2.8223,-2.8281,-2.7441,-2.662,-2.5832,-2.6429,-2.6795,-2.6824,-2.7518,-2.829,-2.911,-2.8437,-2.8437,-2.9367,0.0,0.0,0.0,0.0,0.0,0.0,0.0,0.0,0.0,0.0,0.0,0.0,0.0,0.0,0.0,-2.4564,0.0,-2.4707,-2.4766,0.0,0.0,0.0,-2.6643,-2.8236,-2.7737,-2.6978,-2.6112,0.0,0.0,-2.6113,-2.6055,-2.6328,-2.7187,-2.707,-2.6641,-2.5996,-2.6465,-2.6738,-2.6048,-2.587,-2.585,-2.593,-2.4668,-2.4317,-2.6016,-2.6934,-2.8359,-3.0137,-3.0762,-3.084,-3.0801,-3.082,-3.0332,-2.8769,-2.9648,-3.0801,-3.0762,-3.0019,-2.8984,-2.8086,-2.7578,-2.7363,-3.6428,-3.6832,-3.5547,-3.3865,-3.2057,-3.256,-3.2539,-3.2246,-3.2617,-3.2695,-3.248,-3.207,-3.1288,-3.0273,-3.0058,-2.9725,-2.9293,-2.9079,-2.8748,-2.8301,-2.8281,-2.8652,-2.9277,-2.9297,-2.9648,-3.0273,-3.0488,-3.0605,-3.0586,-3.0605,-3.0248,-2.9675,-3.0217,-2.9324,-2.7075,-2.6562,-2.6542,-2.7011,-2.7207,-2.7637,-2.8262,-2.8027,-2.7771,-2.7526,-2.7624,-2.7672,-2.7612,-2.7791,-2.8261,-2.9071,-2.8933,-2.9267,-3.0244,-2.8656,0.0,0.0,0.0,0.0,0.0,0.0,0.0,0.0,0.0,-2.5673,-2.4426,0.0,-2.6039,0.0,-2.5992,-2.6657,-2.7305,-2.7969,0.0,0.0,-2.8728,-2.8767,-2.9235,-2.9642,-2.9581,-2.8772,-2.9252,-2.9668,-2.9668,-2.9082,-2.9004,-2.9785,-2.7695,-2.6406,-2.7441,-2.7246,-2.7187,-2.7559,-2.7324,-2.7167,-2.7559,-2.7362,-2.7578,-2.9375,-2.9336,-2.9297,-2.9824,-3.0469,-3.0918,-3.0859,-3.0332,-3.0019,-3.0195,-2.998,-2.998,-3.0664,-3.055,-3.0256,-3.0078,-2.9434,-2.875,-3.8661,-3.8642,-3.8253,-3.6834,-3.4866,-3.5379,-3.5166,-3.4531,-3.4941,-3.4707,-3.3926,-3.3105,-3.2461,-3.1992,-3.1641,-3.1406,-3.125,-3.0527,-3.0137,-3.0019,-2.9648,-2.9726,-3.0176,-3.0566,-3.1016,-3.1484,-3.1836,-3.2012,-3.2012,-3.2012,-3.1752,-3.1317,-3.1737,-3.1075,-2.9304,-2.8411,-2.8212,-2.8699,-2.869,-2.876,-2.8837,-2.8777,-2.8515,-2.8078,-2.8007,-2.7948,-2.7958,-2.7952,-2.8145,-2.8583,-2.897,-2.9454,-3.0013,-2.9145,-2.8449,0.0,0.0,0.0,0.0,0.0,0.0,0.0,0.0,0.0,0.0,0.0,-2.7791,-2.7382,-2.8182,-2.8787,-2.8867,-2.9668,-3.0332,-3.0703,-3.0723,-3.0859,-3.125,-3.1693,-3.188,-3.1704,-3.1872,-3.2109,-3.2344,-3.1562,-3.1191,-3.1914,-3.0156,-2.8926,-2.9277,-2.9043,-2.8906,-2.9355,-2.918,-2.9062,-2.9434,-2.9453,-2.9766,-3.0605,-3.0508,-3.0176,-3.0195,-3.0586,-3.0918,-3.0879,-3.0488,-3.0332,-3.0762,-3.043,-3.0215,-3.0644,-3.074,-3.07,-3.0839,-3.0161,-2.9396,-4.0573,-3.9903,-3.9965,-3.9579,-3.8896,-3.8734,-3.8215,-3.7461,-3.7461,-3.6484,-3.4824,-3.4062,-3.3613,-3.3359,-3.2793,-3.2832,-3.3301,-3.1875,-3.1621,-3.2285,-3.1582,-3.1211,-3.125,-3.1992,-3.2344,-3.2383,-3.3066,-3.3379,-3.3379,-3.3379,-3.3336,-3.3227,-3.3353,-3.2955,-3.2104,-3.1465,-3.102,-3.0806,-3.0912,-3.0602,-2.9843,-2.9552,-2.9024,-2.822,-2.8007,-2.7945,-2.7986,-2.7985,-2.7973,-2.8025,-2.8839,-2.9438,-2.9702,-2.9641,-2.9755,0.0,-2.9952,0.0,0.0,0.0,0.0,0.0,0.0,0.0,0.0,-2.9933,-2.9552,-2.9707,-3.0527,-3.0781,-3.0156,-3.0859,-3.1699,-3.2422,-3.2519,-3.2812,-3.3476,-3.3574,-3.3769,-3.4297,-3.3887,-3.3789,-3.416,-3.3398,-3.2891,-3.3164,-3.2773,-3.2051,-3.1426,-3.1172,-3.1133,-3.1094,-3.1094,-3.0937,-3.0801,-3.082,-3.084,-3.0898,-3.0859,-3.0879,-3.082,-3.084,-3.0859,-3.0859,-3.082,-3.082,-3.0859,-3.0859,-3.0879,-3.0898,-3.0728,-3.0649,-3.0789,-3.0289,-2.9883,-4.2618,-4.2437,-4.1895,-4.161,-4.1493,-4.0786,-3.9691,-3.8359,-3.8359,-3.7363,-3.5762,-3.5586,-3.4746,-3.3476,-3.3984,-3.3926,-3.3398,-3.3066,-3.3027,-3.3164,-3.3008,-3.293,-3.293,-3.3105,-3.3164,-3.3184,-3.332,-3.3379,-3.3379,-3.3379,-3.3046,-3.24,-3.3041,-3.297,-3.2165,0.0,0.0,0.0,-3.1514,-3.1771,-3.1562,-3.0199,-2.9369,-2.9133,-2.8392,0.0,-2.798,-2.7989,-2.7977,-2.8022,-2.8849,0.0,0.0,0.0,0.0,0.0,0.0,0.0,0.0,0.0,0.0,0.0,-3.1892,-3.106,-3.0586,-3.0423,-3.0672,-3.1423,-3.1678,-3.2051,-3.2637,-3.3476,-3.4043,-3.4199,-3.4219,-3.4297,-3.4453,-3.4473,-3.4512,-3.4609,-3.4512,-3.4492,-3.4551,-3.3828,-3.332,-3.3476,-3.334,-3.3184,-3.2949,-3.2851,-3.2637,-3.2129,-3.2109,-3.1894,-3.1035,-3.1016,-3.1016,-3.0918,-3.0918,-3.0879,-3.0773,-3.0752,-3.0715,-3.0675,-3.0643,-3.0662,-3.0667,-3.0801,-3.0898,-3.0918,-3.065,-3.0528,-3.0813,-3.0586,-3.0336,-4.4372,0.0,-4.3673,-4.3322,0.0,-4.2514,-4.1626,-4.041,-3.959,-3.8516,-3.7305,-3.7285,-3.6777,-3.5996,-3.6426,-3.6152,-3.5312,-3.4883,-3.4453,-3.4023,-3.3613,-3.3379,-3.3398,-3.3828,-3.4043,-3.4062,-3.4492,-3.4902,-3.5293,-3.4902,-3.4687,-3.4687,-3.5125,-3.4872,-3.4066,-3.4456,-3.3817,-3.209,-3.2478,-3.2666,-3.2611,-3.1715,-3.1204,-3.1146,-3.0288,0.0,0.0,0.0,0.0,0.0,0.0,0.0,0.0,-3.1874,0.0,-3.3789,-3.3139,-3.3066,-3.3906,-3.3971,-3.4153,-3.4582,-3.4122,-3.3185,-3.1845,-3.256,-3.3277,-3.3751,-3.3888,-3.4121,-3.4629,-3.5078,-3.5332,-3.5332,-3.5332,-3.5351,-3.5332,-3.5332,-3.5351,-3.5351,-3.5351,-3.5332,-3.5351,-3.498,-3.4707,-3.4687,-3.4687,-3.4512,-3.4082,-3.3652,-3.3301,-3.3203,-3.2793,-3.2832,-3.3203,-3.2324,-3.1758,-3.1719,-3.1621,-3.1328,-3.0886,-3.0742,-3.0698,-3.0646,-3.0615,-3.0615,-3.0604,-3.0683,-3.0742,-3.0736,-3.0567,-3.0449,-3.0614,-3.0587,-3.0491,-4.5699,-4.5038,-4.5021,-4.4592,-4.3924,-4.377,-4.3288,-4.25,0.0,0.0,0.0,-3.8828,-3.875,-3.8613,-3.8769,-3.834,-3.748,-3.6621,-3.5918,-3.5351,-3.4473,-3.416,-3.4355,-3.5039,-3.5391,-3.541,-3.6113,-3.6836,-3.748,-3.6797,-3.6816,-3.7461,-3.738,-3.6877,-3.6052,-3.6009,-3.5283,-3.3912,-3.365,-3.3506,-3.3438,-3.3031,-3.2804,-3.2773,-3.1964,-3.153,-3.1557,-3.0874,-3.0482,-3.0521,-3.1337,-3.1864,-3.2025,-3.2861,-3.3431,-3.3608,-3.3628,-3.3984,-3.4747,-3.4879,-3.5328,-3.6213,-3.6136,-3.5374,-3.3805,-3.4989,-3.5834,-3.5911,-3.6015,-3.6055,-3.5996,-3.5976,-3.5976,-3.5996,-3.6016,-3.5996,-3.5996,-3.6016,-3.6016,-3.6172,-3.6074,-3.6074,-3.6191,-3.6035,-3.6016,-3.5996,-3.5859,-3.5781,-3.5,-3.4219,-3.3926,-3.4394,-3.3965,-3.3945,-3.5137,-3.4512,-3.3223,-3.293,-3.2617,-3.2148,-3.1543,-3.1228,-3.1107,-3.108,-3.0902,-3.0768,-3.0602,-3.056,-3.0583,-3.0564,-3.0487,-3.0398,-3.0398,-3.0448,-3.0467,-4.6025,-4.5863,-4.526,-4.494,-4.4755,-4.4013,-4.3629,-4.332,-4.0957,-3.9824,-3.9726,-3.9726,-3.9297,-3.8633,-3.9375,-3.9238,-3.8379,-3.7519,-3.7441,-3.7988,-3.7168,-3.7168,-3.7871,-3.7988,-3.8047,-3.8066,-3.8184,-3.8301,-3.8379,-3.8281,-3.8301,-3.8301,-3.7676,-3.6855,-3.6073,-3.6014,-3.5845,-3.5535,-3.4796,-3.4398,-3.4372,-3.2865,-3.2014,-3.1939,-3.1229,-3.0721,-3.0689,-3.0606,-3.0484,-3.0513,-3.1328,-3.2115,-3.2814,-3.3713,-3.4525,-3.5193,-3.5302,-3.5415,-3.557,-3.624,-3.6959,-3.7704,-3.7767,-3.7357,-3.6449,-3.6454,-3.6603,-3.6722,-3.6765,-3.6512,-3.6016,-3.5976,-3.6035,-3.6016,-3.6035,-3.6016,-3.6055,-3.6094,-3.6367,-3.7012,-3.6445,-3.6367,-3.6934,-3.6543,-3.6152,-3.6055,-3.6074,-3.5937,-3.5664,-3.5059,-3.4922,-3.5547,-3.5644,-3.5684,-3.584,-3.582,-3.498,-3.4219,-3.3574,-3.3144,-3.2832,-3.2695,-3.249,-3.2135,-3.1711,-3.1275,-3.0717,-3.0417,-3.0436,-3.0436,-3.0417,-3.0398,-3.0398,-3.0417,-3.0417,-4.6205,-4.6162,-4.5848,-4.5703,-4.5644,-4.4766,-4.4414,-4.4258,-4.2676,-4.1699,-4.123,-4.0801,-4.0391,-4.0059,-4.043,-4.0137,-3.9297,-3.8887,-3.8672,-3.8574,-3.8184,-3.8223,-3.8574,-3.8613,-3.8613,-3.8613,-3.8613,-3.8828,-3.9238,-3.8848,-3.8848,-3.918,-3.7969,-3.7305,-3.7246,-3.6406,-3.5899,-3.5784,-3.5389,-3.5175,-3.5122,-3.4293,-3.3846,-3.3812,-3.343,-3.3254,-3.3215,-3.3215,-3.3215,-3.3215,-3.3594,-3.3972,-3.4332,-3.4766,-3.5164,-3.554,-3.6001,-3.629,-3.6339,-3.7198,-3.7832,-3.807,-3.8089,-3.8142,-3.82,-3.7709,-3.744,-3.7526,-3.7553,-3.7478,-3.7234,-3.7194,-3.7042,-3.664,-3.7012,-3.7129,-3.6836,-3.7168,-3.7578,-3.791,-3.7656,-3.7578,-3.7949,-3.7656,-3.7266,-3.6973,-3.6465,-3.6055,-3.6035,-3.5703,-3.5547,-3.5898,-3.6016,-3.5996,-3.6016,-3.6016,-3.5566,-3.4668,-3.4297,-3.3906,-3.3516,-3.3298,-3.3122,-3.2798,-3.2225,-3.1814,-3.1621,-3.0968,-3.0533,-3.0398,-3.0398,-3.0398,-3.0398,-3.0398,-3.0398,-4.6289,-4.6289,-4.6289,-4.6289,-4.623,-4.5586,-4.5273,-4.5215,-4.4355,-4.3613,-4.293,-4.2129,-4.1758,-4.1738,-4.1562,-4.1094,-4.0469,-4.0059,-3.9629,-3.9199,-3.8984,-3.8984,-3.918,-3.918,-3.9199,-3.918,-3.9199,-3.9531,-4.0059,-3.9512,-3.939,-3.9687,-3.8502,-3.7934,-3.8066,-3.6804,-3.6002,-3.572,-3.5858,-3.5839,-3.5603,-3.5545,-3.5488,-3.5507,-3.5488,-3.5507,-3.5507,-3.5507,-3.5507,-3.5507,-3.5507,-3.5507,-3.5507,-3.5507,-3.557,-3.5795,-3.6348,-3.6925,-3.7435,-3.8116,-3.8558,-3.8627,-3.8631,-3.8919,-3.9411,-3.8958,-3.8501,-3.8396,-3.8368,-3.8344,-3.8194,-3.8191,-3.8016,-3.7496,-3.7985,-3.8105,-3.7754,-3.8203,-3.8711,-3.8809,-3.873,-3.8613,-3.8809,-3.8711,-3.8262,-3.7539,-3.707,-3.6719,-3.6406,-3.6289,-3.6289,-3.625,-3.6133,-3.6016,-3.6016,-3.6016,-3.5723,-3.5059,-3.5,-3.4746,-3.4258,-3.3955,-3.3852,-3.3797,-3.3058,-3.2718,-3.2929,-3.2179,-3.1295,-3.1064,-3.1186,-3.1212,-3.0931,-3.059,-3.0533,-4.6289,-4.6289,-4.6289,-4.6289,-4.6289,-4.6191,-4.6133,-4.6035,-4.5234,-4.4844,-4.4629,-4.3848,-4.3457,-4.3359,-4.2637,-4.2226,-4.2012,-4.0586,-4.0312,-4.082,-4.0156,-4.0195,-4.0937,-4.0957,-4.0957,-4.0937,-4.0976,-4.0976,-4.1055,-4.0918,-4.0506,-3.9812,-3.9538,-3.8675,-3.7331,-3.7012,-3.6485,-3.5661,-3.6383,-3.6402,-3.5641,-3.5545,-3.5507,-3.5507,-3.5507,-3.5507,-3.5545,-3.5507,-3.5507,-3.5507,-3.5545,-3.5526,-3.5526,-3.5526,-3.582,-3.6546,-3.6694,-3.7368,-3.8862,-3.9169,-3.9512,-4.0181,-4.02,-4.0219,-4.0335,-4.0277,-3.9931,-3.9373,-3.9181,-3.8911,-3.8223,-3.8204,-3.8285,-3.8286,-3.8433,-3.8398,-3.8496,-3.8555,-3.8887,-3.9707,-3.9219,-3.8887,-3.9551,-3.9219,-3.8418,-3.7754,-3.8281,-3.832,-3.7402,-3.7187,-3.7168,-3.7051,-3.6582,-3.6113,-3.6035,-3.6016,-3.5918,-3.582,-3.5859,-3.5664,-3.5469,-3.5508,-3.5656,-3.4991,-3.461,-3.4007,-3.391,-3.357,-3.3038,-3.2487,-3.2692,-3.3127,-3.216,-3.136,-3.109,-4.6289,-4.6289,-4.6289,-4.6289,-4.6289,-4.6289,-4.6289,-4.625,-4.5937,-4.5781,-4.5723,-4.5391,-4.4668,-4.3691,-4.332,-4.3164,-4.3125,-4.2461,-4.2324,-4.2637,-4.2305,-4.2344,-4.2637,-4.2676,-4.2676,-4.2676,-4.2676,-4.2415,-4.1883,-4.1373,-4.082,-4.0339,-3.9879,-3.9226,-3.8423,-3.7912,-3.7434,-3.7046,-3.7358,-3.7377,-3.7007,-3.6483,-3.5982,-3.5545,-3.5507,-3.5738,-3.6155,-3.6213,-3.6458,-3.692,-3.6993,-3.6998,-3.6969,-3.6502,-3.6598,-3.7392,-3.7964,-3.8753,-3.9931,-3.9992,-4.0162,-4.0489,-4.0489,-4.0489,-4.0489,-4.0489,-4.0335,-4.0085,-3.9988,-3.9835,-3.9546,-3.9508,-3.9396,-3.9172,-3.9452,-3.9628,-3.9277,-3.9707,-4.0195,-4.0485,-4.0336,-4.0196,-4.0455,-4.0317,-3.9746,-3.8965,-3.9219,-3.9023,-3.8223,-3.8066,-3.8066,-3.8027,-3.7734,-3.707,-3.6348,-3.6016,-3.5996,-3.5967,-3.5981,-3.5996,-3.5976,-3.5996,-3.5957,-3.5859,-3.515,-3.4768,-3.4932,-3.4299,-3.3731,-3.3737,-3.4147,-3.437,-3.2864,-3.3025,-3.334,-4.6289,-4.6289,-4.6289,-4.6289,-4.6289,-4.6289,-4.6289,-4.6289,-4.6289,-4.6289,-4.6289,-4.6289,-4.5605,-4.4492,-4.416,-4.4062,-4.4043,-4.3808,-4.3711,-4.3711,-4.3711,-4.3691,-4.3711,-4.3681,-4.3675,-4.3669,-4.3594,-4.3265,-4.2637,-4.2043,-4.1484,-4.1086,-4.0544,-3.9973,-3.9358,-3.8715,-3.8267,-3.8027,-3.8219,-3.8257,-3.7969,-3.7618,-3.7021,-3.6276,-3.6199,-3.6483,-3.703,-3.7055,-3.7329,-3.7959,-3.7997,-3.8001,-3.7973,-3.7392,-3.7445,-3.831,-3.9157,-3.9888,-4.045,-4.0489,-4.0489,-4.0489,-4.0489,-4.0489,-4.0489,-4.0489,-4.0489,-4.0469,-4.0489,-4.0469,-4.0489,-4.0489,-4.0277,-3.9854,-4.0372,-4.0471,-4.0117,-4.0616,-4.0872,-4.0939,-4.089,-4.1058,-4.0981,-4.0949,-4.0644,-3.9805,-3.9785,-3.9629,-3.9101,-3.8926,-3.8887,-3.8881,-3.8691,-3.8008,-3.6891,-3.6504,-3.6382,-3.6382,-3.6443,-3.5987,-3.6066,-3.6172,-3.5996,-3.5859,-3.5234,-3.5035,-3.5279,-3.4805,-3.4404,-3.5141,-3.5397,-3.507,-3.4019,-3.4782,-3.4993,-4.6289,-4.6289,-4.6289,-4.6289,-4.6289,-4.6289,-4.6289,-4.6289,-4.6289,-4.6289,-4.6289,-4.6289,-4.625,-4.6035,-4.5273,-4.4941,-4.4844,-4.418,-4.3848,-4.3848,-4.3808,-4.373,-4.3711,-4.3621,-4.3657,-4.381,-4.374,-4.3539,-4.3357,-4.3265,-4.2821,-4.1963,-4.1774,-4.0973,-3.9611,-3.9319,-3.8839,-3.8339,-3.8896,-3.8877,-3.8277,-3.88,-3.8723,-3.8003,-3.7834,-3.7829,-3.793,-3.7945,-3.7997,-3.8024,-3.812,-3.8082,-3.8043,-3.8016,-3.8392,-3.9153,-3.9965,-4.0431,-4.0469,-4.0489,-4.0489,-4.0489,-4.0489,-4.0489,-4.0489,-4.0489,-4.0489,-4.0489,-4.0489,-4.0489,-4.0489,-4.0489,-4.0527,-4.0546,-4.06,-4.068,-4.0714,-4.0714,-4.0801,-4.083,-4.0839,-4.0834,-4.083,-4.0919,-4.0625,-4.0184,-4.0508,-4.0723,-4.0,-3.9707,-3.9656,-3.9509,-3.9051,-3.8325,-3.8215,-3.7595,-3.7491,-3.7489,-3.6891,-3.6173,-3.6406,-3.6562,-3.6289,-3.6035,-3.5937,-3.5842,-3.5729,-3.5582,-3.5393,-3.5545,-3.5507,-3.5109,-3.4782,-3.5185,-3.5353,-4.6289,-4.6289,-4.6289,-4.6289,-4.6289,-4.6289,-4.6289,-4.6289,-4.6289,-4.6245,-4.6201,-4.6264,-4.625,-4.6172,-4.5937,-4.582,-4.5801,-4.5414,-4.5215,-4.5218,-4.5149,-4.5106,-4.5092,-4.5084,-4.5086,-4.506,-4.5028,-4.4699,-4.4058,-4.3534,-4.2785,-4.2027,-4.1873,-4.1258,-4.0277,-4.005,-3.9912,-3.9681,-3.995,-3.9912,-3.9604,-3.9912,-3.9912,-3.9565,-3.8535,-3.8257,-3.8805,-3.884,-3.9046,-3.9569,-3.9608,-3.9608,-3.9588,-3.9588,-3.9503,-3.9384,-4.0042,-4.0489,-4.0489,-4.0489,-4.0489,-4.0489,-4.0489,-4.0489,-4.0489,-4.0489,-4.0489,-4.0489,-4.0489,-4.0489,-4.0489,-4.0489,-4.0527,-4.0546,-4.0566,-4.0639,-4.0693,-4.0737,-4.0759,-4.0733,-4.0718,-4.0733,-4.0764,-4.0824,-4.0733,-4.0462,-4.0694,-4.0755,-4.0588,-4.0429,-4.0358,-4.0352,-4.0149,-3.9901,-3.986,-3.8685,-3.8017,-3.8053,-3.7758,-3.7572,-3.7638,-3.7656,-3.748,-3.6543,-3.6465,-3.6444,-3.6231,-3.5676,-3.5611,-3.5545,-3.5507,-3.5507,-3.5488,-3.5507,-3.5507,-4.6289,-4.6289,-4.6289,-4.6289,-4.6289,-4.6289,-4.6289,-4.6289,-4.6234,-4.6192,-4.6124,-4.6143,-4.612,-4.6053,-4.6124,-4.6175,-4.6164,-4.6104,-4.6084,-4.6042,-4.5957,-4.5891,-4.5908,-4.5872,-4.5873,-4.5853,-4.5834,-4.5449,-4.4872,-4.4261,-4.3494,-4.2681,-4.2604,-4.2027,-4.1104,-4.0927,-4.0831,-4.0585,-4.0489,-4.0489,-4.0489,-4.0489,-4.0489,-4.0354,-3.9381,-3.905,-3.9658,-3.9687,-3.9923,-4.0427,-4.0489,-4.0489,-4.0489,-4.0489,-4.0273,-3.9826,-4.0196,-4.0489,-4.0489,-4.0489,-4.0489,-4.0489,-4.0489,-4.0489,-4.0489,-4.0489,-4.0489,-4.0489,-4.0489,-4.0489,-4.0489,-4.0489,-4.0489,-4.0489,-4.0489,-4.0527,-4.062,-4.062,-4.062,-4.0635,-4.0635,-4.0639,-4.0658,-4.0735,-4.0728,-4.0706,-4.0768,-4.08,-4.08,-4.077,-4.0776,-4.0757,-4.0639,-4.0515,-4.0392,-3.9569,-3.9127,-3.9133,-3.8378,-3.838,-3.852,-3.8572,-3.8238,-3.7268,-3.6861,-3.6848,-3.6516,-3.59,-3.5637,-3.5545,-3.5507,-3.5507,-3.5507,-3.5507,-3.5507,-4.6289,-4.6289,-4.6289,-4.6289,-4.6289,-4.6289,-4.6289,-4.6289,-4.6154,-4.6111,-4.608,-4.596,-4.5929,-4.5925,-4.6047,-4.5999,-4.6059,-4.6273,-4.6161,-4.5948,-4.5888,-4.5866,-4.5877,-4.5808,-4.5796,-4.5776,-4.568,-4.5586,-4.547,-4.5355,-4.4913,-4.4335,-4.4085,-4.3239,-4.1816,-4.1697,-4.1328,-4.0773,-4.0566,-4.0489,-4.0489,-4.0489,-4.0489,-4.0489,-4.0354,-4.0315,-4.0427,-4.0446,-4.0427,-4.0469,-4.0489,-4.0489,-4.0489,-4.0489,-4.0469,-4.0412,-4.0485,-4.0489,-4.0566,-4.0604,-4.0662,-4.0812,-4.0642,-4.0758,-4.07,-4.0642,-4.0604,-4.0508,-4.0489,-4.0489,-4.0489,-4.0489,-4.0489,-4.0489,-4.0489,-4.0508,-4.0527,-4.0527,-4.0527,-4.0604,-4.0662,-4.0527,-4.0566,-4.0773,-4.0885,-4.0915,-4.0911,-4.0945,-4.0921,-4.0805,-4.0708,-4.0677,-4.0639,-4.0566,-4.0527,-4.045,-4.0412,-4.0254,-3.9176,-3.8612,-3.8923,-3.9034,-3.8724,-3.7932,-3.7622,-3.756,-3.709,-3.6477,-3.6015,-3.5872,-3.5718,-3.5641,-3.5507,-3.5507,-3.5507,-4.6289,-4.6289,-4.6289,-4.6289,-4.6289,-4.6289,-4.6289,-4.6289,-4.6157,-4.6063,-4.5969,-4.5911,-4.5866,-4.6009,-4.6467,-4.6744,-4.6722,-4.7241,-4.7009,-4.6026,-4.5776,-4.5738,-4.5699,-4.5699,-4.5661,-4.5661,-4.5624,-4.5586,-4.5586,-4.5586,-4.5143,-4.4451,-4.4335,-4.3739,-4.272,-4.2117,-4.1617,-4.1373,-4.0777,-4.0489,-4.0489,-4.0508,-4.0508,-4.0489,-4.0489,-4.0489,-4.0489,-4.0489,-4.0489,-4.0508,-4.0489,-4.0489,-4.0489,-4.0489,-4.0489,-4.0489,-4.0489,-4.0812,-4.1328,-4.1412,-4.1662,-4.2101,-4.2274,-4.197,-4.1489,-4.1373,-4.1104,-4.0642,-4.0489,-4.0489,-4.0489,-4.0489,-4.0546,-4.0508,-4.0489,-4.0508,-4.0623,-4.1027,-4.1354,-4.1393,-4.1393,-4.147,-4.1566,-4.1585,-4.1546,-4.17,-4.1604,-4.1489,-4.1412,-4.1027,-4.06,-4.0546,-4.0489,-4.0604,-4.0681,-4.0623,-4.0489,-4.0489,-3.9811,-3.9157,-3.9408,-3.9513,-3.9166,-3.8852,-3.8543,-3.8222,-3.7723,-3.707,-3.6565,-3.6526,-3.6622,-3.6257,-3.5699,-3.5565,-3.568,-4.6289,-4.6348,-4.6641,-4.6777,-4.6777,-4.6777,-4.6777,-4.6699,-4.6241,-4.5982,-4.5888,-4.5834,-4.5757,-4.5913,-4.6664,-4.703,-4.705,-4.7856,-4.7682,-4.6682,-4.6201,-4.5932,-4.5643,-4.5586,-4.5586,-4.5586,-4.5586,-4.5586,-4.5586,-4.5566,-4.5316,-4.4874,-4.4778,-4.4374,-4.3588,-4.3008,-4.2604,-4.2258,-4.1758,-4.1316,-4.1123,-4.1296,-4.1331,-4.1101,-4.1312,-4.1447,-4.1463,-4.1174,-4.0831,-4.0566,-4.0489,-4.0489,-4.0508,-4.0777,-4.0969,-4.1046,-4.1312,-4.1748,-4.2213,-4.2299,-4.2475,-4.297,-4.2816,-4.2412,-4.1912,-4.1816,-4.1489,-4.1104,-4.1008,-4.1104,-4.1373,-4.1143,-4.1143,-4.145,-4.0854,-4.07,-4.095,-4.145,-4.195,-4.2124,-4.2277,-4.2277,-4.2162,-4.2354,-4.2431,-4.2681,-4.2527,-4.2124,-4.2008,-4.172,-4.1431,-4.1181,-4.1123,-4.1143,-4.1008,-4.0796,-4.0527,-4.0489,-4.0354,-4.0027,-4.0,-4.0096,-3.9937,-3.9706,-3.9413,-3.946,-3.9008,-3.7719,-3.6988,-3.7238,-3.77,-3.7219,-3.6776,-3.6161,-3.6045,-4.6387,-4.6484,-4.7305,-4.7656,-4.7676,-4.7676,-4.7598,-4.7383,-4.6508,-4.6002,-4.5883,-4.5719,-4.5699,-4.5893,-4.674,-4.7184,-4.7261,-4.8087,-4.8394,-4.7971,-4.7413,-4.6721,-4.593,-4.5817,-4.5759,-4.5605,-4.5719,-4.5699,-4.5586,-4.5586,-4.5586,-4.549,-4.5432,-4.5201,-4.4472,-4.4301,-4.3799,-4.3222,-4.3028,-4.253,-4.195,-4.2566,-4.2643,-4.1944,-4.2524,-4.2871,-4.273,-4.2094,-4.1328,-4.0639,-4.0489,-4.0546,-4.0719,-4.1373,-4.172,-4.1854,-4.2653,-4.2941,-4.3118,-4.3145,-4.3265,-4.3415,-4.2931,-4.1934,-4.2165,-4.2258,-4.2146,-4.1915,-4.1876,-4.2162,-4.2604,-4.2316,-4.2239,-4.2681,-4.1739,-4.1316,-4.1758,-4.1989,-4.2489,-4.3008,-4.3143,-4.3047,-4.2701,-4.3028,-4.3374,-4.3739,-4.3528,-4.2989,-4.2701,-4.2624,-4.2681,-4.2412,-4.197,-4.1893,-4.1835,-4.17,-4.147,-4.147,-4.1277,-4.095,-4.0508,-4.0469,-4.0469,-4.0296,-4.0277,-4.0354,-4.0027,-3.8757,-3.8469,-3.9104,-3.9046,-3.845,-3.7777,-3.7103,-3.6565,-4.7246,-4.7344,-4.8203,-4.8555,-4.8555,-4.8555,-4.8183,-4.7598,-4.7125,-4.6535,-4.6018,-4.5699,-4.6046,-4.6621,-4.7394,-4.8106,-4.8721,-4.951,-4.9606,-4.9106,-4.8875,-4.7874,-4.6796,-4.6547,-4.6222,-4.5836,-4.6219,-4.6256,-4.5642,-4.5605,-4.5586,-4.5586,-4.5586,-4.5509,-4.522,-4.4645,-4.4241,-4.3915,-4.3378,-4.3071,-4.2874,-4.2989,-4.2992,-4.284,-4.3028,-4.3143,-4.303,-4.2274,-4.1386,-4.06,-4.0489,-4.0835,-4.1431,-4.1758,-4.2181,-4.272,-4.3006,-4.3426,-4.3871,-4.3972,-4.4263,-4.4874,-4.4432,-4.422,-4.3398,-4.3511,-4.3319,-4.2956,-4.2744,-4.2874,-4.3047,-4.2951,-4.297,-4.2986,-4.2698,-4.2489,-4.2758,-4.3297,-4.3758,-4.3951,-4.3989,-4.4124,-4.4335,-4.4239,-4.4297,-4.4739,-4.447,-4.3932,-4.3717,-4.3374,-4.3355,-4.3104,-4.2797,-4.2758,-4.272,-4.2604,-4.2527,-4.2585,-4.2354,-4.1912,-4.1258,-4.0642,-4.0566,-4.0431,-4.0662,-4.0777,-4.0585,-3.9873,-4.0373,-4.0446,-4.0123,-3.9392,-3.8604,-3.7892,-3.7411,-4.8144,-4.8223,-4.9082,-4.9433,-4.9433,-4.9453,-4.9141,-4.8633,-4.8002,-4.7495,-4.7014,-4.6758,-4.6912,-4.743,-4.7894,-4.8567,-4.9394,-4.9933,-5.0029,-4.9971,-4.9529,-4.8624,-4.7661,-4.7375,-4.7145,-4.6722,-4.6796,-4.6602,-4.6142,-4.5815,-4.5605,-4.5586,-4.5586,-4.5586,-4.5528,-4.5163,-4.4837,-4.4778,-4.4357,-4.4013,-4.3645,-4.397,-4.3876,-4.382,-4.3893,-4.4028,-4.3607,-4.3124,-4.2354,-4.1476,-4.1149,-4.153,-4.2547,-4.2816,-4.3104,-4.3605,-4.3912,-4.4393,-4.4737,-4.4855,-4.5066,-4.5374,-4.5336,-4.4761,-4.4205,-4.4222,-4.4011,-4.3686,-4.3607,-4.3797,-4.4085,-4.4143,-4.416,-4.4218,-4.4141,-4.3989,-4.3662,-4.397,-4.4432,-4.4701,-4.4874,-4.4989,-4.5566,-4.5105,-4.5163,-4.5355,-4.5163,-4.4913,-4.4776,-4.4335,-4.4047,-4.3932,-4.3701,-4.3605,-4.3431,-4.3278,-4.3143,-4.3239,-4.3662,-4.3181,-4.2316,-4.1466,-4.1373,-4.1393,-4.1296,-4.1062,-4.0719,-4.0489,-4.0489,-4.0469,-4.0489,-4.0142,-3.9253,-3.8604,-3.8161,-4.9023,-4.9101,-4.9961,-5.0305,-5.0273,-5.0273,-5.0039,-4.9766,-4.8961,-4.8398,-4.8111,-4.8066,-4.8008,-4.8238,-4.8375,-4.8741,-4.9587,-4.9779,-5.0106,-5.0221,-4.9952,-4.9201,-4.8622,-4.8298,-4.8087,-4.7818,-4.7298,-4.7026,-4.6621,-4.5988,-4.5757,-4.5759,-4.572,-4.5701,-4.5778,-4.5643,-4.5566,-4.549,-4.5374,-4.5028,-4.4645,-4.497,-4.4989,-4.4626,-4.4989,-4.5007,-4.4566,-4.4184,-4.3686,-4.2635,-4.2189,-4.259,-4.3701,-4.4143,-4.4335,-4.4487,-4.5007,-4.5393,-4.5547,-4.547,-4.5528,-4.549,-4.4913,-4.4451,-4.453,-4.4586,-4.4547,-4.4435,-4.4434,-4.4759,-4.5182,-4.547,-4.5374,-4.5295,-4.5432,-4.518,-4.466,-4.4449,-4.4739,-4.5432,-4.5566,-4.5586,-4.5586,-4.5586,-4.5586,-4.5509,-4.5393,-4.5336,-4.5295,-4.5066,-4.5009,-4.5105,-4.4797,-4.4451,-4.4201,-4.3932,-4.3797,-4.3797,-4.4662,-4.4566,-4.3717,-4.3044,-4.2797,-4.2643,-4.2374,-4.1604,-4.0623,-4.0489,-4.0489,-4.0489,-4.0489,-4.0138,-3.9619,-3.9196,-3.8738,-4.9922,-4.9979,-5.0673,-5.0995,-5.0981,-5.0889,-5.0139,-4.8989,-4.9271,-4.869,-4.7738,-4.7913,-4.8509,-4.9124,-4.9067,-4.9606,-5.026,-5.0337,-5.0567,-5.0587,-5.0548,-5.0337,-4.9933,-4.9452,-4.8779,-4.8318,-4.7991,-4.7548,-4.6929,-4.6334,-4.599,-4.6509,-4.6124,-4.5951,-4.6451,-4.597,-4.5586,-4.5586,-4.5586,-4.5509,-4.5336,-4.5413,-4.549,-4.5278,-4.547,-4.549,-4.524,-4.4664,-4.4474,-4.4434,-4.3705,-4.3378,-4.4105,-4.4333,-4.4641,-4.5141,-4.5411,-4.5586,-4.5586,-4.5586,-4.5586,-4.5547,-4.5393,-4.5316,-4.5316,-4.5259,-4.5278,-4.5316,-4.5336,-4.5355,-4.5528,-4.5586,-4.5586,-4.5586,-4.5586,-4.5509,-4.5353,-4.5278,-4.5355,-4.5509,-4.5586,-4.5586,-4.5586,-4.5586,-4.5586,-4.5586,-4.5586,-4.5586,-4.5586,-4.5586,-4.5586,-4.5586,-4.5413,-4.4989,-4.4893,-4.4662,-4.4547,-4.4412,-4.5105,-4.5547,-4.4718,-4.4218,-4.3816,-4.3566,-4.3374,-4.247,-4.1643,-4.0489,-4.0489,-4.0489,-4.0489,-4.0292,-4.0023,-3.9662,-3.9488,-5.0762,-5.0781,-5.1087,-5.1203,-5.1202,-5.1103,-5.0588,-4.9882,-5.0055,-4.972,-4.8932,-4.8836,-4.9183,-4.9875,-4.9259,-4.9432,-5.0471,-5.0683,-5.0683,-5.0683,-5.0664,-5.0683,-5.0644,-5.0298,-4.9721,-4.9279,-4.8875,-4.8452,-4.7948,-4.7237,-4.7067,-4.7413,-4.6951,-4.6817,-4.6874,-4.6411,-4.6007,-4.5661,-4.5586,-4.5586,-4.5586,-4.5586,-4.5586,-4.5586,-4.5586,-4.5586,-4.5509,-4.5201,-4.5201,-4.524,-4.4761,-4.4434,-4.4797,-4.4893,-4.518,-4.5488,-4.5586,-4.5586,-4.5586,-4.5586,-4.5586,-4.5586,-4.5586,-4.5586,-4.5586,-4.5586,-4.5586,-4.5586,-4.5566,-4.5586,-4.5586,-4.5586,-4.5586,-4.5586,-4.5586,-4.5586,-4.5586,-4.5586,-4.5586,-4.5586,-4.5586,-4.5586,-4.5586,-4.5586,-4.5586,-4.5586,-4.5586,-4.5586,-4.5586,-4.5586,-4.5586,-4.5586,-4.5586,-4.549,-4.549,-4.5413,-4.5336,-4.524,-4.5355,-4.5586,-4.5276,-4.4913,-4.4662,-4.4432,-4.422,-4.4162,-4.3316,-4.2027,-4.0758,-4.0527,-4.0546,-4.0508,-4.0412,-4.0142,-4.0085,-5.1387,-5.1387,-5.1257,-5.1182,-5.1164,-5.1087,-5.0875,-5.0721,-5.0875,-5.0548,-5.051,-4.974,-4.9759,-5.0202,-4.9086,-4.9336,-5.0317,-5.0683,-5.0683,-5.0683,-5.0683,-5.0683,-5.0664,-5.0606,-5.0548,-5.0606,-4.9721,-4.9278,-4.9027,-4.8585,-4.7971,-4.8202,-4.8067,-4.7663,-4.7182,-4.6891,-4.641,-4.5719,-4.5586,-4.5586,-4.5586,-4.5586,-4.5586,-4.5586,-4.5586,-4.5586,-4.5586,-4.5509,-4.5566,-4.5586,-4.5586,-4.5586,-4.5586,-4.5586,-4.5586,-4.5586,-4.5586,-4.5586,-4.5586,-4.5586,-4.5586,-4.5586,-4.5586,-4.5586,-4.5586,-4.5586,-4.5586,-4.5586,-4.5586,-4.5586,-4.5586,-4.5586,-4.5586,-4.5586,-4.5586,-4.5586,-4.5586,-4.5586,-4.5586,-4.5586,-4.5586,-4.5586,-4.5586,-4.5586,-4.5586,-4.5586,-4.5586,-4.5586,-4.5586,-4.5586,-4.5586,-4.5586,-4.5586,-4.5586,-4.5586,-4.5586,-4.5586,-4.5586,-4.5586,-4.5586,-4.5586,-4.5374,-4.5124,-4.5201,-4.5066,-4.4932,-4.4624,-4.3547,-4.2354,-4.1277,-4.0623,-4.0662,-4.0623,-4.0585,-4.0604,-5.1387,-5.1386,-5.1187,-5.1116,-5.1068,-5.0856,-5.0394,-4.9875,-5.0491,-5.0317,-4.974,-4.9509,-4.9875,-5.0202,-4.9702,-4.9798,-5.0491,-5.0683,-5.0683,-5.0683,-5.0683,-5.0683,-5.0683,-5.0683,-5.0683,-5.0471,-4.9913,-4.9529,-4.9298,-4.8587,-4.8721,-4.8913,-4.8567,-4.8105,-4.7798,-4.7276,-4.6602,-4.5873,-4.5661,-4.5586,-4.5586,-4.5586,-4.5586,-4.5586,-4.5586,-4.5586,-4.5586,-4.5586,-4.5586,-4.5586,-4.5586,-4.5586,-4.5586,-4.5586,-4.5586,-4.5586,-4.5586,-4.5586,-4.5586,-4.5586,-4.5586,-4.5586,-4.5586,-4.5586,-4.5586,-4.5586,-4.5586,-4.5586,-4.5586,-4.5586,-4.5586,-4.5586,-4.5586,-4.5586,-4.5586,-4.5586,-4.5586,-4.5586,-4.5586,-4.5586,-4.5586,-4.5586,-4.5586,-4.5586,-4.5586,-4.5586,-4.5586,-4.5586,-4.5586,-4.5586,-4.5586,-4.5586,-4.5586,-4.5586,-4.5586,-4.5586,-4.5586,-4.5586,-4.5586,-4.5586,-4.5586,-4.5586,-4.5547,-4.547,-4.547,-4.5374,-4.4989,-4.4566,-4.3989,-4.2915,-4.1934,-4.095,-4.0854,-4.0873,-4.0873,-5.1387,-5.1367,-5.1186,-5.1095,-5.1029,-5.0818,-5.0452,-5.0164,-5.051,-5.0452,-5.001,-4.9663,-4.9606,-4.9856,-4.9644,-4.9894,-5.0491,-5.0683,-5.0683,-5.0683,-5.0683,-5.0683,-5.0683,-5.0683,-5.0683,-5.0587,-5.0279,-5.0029,-5.0029,-4.974,-4.9625,-4.9856,-4.9586,-4.924,-4.8682,-4.797,-4.7104,-4.6392,-4.5873,-4.5605,-4.5586,-4.5586,-4.5586,-4.5586,-4.5586,-4.5586,-4.5586,-4.5586,-4.5586,-4.5586,-4.5586,-4.5586,-4.5586,-4.5586,-4.5586,-4.5586,-4.5586,-4.5586,-4.5586,-4.5586,-4.5586,-4.5586,-4.5586,-4.5586,-4.5586,-4.5586,-4.5586,-4.5586,-4.5586,-4.5586,-4.5586,-4.5586,-4.5586,-4.5586,-4.5586,-4.5586,-4.5586,-4.5586,-4.5586,-4.5586,-4.5586,-4.5586,-4.5586,-4.5586,-4.5586,-4.5586,-4.5586,-4.5586,-4.5586,-4.5586,-4.5586,-4.5586,-4.5586,-4.5586,-4.5586,-4.5586,-4.5586,-4.5586,-4.5586,-4.5586,-4.5586,-4.5586,-4.5586,-4.5566,-4.5586,-4.5586,-4.547,-4.5086,-4.4799,-4.4472,-4.3376,-4.2335,-4.1546,-4.1181,-4.1239,-5.1375,-5.1347,-5.1142,-5.1063,-5.101,-5.0798,-5.0683,-5.0683,-5.0683,-5.0683,-5.0567,-4.9856,-4.951,-4.9644,-4.9779,-5.0086,-5.0702,-5.0818,-5.0914,-5.0741,-5.0933,-5.0933,-5.0702,-5.0683,-5.0683,-5.0683,-5.0625,-5.0683,-5.0587,-5.051,-5.0625,-5.0567,-5.0644,-5.026,-4.9336,-4.8663,-4.7912,-4.7122,-4.6313,-4.5853,-4.5642,-4.5586,-4.5586,-4.5586,-4.5586,-4.5586,-4.5586,-4.5586,-4.5586,-4.5586,-4.5586,-4.5586,-4.5586,-4.5586,-4.5586,-4.5586,-4.5586,-4.5586,-4.5586,-4.5586,-4.5586,-4.5586,-4.5586,-4.5586,-4.5586,-4.5586,-4.5586,-4.5586,-4.5586,-4.5586,-4.5586,-4.5586,-4.5586,-4.5586,-4.5586,-4.5586,-4.5586,-4.5586,-4.5586,-4.5586,-4.5586,-4.5586,-4.5586,-4.5586,-4.5586,-4.5586,-4.5586,-4.5586,-4.5586,-4.5586,-4.5586,-4.5586,-4.5586,-4.5586,-4.5586,-4.5586,-4.5586,-4.5586,-4.5586,-4.5586,-4.5586,-4.5586,-4.5586,-4.5586,-4.5586,-4.5586,-4.5586,-4.5586,-4.5297,-4.4893,-4.4374,-4.3874,-4.3278,-4.2335,-4.1873,-5.1213,-5.1194,-5.1006,-5.0914,-5.0914,-5.0741,-5.0683,-5.0683,-5.0683,-5.0683,-5.0644,-4.9913,-4.9875,-5.0298,-5.0394,-5.0548,-5.0837,-5.1202,-5.1183,-5.0818,-5.1202,-5.1164,-5.076,-5.0683,-5.0683,-5.0683,-5.0683,-5.0683,-5.0683,-5.0683,-5.0683,-5.0683,-5.0625,-5.0298,-4.9625,-4.9221,-4.8779,-4.7967,-4.7139,-4.6371,-4.5796,-4.5642,-4.5586,-4.5586,-4.5586,-4.5586,-4.5586,-4.5586,-4.5586,-4.5586,-4.5586,-4.5586,-4.5586,-4.5586,-4.5586,-4.5586,-4.5586,-4.5586,-4.5586,-4.5586,-4.5586,-4.5586,-4.5586,-4.5586,-4.5586,-4.5586,-4.5586,-4.5586,-4.5586,-4.5586,-4.5586,-4.5586,-4.5586,-4.5586,-4.5586,-4.5586,-4.5586,-4.5586,-4.5586,-4.5586,-4.5586,-4.5586,-4.5586,-4.5586,-4.5586,-4.5586,-4.5586,-4.5586,-4.5586,-4.5586,-4.5586,-4.5586,-4.5586,-4.5586,-4.5586,-4.5586,-4.5586,-4.5586,-4.5586,-4.5586,-4.5586,-4.5586,-4.5586,-4.5586,-4.5586,-4.5586,-4.5586,-4.5586,-4.5586,-4.5297,-4.4778,-4.4932,-4.5218,-4.4105,-4.2681,-5.1068,-5.1126,-5.0972,-5.0914,-5.0895,-5.076,-5.0683,-5.0683,-5.0683,-5.0683,-5.0644,-5.0337,-5.0356,-5.0587,-5.024,-5.024,-5.0683,-5.1125,-5.1048,-5.0798,-5.1048,-5.1068,-5.0779,-5.0683,-5.0683,-5.0683,-5.0683,-5.0683,-5.0683,-5.0683,-5.0683,-5.0683,-5.0683,-5.0567,-4.999,-4.9625,-4.924,-4.8566,-4.7642,-4.6756,-4.6313,-4.5892,-4.5586,-4.5586,-4.5586,-4.5586,-4.5586,-4.5586,-4.5586,-4.5586,-4.5586,-4.5586,-4.5586,-4.5586,-4.5586,-4.5586,-4.5586,-4.5586,-4.5586,-4.5586,-4.5586,-4.5586,-4.5586,-4.5586,-4.5586,-4.5586,-4.5586,-4.5586,-4.5586,-4.5586,-4.5586,-4.5586,-4.5586,-4.5586,-4.5586,-4.5586,-4.5586,-4.5586,-4.5586,-4.5586,-4.5586,-4.5586,-4.5586,-4.5586,-4.5586,-4.5586,-4.5586,-4.5586,-4.5586,-4.5586,-4.5586,-4.5586,-4.5586,-4.5586,-4.5586,-4.5586,-4.5586,-4.5586,-4.5586,-4.5586,-4.5586,-4.5586,-4.5586,-4.5586,-4.5586,-4.5586,-4.5586,-4.5586,-4.5586,-4.5413,-4.5182,-4.5374,-4.547,-4.4816,-4.3682,-5.0952,-5.101,-5.0895,-5.0837,-5.0837,-5.0741,-5.0683,-5.0683,-5.0683,-5.0683,-5.0683,-5.0664,-5.0664,-5.0587,-5.0164,-5.0221,-5.0702,-5.0894,-5.0818,-5.0798,-5.0856,-5.0933,-5.076,-5.0683,-5.0683,-5.0683,-5.0683,-5.0683,-5.0683,-5.0683,-5.0683,-5.0683,-5.0683,-5.0644,-5.051,-5.0125,-4.9663,-4.9202,-4.824,-4.745,-4.6835,-4.6257,-4.5892,-4.5699,-4.5586,-4.5586,-4.5586,-4.5586,-4.5586,-4.5586,-4.5586,-4.5586,-4.5586,-4.5586,-4.5586,-4.5586,-4.5586,-4.5586,-4.5586,-4.5586,-4.5586,-4.5586,-4.5586,-4.5586,-4.5586,-4.5586,-4.5586,-4.5586,-4.5586,-4.5586,-4.5586,-4.5586,-4.5586,-4.5586,-4.5586,-4.5586,-4.5605,-4.5663,-4.5643,-4.5586,-4.5586,-4.5586,-4.5586,-4.5586,-4.5586,-4.5586,-4.5586,-4.5586,-4.5586,-4.5586,-4.5586,-4.5586,-4.5586,-4.5586,-4.5586,-4.5586,-4.5586,-4.5586,-4.5586,-4.5586,-4.5586,-4.5586,-4.5586,-4.5586,-4.5586,-4.5586,-4.5586,-4.5586,-4.5586,-4.547,-4.5393,-4.549,-4.5393,-4.4874,-4.4624,-5.0818,-5.0721,-5.0702,-5.0702,-5.0702,-5.0702,-5.0683,-5.0683,-5.0683,-5.0644,-5.0567,-5.0683,-5.0683,-5.0606,-5.0529,-5.0529,-5.0721,-5.1491,-5.1221,-5.1106,-5.1337,-5.1183,-5.0894,-5.0683,-5.0683,-5.0683,-5.0683,-5.0683,-5.0683,-5.0683,-5.0683,-5.0683,-5.0683,-5.0683,-5.0644,-5.0471,-5.0067,-4.9663,-4.9029,-4.8202,-4.7393,-4.6719,-4.6352,-4.5738,-4.5586,-4.5586,-4.5586,-4.5586,-4.5586,-4.5586,-4.5586,-4.5586,-4.5586,-4.5586,-4.5586,-4.5586,-4.5586,-4.5586,-4.5586,-4.5586,-4.5586,-4.5586,-4.5586,-4.5586,-4.5586,-4.5586,-4.5586,-4.5586,-4.5586,-4.5586,-4.5586,-4.5586,-4.5586,-4.5663,-4.574,-4.5932,-4.5932,-4.5855,-4.5797,-4.5643,-4.5586,-4.5586,-4.5586,-4.5586,-4.5586,-4.5586,-4.5586,-4.5586,-4.5586,-4.5586,-4.5586,-4.5586,-4.5586,-4.5586,-4.5586,-4.5586,-4.5586,-4.5586,-4.5586,-4.5586,-4.5586,-4.5586,-4.5586,-4.5586,-4.5586,-4.5586,-4.5586,-4.5586,-4.5586,-4.5586,-4.5586,-4.5586,-4.5586,-4.5297,-4.524,-5.0741,-5.0683,-5.0683,-5.0683,-5.0683,-5.0683,-5.0683,-5.0683,-5.0683,-5.0356,-4.9971,-5.0414,-5.0394,-5.0163,-5.0529,-5.0683,-5.0721,-5.0952,-5.0914,-5.0875,-5.0952,-5.0952,-5.0702,-5.0683,-5.0683,-5.0683,-5.0683,-5.0683,-5.0683,-5.0683,-5.0683,-5.0683,-5.0683,-5.0683,-5.0683,-5.0683,-5.0452,-5.0144,-4.9625,-4.876,-4.7875,-4.7046,-4.6487,-4.5699,-4.5586,-4.5586,-4.5586,-4.5586,-4.5586,-4.5586,-4.5586,-4.5586,-4.5586,-4.5586,-4.5586,-4.5586,-4.5586,-4.5624,-4.5624,-4.5624,-4.5586,-4.5586,-4.5586,-4.5586,-4.5586,-4.5586,-4.5586,-4.5586,-4.5624,-4.5701,-4.5586,-4.5586,-4.5605,-4.574,-4.5933,-4.6222,-4.6318,-4.6297,-4.624,-4.6201,-4.5836,-4.5586,-4.5586,-4.5586,-4.5586,-4.5586,-4.5586,-4.5586,-4.5586,-4.5586,-4.5586,-4.5586,-4.5586,-4.5586,-4.5586,-4.5586,-4.5586,-4.5586,-4.5586,-4.5586,-4.5586,-4.5586,-4.5586,-4.5586,-4.5586,-4.5586,-4.5586,-4.5586,-4.5586,-4.5586,-4.5586,-4.5586,-4.5586,-4.5586,-4.5586,-5.0683,-5.0683,-5.0683,-5.0683,-5.0683,-5.0683,-5.0683,-5.0683,-5.0683,-5.0375,-4.9817,-5.0433,-5.0394,-5.0086,-5.0356,-5.0683,-5.0683,-5.0741,-5.0721,-5.0721,-5.0721,-5.0683,-5.0683,-5.0683,-5.0683,-5.0683,-5.0683,-5.0683,-5.0683,-5.0683,-5.0683,-5.0683,-5.0683,-5.0683,-5.0683,-5.0683,-5.0683,-5.051,-5.0125,-4.9125,-4.8202,-4.7584,-4.6621,-4.5853,-4.5586,-4.5586,-4.5586,-4.5586,-4.5586,-4.5586,-4.5586,-4.5586,-4.5586,-4.5586,-4.5586,-4.5586,-4.5624,-4.5682,-4.5874,-4.5701,-4.5624,-4.5586,-4.5586,-4.5586,-4.5605,-4.5605,-4.5586,-4.5643,-4.5778,-4.5893,-4.5797,-4.5834,-4.5796,-4.5893,-4.6396,-4.6703,-4.6876,-4.6913,-4.6855,-4.6797,-4.6394,-4.6007,-4.5643,-4.5643,-4.5701,-4.5663,-4.5586,-4.5586,-4.5586,-4.5586,-4.5586,-4.5586,-4.5586,-4.5586,-4.5586,-4.5586,-4.5586,-4.5586,-4.5586,-4.5586,-4.5586,-4.5586,-4.5586,-4.5586,-4.5586,-4.5586,-4.5586,-4.5586,-4.5586,-4.5586,-4.5586,-4.5586,-4.5586,-4.5586,-4.5586,-5.0683,-5.0683,-5.0683,-5.0683,-5.0683,-5.0683,-5.0683,-5.0683,-5.0683,-5.0587,-5.0414,-5.0625,-5.0606,-5.051,-5.0548,-5.0683,-5.0683,-5.0683,-5.0683,-5.0683,-5.0683,-5.0683,-5.0683,-5.0683,-5.0683,-5.0683,-5.0683,-5.0683,-5.0683,-5.0683,-5.0683,-5.0683,-5.0683,-5.0683,-5.0683,-5.0683,-5.0683,-5.0664,-5.0587,-4.9625,-4.8586,-4.8123,-4.7295,-4.618,-4.5834,-4.5873,-4.5605,-4.5586,-4.5586,-4.5586,-4.5586,-4.5586,-4.5586,-4.5586,-4.5624,-4.574,-4.5738,-4.6067,-4.6721,-4.6047,-4.5874,-4.5874,-4.599,-4.6067,-4.5817,-4.5759,-4.5817,-4.6047,-4.6413,-4.6374,-4.6315,-4.6296,-4.6257,-4.6317,-4.6819,-4.728,-4.7472,-4.7778,-4.7778,-4.7663,-4.7142,-4.6641,-4.6065,-4.572,-4.5815,-4.5796,-4.5643,-4.568,-4.5873,-4.6067,-4.624,-4.6009,-4.6009,-4.5586,-4.5586,-4.5586,-4.5586,-4.5586,-4.5586,-4.5586,-4.5586,-4.5586,-4.5586,-4.5586,-4.5586,-4.5586,-4.5586,-4.5586,-4.5586,-4.5586,-4.5586,-4.5586,-4.5586,-4.5586,-4.5586,-5.0683,-5.0683,-5.0683,-5.0683,-5.0683,-5.0683,-5.0683,-5.0683,-5.0644,-5.0394,-5.0067,-5.0394,-5.0317,-5.0144,-5.0433,-5.0644,-5.0683,-5.0683,-5.0683,-5.0683,-5.0683,-5.0683,-5.0683,-5.0683,-5.0683,-5.0683,-5.0683,-5.0683,-5.0683,-5.0683,-5.0683,-5.0683,-5.0683,-5.0683,-5.0683,-5.0683,-5.0683,-5.0683,-5.0587,-5.0125,-4.9086,-4.8835,-4.8142,-4.6564,-4.6467,-4.6256,-4.5815,-4.5834,-4.5834,-4.5778,-4.5778,-4.5701,-4.5682,-4.5682,-4.5913,-4.6259,-4.6488,-4.6836,-4.7433,-4.7337,-4.7008,-4.6854,-4.6835,-4.7066,-4.7221,-4.7259,-4.7028,-4.6759,-4.7221,-4.7124,-4.6817,-4.7277,-4.7335,-4.7086,-4.7433,-4.7952,-4.8298,-4.8702,-4.8856,-4.8606,-4.8221,-4.7797,-4.7277,-4.6624,-4.6509,-4.6873,-4.6894,-4.6929,-4.7083,-4.7296,-4.7451,-4.6951,-4.6624,-4.5951,-4.5605,-4.5836,-4.572,-4.5586,-4.5586,-4.5586,-4.5586,-4.5586,-4.5586,-4.5586,-4.5586,-4.5586,-4.5586,-4.5586,-4.5586,-4.5586,-4.5586,-4.5586,-4.5586,-4.5586,-4.5586,-5.0683,-5.0683,-5.0683,-5.0683,-5.0683,-5.0683,-5.0683,-5.0683,-5.0683,-5.0356,-5.0087,-5.0471,-5.0452,-5.0106,-5.0106,-5.0548,-5.0606,-5.0337,-5.0587,-5.0606,-5.0683,-5.0683,-5.0683,-5.0683,-5.0683,-5.0683,-5.0683,-5.0683,-5.0683,-5.0683,-5.0683,-5.0683,-5.0683,-5.0683,-5.0683,-5.0683,-5.0683,-5.0683,-5.0606,-5.024,-4.9586,-4.9182,-4.8701,-4.7719,-4.7257,-4.7082,-4.6641,-4.6448,-4.6431,-4.6373,-4.6219,-4.6084,-4.6047,-4.6145,-4.6356,-4.6778,-4.7585,-4.7778,-4.801,-4.8914,-4.8529,-4.7952,-4.8124,-4.8085,-4.8105,-4.7932,-4.7472,-4.7394,-4.8009,-4.7702,-4.7355,-4.7912,-4.824,-4.7991,-4.8164,-4.8702,-4.8914,-4.9298,-4.9548,-4.9356,-4.9029,-4.8701,-4.845,-4.7874,-4.7355,-4.7817,-4.824,-4.8238,-4.8179,-4.8259,-4.8355,-4.7952,-4.7528,-4.7009,-4.6547,-4.6336,-4.6124,-4.5663,-4.5586,-4.5586,-4.5586,-4.5586,-4.5586,-4.5586,-4.5586,-4.5586,-4.5586,-4.5586,-4.5586,-4.5586,-4.5586,-4.5586,-4.5586,-4.5586,-4.5586,-5.0683,-5.0683,-5.0683,-5.0683,-5.0683,-5.0606,-5.0606,-5.0664,-5.0625,-5.0587,-5.0664,-5.0567,-5.0491,-5.0452,-4.9894,-5.0029,-5.051,-4.9952,-5.0202,-5.051,-5.0683,-5.0683,-5.0683,-5.0683,-5.0683,-5.0683,-5.0683,-5.0683,-5.0683,-5.0683,-5.0683,-5.0683,-5.0683,-5.0683,-5.0683,-5.0683,-5.0683,-5.0683,-5.0644,-5.0298,-4.9837,-4.9587,-4.9106,-4.8432,-4.8123,-4.7988,-4.7757,-4.7699,-4.7777,-4.7643,-4.7316,-4.7066,-4.6933,-4.6916,-4.6935,-4.7452,-4.8586,-4.876,-4.8818,-4.9856,-4.9933,-4.9221,-4.874,-4.8394,-4.8355,-4.8509,-4.8086,-4.8125,-4.8567,-4.8029,-4.7682,-4.8413,-4.9087,-4.9029,-4.9048,-4.9279,-4.9433,-4.9683,-4.9952,-4.9817,-4.9452,-4.9221,-4.9201,-4.8777,-4.8317,-4.9029,-4.9336,-4.9067,-4.899,-4.8836,-4.8894,-4.8836,-4.8452,-4.8163,-4.7682,-4.7009,-4.6278,-4.574,-4.5605,-4.5586,-4.5586,-4.5586,-4.5586,-4.5586,-4.5586,-4.5586,-4.5586,-4.5586,-4.5586,-4.5586,-4.5586,-4.5586,-4.5586,-4.5586,-4.5586,-5.0683,-5.0683,-5.0683,-5.0683,-5.0606,-5.0029,-5.0087,-5.0567,-5.0086,-5.0048,-5.0644,-5.0029,-5.0029,-5.0625,-5.0433,-5.0452,-5.049,-5.0491,-5.051,-5.0625,-5.0683,-5.0683,-5.0683,-5.0683,-5.0683,-5.0683,-5.0683,-5.0683,-5.0683,-5.0683,-5.0683,-5.0683,-5.0683,-5.0683,-5.0741,-5.0702,-5.0702,-5.0741,-5.076,-5.0491,-5.0317,-5.0221,-4.9683,-4.926,-4.9029,-4.8817,-4.8452,-4.8317,-4.8279,-4.8106,-4.7933,-4.776,-4.7759,-4.7779,-4.7895,-4.8721,-4.9644,-5.0202,-5.0086,-5.0414,-5.0529,-5.0298,-4.9894,-5.001,-4.9798,-4.9336,-4.8856,-4.8933,-4.9298,-4.9048,-4.8798,-4.924,-4.9606,-4.9606,-4.9663,-4.9856,-4.9952,-5.0048,-5.0298,-5.024,-4.9894,-4.9798,-4.9817,-4.9528,-4.9279,-5.0106,-5.0394,-5.001,-4.976,-4.9586,-4.951,-4.9471,-4.9221,-4.8894,-4.8086,-4.7355,-4.6528,-4.5855,-4.5701,-4.5586,-4.5586,-4.5586,-4.5586,-4.5586,-4.5586,-4.5586,-4.5586,-4.5586,-4.5586,-4.5586,-4.5586,-4.5586,-4.5586,-4.5586,-4.5586,-4.9663,-4.9721,-5.0048,-5.0375,-5.0452,-4.9394,-4.9375,-4.9933,-4.926,-4.9394,-5.0029,-4.926,-4.9164,-4.9529,-4.9567,-4.9759,-5.0106,-5.0067,-5.0221,-5.0644,-5.0683,-5.0683,-5.0683,-5.0683,-5.0683,-5.0683,-5.0683,-5.0683,-5.0683,-5.0683,-5.0683,-5.0683,-5.0683,-5.0914,-5.1029,-5.0972,-5.0933,-5.0972,-5.0952,-5.0741,-5.0683,-5.0683,-5.0317,-5.0029,-4.9875,-4.949,-4.9163,-4.9067,-4.9087,-4.901,-4.8933,-4.8625,-4.8625,-4.8644,-4.9009,-4.974,-5.024,-5.0567,-5.0529,-5.0567,-5.0683,-5.0606,-5.0452,-5.0337,-5.0394,-5.0106,-4.9663,-4.949,-5.0048,-5.0394,-5.0183,-5.0029,-5.001,-4.999,-5.0183,-5.0394,-5.0433,-5.0471,-5.0529,-5.0567,-5.0452,-5.0337,-5.0202,-4.999,-4.9971,-5.0414,-5.0644,-5.051,-5.0337,-5.0279,-5.024,-5.0221,-4.9913,-4.9548,-4.8625,-4.7702,-4.7028,-4.6259,-4.5682,-4.5586,-4.5605,-4.5624,-4.5663,-4.5624,-4.5586,-4.5586,-4.5586,-4.5586,-4.5586,-4.5663,-4.5759,-4.574,-4.5701,-4.5586,-4.5586,-4.8144,-4.8221,-4.8952,-4.9721,-5.0183,-4.8702,-4.849,-4.9125,-4.8259,-4.8432,-4.899,-4.8394,-4.8183,-4.8721,-4.8798,-4.9221,-4.9702,-4.9952,-5.024,-5.0683,-5.0683,-5.0683,-5.0683,-5.0683,-5.0683,-5.0683,-5.0683,-5.0683,-5.0683,-5.0683,-5.0683,-5.0702,-5.0875,-5.1183,-5.1568,-5.1221,-5.1221,-5.1472,-5.1087,-5.0683,-5.0683,-5.0683,-5.0683,-5.0644,-5.0606,-5.0548,-5.0567,-5.0606,-5.0683,-5.0394,-5.0067,-4.9529,-4.951,-4.9529,-5.001,-5.0279,-5.0606,-5.0644,-5.0683,-5.0683,-5.0683,-5.0452,-5.0029,-5.0221,-5.0433,-5.026,-4.976,-4.9913,-5.0394,-5.0471,-5.0279,-5.0337,-5.0375,-5.0356,-5.0471,-5.0567,-5.0587,-5.0644,-5.076,-5.0779,-5.0721,-5.0683,-5.0971,-5.0779,-5.0279,-5.0606,-5.0683,-5.0683,-5.0683,-5.0683,-5.0683,-5.0683,-5.0414,-4.9875,-4.8798,-4.799,-4.7548,-4.6855,-4.6105,-4.6086,-4.6451,-4.6182,-4.574,-4.5817,-4.5893,-4.5663,-4.5586,-4.5586,-4.5759,-4.6124,-4.6163,-4.6009,-4.5874,-4.5778,-4.5682,-4.8105,-4.8125,-4.8317,-4.8548,-4.8586,-4.7625,-4.7644,-4.824,-4.6817,-4.7067,-4.8067,-4.7681,-4.7835,-4.8567,-4.8798,-4.9317,-4.9971,-5.0144,-5.0471,-5.0625,-5.0683,-5.0683,-5.0683,-5.0683,-5.0683,-5.0683,-5.0683,-5.0683,-5.0683,-5.0683,-5.0721,-5.0818,-5.1144,-5.1703,-5.1992,-5.1606,-5.1664,-5.2011,-5.1164,-5.0779,-5.0818,-5.0721,-5.0683,-5.0683,-5.0683,-5.0683,-5.0683,-5.0683,-5.0683,-5.0587,-5.0529,-5.0394,-5.0375,-5.0356,-5.0452,-5.0625,-5.0683,-5.0683,-5.0683,-5.0683,-5.0683,-5.0683,-5.0471,-5.0529,-5.0433,-4.999,-4.9933,-5.026,-5.0433,-5.0414,-5.0433,-5.0587,-5.0683,-5.0683,-5.076,-5.076,-5.076,-5.0933,-5.1068,-5.0952,-5.0894,-5.1144,-5.1471,-5.1298,-5.0856,-5.0683,-5.0683,-5.0683,-5.0683,-5.0683,-5.0683,-5.0683,-5.0683,-5.0087,-4.9009,-4.8413,-4.8048,-4.749,-4.6778,-4.6932,-4.7356,-4.6759,-4.6278,-4.6259,-4.624,-4.5932,-4.5701,-4.5605,-4.5855,-4.649,-4.7105,-4.7182,-4.6509,-4.622,-4.6009,-4.699,-4.699,-4.699,-4.7432,-4.7817,-4.6836,-4.6797,-4.7221,-4.6163,-4.6105,-4.6855,-4.6604,-4.6891,-4.797,-4.8413,-4.9029,-4.9759,-5.0433,-5.0567,-5.0664,-5.0663,-5.0683,-5.0683,-5.0683,-5.0683,-5.0683,-5.0683,-5.0683,-5.0741,-5.0721,-5.0779,-5.1221,-5.1779,-5.2126,-5.2299,-5.2222,-5.2164,-5.2415,-5.1376,-5.0991,-5.1048,-5.0933,-5.0721,-5.0683,-5.0683,-5.0683,-5.0683,-5.0683,-5.0683,-5.0683,-5.0644,-5.0644,-5.0606,-5.0606,-5.0644,-5.0683,-5.0683,-5.0683,-5.0683,-5.0683,-5.0683,-5.0683,-5.0683,-5.0644,-5.0644,-5.0298,-5.0279,-5.0567,-5.0587,-5.0567,-5.0567,-5.0664,-5.0683,-5.0683,-5.1106,-5.1375,-5.1606,-5.1875,-5.1491,-5.0856,-5.0952,-5.1241,-5.1375,-5.1048,-5.0702,-5.0702,-5.0702,-5.0779,-5.076,-5.0798,-5.0779,-5.0683,-5.0683,-5.0164,-4.9086,-4.874,-4.8682,-4.8067,-4.7528,-4.8375,-4.8913,-4.7625,-4.6836,-4.6817,-4.6605,-4.6105,-4.5893,-4.5951,-4.649,-4.7221,-4.7952,-4.8567,-4.7663,-4.6682,-4.6336,-4.5643,-4.5586,-4.5624,-4.6432,-4.7451,-4.6259,-4.6028,-4.6528,-4.5913,-4.5586,-4.574,-4.5701,-4.5605,-4.624,-4.7204,-4.776,-4.8581,-4.9778,-5.0325,-5.0565,-5.0584,-5.0624,-5.0663,-5.0683,-5.0683,-5.0914,-5.1106,-5.1049,-5.1029,-5.1221,-5.1645,-5.201,-5.228,-5.2549,-5.2896,-5.278,-5.2607,-5.2818,-5.2318,-5.1606,-5.1375,-5.1144,-5.0818,-5.0683,-5.0683,-5.0683,-5.0683,-5.0683,-5.0683,-5.0683,-5.0683,-5.0683,-5.0683,-5.0683,-5.0683,-5.0683,-5.0683,-5.0683,-5.0683,-5.0683,-5.0683,-5.0683,-5.0702,-5.0741,-5.076,-5.0856,-5.0837,-5.0856,-5.0875,-5.076,-5.076,-5.076,-5.076,-5.1068,-5.1606,-5.2068,-5.2414,-5.2722,-5.2029,-5.1221,-5.1433,-5.1741,-5.1452,-5.1106,-5.1048,-5.0991,-5.0952,-5.0914,-5.0952,-5.1048,-5.1068,-5.0856,-5.0683,-4.999,-4.9163,-4.926,-4.9356,-4.9144,-4.8875,-4.9933,-5.0279,-4.8759,-4.7721,-4.7394,-4.7086,-4.6586,-4.649,-4.6567,-4.7221,-4.7971,-4.8836,-4.9356,-4.8259,-4.7336,-4.6682,-4.5586,-4.5586,-4.5586,-4.5817,-4.6028,-4.572,-4.5682,-4.5797,-4.5701,-4.5586,-4.5568,-4.5624,-4.5776,-4.6182,-4.7119,-4.7772,-4.8386,-4.9432,-4.9904,-5.0159,-5.0291,-5.0462,-5.0778,-5.1106,-5.0779,-5.1164,-5.1799,-5.2165,-5.17,-5.2162,-5.2682,-5.2855,-5.326,-5.3587,-5.3953,-5.3741,-5.347,-5.3587,-5.3182,-5.245,-5.1779,-5.1395,-5.0818,-5.0683,-5.0683,-5.0683,-5.0683,-5.0683,-5.0683,-5.0683,-5.0683,-5.0683,-5.0683,-5.0702,-5.0741,-5.0894,-5.0875,-5.0971,-5.101,-5.1087,-5.1164,-5.1087,-5.1106,-5.1048,-5.1202,-5.1548,-5.1548,-5.1568,-5.1471,-5.1087,-5.101,-5.101,-5.1087,-5.1856,-5.2491,-5.2799,-5.3106,-5.3318,-5.3145,-5.2876,-5.2914,-5.2876,-5.2606,-5.2472,-5.2549,-5.2491,-5.2414,-5.2299,-5.1741,-5.1587,-5.1471,-5.1144,-5.0856,-5.0164,-4.951,-4.999,-5.0125,-4.999,-4.9952,-5.0414,-5.0356,-4.9586,-4.8779,-4.8298,-4.7721,-4.7201,-4.7182,-4.7336,-4.7971,-4.8779,-4.976,-5.0048,-4.8933,-4.8067,-4.749]}]]